Wetterdaten: Sonntag, 01.05.2016
Datum Zeit Temp. A. Feuchte A. Luftdruck Regen Wind Richtung Richtung Sonnenschein ET UV Solar Taupunkt Windchill Windben Empfang
01.05.2016 00:00 10,1 C 65 % 1011,4 hPa 0,0 l/m 10,2 km/h (2 Bft) O-NO 76 0 min 0,000 mm 0,0 UV-I 0 W/m 3,8 C 7,6 C 14,5 km/h (3 Bft) 100,00 %
01.05.2016 00:02 10,1 C 65 % 1011,4 hPa 0,0 l/m 12,9 km/h (3 Bft) O-NO 70 0 min 0,000 mm 0,0 UV-I 0 W/m 3,8 C 6,2 C 12,9 km/h (3 Bft) 100,00 %
01.05.2016 00:03 10,1 C 65 % 1011,4 hPa 0,0 l/m 11,7 km/h (2 Bft) NO 56 0 min 0,000 mm 0,0 UV-I 0 W/m 3,8 C 6,8 C 16,1 km/h (3 Bft) 95,65 %
01.05.2016 00:04 10,1 C 66 % 1011,4 hPa 0,0 l/m 9,2 km/h (2 Bft) O-NO 59 0 min 0,000 mm 0,0 UV-I 0 W/m 4,0 C 8,2 C 12,9 km/h (3 Bft) 100,00 %
01.05.2016 00:05 10,1 C 66 % 1011,3 hPa 0,0 l/m 9,1 km/h (2 Bft) O-NO 59 0 min 0,000 mm 0,0 UV-I 0 W/m 4,0 C 8,2 C 14,5 km/h (3 Bft) 100,00 %
01.05.2016 00:06 10,0 C 66 % 1011,3 hPa 0,0 l/m 8,7 km/h (2 Bft) O-NO 66 0 min 0,000 mm 0,0 UV-I 0 W/m 3,9 C 8,4 C 12,9 km/h (3 Bft) 100,00 %
01.05.2016 00:07 10,0 C 66 % 1011,3 hPa 0,0 l/m 10,7 km/h (2 Bft) O-NO 59 0 min 0,000 mm 0,0 UV-I 0 W/m 3,9 C 7,2 C 14,5 km/h (3 Bft) 100,00 %
01.05.2016 00:08 9,9 C 66 % 1011,3 hPa 0,0 l/m 10,5 km/h (2 Bft) O-NO 69 0 min 0,000 mm 0,0 UV-I 0 W/m 3,9 C 7,2 C 14,5 km/h (3 Bft) 100,00 %
01.05.2016 00:09 9,9 C 66 % 1011,3 hPa 0,0 l/m 8,0 km/h (2 Bft) O-NO 61 0 min 0,000 mm 0,0 UV-I 0 W/m 3,9 C 8,7 C 9,7 km/h (2 Bft) 95,65 %
01.05.2016 00:10 9,9 C 66 % 1011,3 hPa 0,0 l/m 7,8 km/h (2 Bft) O-NO 71 0 min 0,000 mm 0,0 UV-I 0 W/m 3,9 C 8,9 C 9,7 km/h (2 Bft) 100,00 %
01.05.2016 00:11 9,9 C 67 % 1011,4 hPa 0,0 l/m 8,5 km/h (2 Bft) O-NO 61 0 min 0,000 mm 0,0 UV-I 0 W/m 4,1 C 8,4 C 12,9 km/h (3 Bft) 100,00 %
01.05.2016 00:12 9,9 C 67 % 1011,4 hPa 0,0 l/m 8,0 km/h (2 Bft) NO 44 0 min 0,000 mm 0,0 UV-I 0 W/m 4,1 C 8,7 C 9,7 km/h (2 Bft) 100,00 %
01.05.2016 00:13 9,8 C 66 % 1011,4 hPa 0,0 l/m 8,8 km/h (2 Bft) O-NO 59 0 min 0,000 mm 0,0 UV-I 0 W/m 3,8 C 8,1 C 14,5 km/h (3 Bft) 100,00 %
01.05.2016 00:14 9,8 C 67 % 1011,4 hPa 0,0 l/m 8,4 km/h (2 Bft) O-NO 71 0 min 0,000 mm 0,0 UV-I 0 W/m 4,0 C 8,4 C 16,1 km/h (3 Bft) 100,00 %
01.05.2016 00:15 9,8 C 67 % 1011,4 hPa 0,0 l/m 10,3 km/h (2 Bft) O-NO 63 0 min 0,000 mm 0,0 UV-I 0 W/m 4,0 C 7,2 C 14,5 km/h (3 Bft) 95,83 %
01.05.2016 00:16 9,8 C 67 % 1011,4 hPa 0,0 l/m 8,0 km/h (2 Bft) O 86 0 min 0,000 mm 0,0 UV-I 0 W/m 4,0 C 8,6 C 14,5 km/h (3 Bft) 100,00 %
01.05.2016 00:17 9,8 C 67 % 1011,4 hPa 0,0 l/m 9,9 km/h (2 Bft) O-NO 67 0 min 0,000 mm 0,0 UV-I 0 W/m 4,0 C 7,4 C 14,5 km/h (3 Bft) 100,00 %
01.05.2016 00:18 9,8 C 67 % 1011,4 hPa 0,0 l/m 11,1 km/h (2 Bft) O-NO 59 0 min 0,000 mm 0,0 UV-I 0 W/m 4,0 C 6,8 C 14,5 km/h (3 Bft) 95,65 %
01.05.2016 00:19 9,8 C 67 % 1011,4 hPa 0,0 l/m 11,6 km/h (2 Bft) NO 49 0 min 0,000 mm 0,0 UV-I 0 W/m 4,0 C 6,5 C 16,1 km/h (3 Bft) 100,00 %
01.05.2016 00:20 9,7 C 67 % 1011,4 hPa 0,0 l/m 10,3 km/h (2 Bft) O-NO 61 0 min 0,000 mm 0,0 UV-I 0 W/m 3,9 C 7,1 C 14,5 km/h (3 Bft) 95,65 %
01.05.2016 00:21 9,7 C 67 % 1011,4 hPa 0,0 l/m 9,7 km/h (2 Bft) O-NO 63 0 min 0,000 mm 0,0 UV-I 0 W/m 3,9 C 7,4 C 12,9 km/h (3 Bft) 95,83 %
01.05.2016 00:22 9,7 C 67 % 1011,4 hPa 0,0 l/m 9,0 km/h (2 Bft) O-NO 64 0 min 0,000 mm 0,0 UV-I 0 W/m 3,9 C 7,9 C 12,9 km/h (3 Bft) 100,00 %
01.05.2016 00:23 9,7 C 67 % 1011,4 hPa 0,0 l/m 10,7 km/h (2 Bft) NO 34 0 min 0,000 mm 0,0 UV-I 0 W/m 3,9 C 6,9 C 14,5 km/h (3 Bft) 100,00 %
01.05.2016 00:24 9,7 C 67 % 1011,4 hPa 0,0 l/m 9,4 km/h (2 Bft) NO 49 0 min 0,000 mm 0,0 UV-I 0 W/m 3,9 C 7,6 C 14,5 km/h (3 Bft) 100,00 %
01.05.2016 00:25 9,7 C 67 % 1011,4 hPa 0,0 l/m 10,4 km/h (2 Bft) NO 40 0 min 0,000 mm 0,0 UV-I 0 W/m 3,9 C 7,0 C 14,5 km/h (3 Bft) 100,00 %
01.05.2016 00:26 9,7 C 67 % 1011,3 hPa 0,0 l/m 12,3 km/h (3 Bft) NO 53 0 min 0,000 mm 0,0 UV-I 0 W/m 3,9 C 6,0 C 17,7 km/h (3 Bft) 95,65 %
01.05.2016 00:27 9,7 C 67 % 1011,3 hPa 0,0 l/m 13,0 km/h (3 Bft) O-NO 57 0 min 0,000 mm 0,0 UV-I 0 W/m 3,9 C 5,7 C 17,7 km/h (3 Bft) 100,00 %
01.05.2016 00:28 9,7 C 67 % 1011,4 hPa 0,0 l/m 13,1 km/h (3 Bft) NO 49 0 min 0,000 mm 0,0 UV-I 0 W/m 3,9 C 5,6 C 19,3 km/h (3 Bft) 95,65 %
01.05.2016 00:29 9,7 C 67 % 1011,4 hPa 0,0 l/m 11,4 km/h (2 Bft) O-NO 61 0 min 0,000 mm 0,0 UV-I 0 W/m 3,9 C 6,5 C 16,1 km/h (3 Bft) 100,00 %
01.05.2016 00:30 9,7 C 67 % 1011,3 hPa 0,0 l/m 10,7 km/h (2 Bft) NO 49 0 min 0,000 mm 0,0 UV-I 0 W/m 3,9 C 6,9 C 16,1 km/h (3 Bft) 100,00 %
01.05.2016 00:31 9,7 C 67 % 1011,3 hPa 0,0 l/m 12,5 km/h (3 Bft) O-NO 57 0 min 0,000 mm 0,0 UV-I 0 W/m 3,9 C 5,9 C 17,7 km/h (3 Bft) 100,00 %
01.05.2016 00:32 9,7 C 67 % 1011,3 hPa 0,0 l/m 12,8 km/h (3 Bft) O-NO 61 0 min 0,000 mm 0,0 UV-I 0 W/m 3,9 C 5,8 C 16,1 km/h (3 Bft) 100,00 %
01.05.2016 00:33 9,7 C 67 % 1011,3 hPa 0,0 l/m 12,3 km/h (3 Bft) O-NO 61 0 min 0,000 mm 0,0 UV-I 0 W/m 3,9 C 6,0 C 16,1 km/h (3 Bft) 100,00 %
01.05.2016 00:34 9,7 C 67 % 1011,2 hPa 0,0 l/m 12,9 km/h (3 Bft) NO 53 0 min 0,000 mm 0,0 UV-I 0 W/m 3,9 C 5,7 C 16,1 km/h (3 Bft) 100,00 %
01.05.2016 00:35 9,7 C 67 % 1011,2 hPa 0,0 l/m 12,4 km/h (3 Bft) O-NO 63 0 min 0,000 mm 0,0 UV-I 0 W/m 3,9 C 6,0 C 19,3 km/h (3 Bft) 100,00 %
01.05.2016 00:36 9,7 C 67 % 1011,2 hPa 0,0 l/m 16,4 km/h (3 Bft) NO 54 0 min 0,000 mm 0,0 UV-I 0 W/m 3,9 C 4,2 C 20,9 km/h (4 Bft) 100,00 %
01.05.2016 00:37 9,7 C 67 % 1011,2 hPa 0,0 l/m 14,9 km/h (3 Bft) NO 51 0 min 0,000 mm 0,0 UV-I 0 W/m 3,9 C 4,8 C 20,9 km/h (4 Bft) 100,00 %
01.05.2016 00:38 9,7 C 67 % 1011,2 hPa 0,0 l/m 9,5 km/h (2 Bft) NO 48 0 min 0,000 mm 0,0 UV-I 0 W/m 3,9 C 7,6 C 14,5 km/h (3 Bft) 100,00 %
01.05.2016 00:39 9,7 C 67 % 1011,2 hPa 0,0 l/m 11,8 km/h (2 Bft) O-NO 59 0 min 0,000 mm 0,0 UV-I 0 W/m 3,9 C 6,3 C 17,7 km/h (3 Bft) 100,00 %
01.05.2016 00:40 9,7 C 67 % 1011,2 hPa 0,0 l/m 12,7 km/h (3 Bft) O-NO 78 0 min 0,000 mm 0,0 UV-I 0 W/m 3,9 C 5,8 C 16,1 km/h (3 Bft) 100,00 %
01.05.2016 00:41 9,7 C 67 % 1011,2 hPa 0,0 l/m 13,0 km/h (3 Bft) NO 55 0 min 0,000 mm 0,0 UV-I 0 W/m 3,9 C 5,7 C 16,1 km/h (3 Bft) 100,00 %
01.05.2016 00:42 9,7 C 67 % 1011,2 hPa 0,0 l/m 13,2 km/h (3 Bft) NO 49 0 min 0,000 mm 0,0 UV-I 0 W/m 3,9 C 5,6 C 17,7 km/h (3 Bft) 95,83 %
01.05.2016 00:43 9,7 C 67 % 1011,2 hPa 0,0 l/m 11,0 km/h (2 Bft) NO 50 0 min 0,000 mm 0,0 UV-I 0 W/m 3,9 C 6,7 C 17,7 km/h (3 Bft) 100,00 %
01.05.2016 00:44 9,7 C 67 % 1011,2 hPa 0,0 l/m 11,7 km/h (2 Bft) NO 51 0 min 0,000 mm 0,0 UV-I 0 W/m 3,9 C 6,3 C 16,1 km/h (3 Bft) 100,00 %
01.05.2016 00:45 9,7 C 67 % 1011,2 hPa 0,0 l/m 11,9 km/h (2 Bft) O-NO 63 0 min 0,000 mm 0,0 UV-I 0 W/m 3,9 C 6,2 C 16,1 km/h (3 Bft) 100,00 %
01.05.2016 00:46 9,7 C 67 % 1011,2 hPa 0,0 l/m 10,5 km/h (2 Bft) O-NO 68 0 min 0,000 mm 0,0 UV-I 0 W/m 3,9 C 7,0 C 16,1 km/h (3 Bft) 100,00 %
01.05.2016 00:47 9,7 C 67 % 1011,1 hPa 0,0 l/m 12,5 km/h (3 Bft) O-NO 69 0 min 0,000 mm 0,0 UV-I 0 W/m 3,9 C 5,9 C 16,1 km/h (3 Bft) 95,65 %
01.05.2016 00:48 9,7 C 67 % 1011,1 hPa 0,0 l/m 11,8 km/h (2 Bft) NO 46 0 min 0,000 mm 0,0 UV-I 0 W/m 3,9 C 6,3 C 16,1 km/h (3 Bft) 100,00 %
01.05.2016 00:49 9,7 C 67 % 1011,1 hPa 0,0 l/m 13,5 km/h (3 Bft) NO 55 0 min 0,000 mm 0,0 UV-I 0 W/m 3,9 C 5,4 C 17,7 km/h (3 Bft) 100,00 %
01.05.2016 00:50 9,7 C 67 % 1011,1 hPa 0,0 l/m 14,4 km/h (3 Bft) NO 52 0 min 0,000 mm 0,0 UV-I 0 W/m 3,9 C 5,0 C 19,3 km/h (3 Bft) 100,00 %
01.05.2016 00:51 9,7 C 67 % 1011,1 hPa 0,0 l/m 12,9 km/h (3 Bft) NO 56 0 min 0,000 mm 0,0 UV-I 0 W/m 3,9 C 5,7 C 17,7 km/h (3 Bft) 100,00 %
01.05.2016 00:52 9,7 C 67 % 1011,1 hPa 0,0 l/m 12,9 km/h (3 Bft) NO 56 0 min 0,000 mm 0,0 UV-I 0 W/m 3,9 C 5,7 C 17,7 km/h (3 Bft) 100,00 %
01.05.2016 00:53 9,7 C 67 % 1011,1 hPa 0,0 l/m 14,5 km/h (3 Bft) O-NO 63 0 min 0,000 mm 0,0 UV-I 0 W/m 3,9 C 5,0 C 20,9 km/h (4 Bft) 100,00 %
01.05.2016 00:54 9,7 C 67 % 1011,1 hPa 0,0 l/m 14,1 km/h (3 Bft) O-NO 76 0 min 0,000 mm 0,0 UV-I 0 W/m 3,9 C 5,2 C 17,7 km/h (3 Bft) 100,00 %
01.05.2016 00:55 9,7 C 67 % 1011,1 hPa 0,0 l/m 13,7 km/h (3 Bft) O-NO 61 0 min 0,000 mm 0,0 UV-I 0 W/m 3,9 C 5,3 C 17,7 km/h (3 Bft) 100,00 %
01.05.2016 00:56 9,7 C 67 % 1011,1 hPa 0,0 l/m 13,3 km/h (3 Bft) O-NO 69 0 min 0,000 mm 0,0 UV-I 0 W/m 3,9 C 5,5 C 17,7 km/h (3 Bft) 100,00 %
01.05.2016 00:57 9,7 C 67 % 1011,1 hPa 0,0 l/m 13,7 km/h (3 Bft) O-NO 67 0 min 0,000 mm 0,0 UV-I 0 W/m 3,9 C 5,3 C 19,3 km/h (3 Bft) 100,00 %
01.05.2016 00:58 9,7 C 67 % 1011,1 hPa 0,0 l/m 13,8 km/h (3 Bft) NO 37 0 min 0,000 mm 0,0 UV-I 0 W/m 3,9 C 5,3 C 19,3 km/h (3 Bft) 100,00 %
01.05.2016 00:59 9,7 C 67 % 1011,1 hPa 0,0 l/m 13,6 km/h (3 Bft) NO 53 0 min 0,000 mm 0,0 UV-I 0 W/m 3,9 C 5,4 C 19,3 km/h (3 Bft) 100,00 %
01.05.2016 01:00 9,6 C 67 % 1011,1 hPa 0,0 l/m 12,8 km/h (3 Bft) O-NO 60 0 min 0,000 mm 0,0 UV-I 0 W/m 3,8 C 5,7 C 16,1 km/h (3 Bft) 100,00 %
01.05.2016 01:01 9,6 C 67 % 1011,1 hPa 0,0 l/m 12,6 km/h (3 Bft) O-NO 61 0 min 0,051 mm 0,0 UV-I 0 W/m 3,8 C 5,8 C 17,7 km/h (3 Bft) 100,00 %
01.05.2016 01:02 9,6 C 67 % 1011,0 hPa 0,0 l/m 15,4 km/h (3 Bft) O-NO 67 0 min 0,000 mm 0,0 UV-I 0 W/m 3,8 C 4,5 C 22,5 km/h (4 Bft) 100,00 %
01.05.2016 01:03 9,7 C 67 % 1011,0 hPa 0,0 l/m 15,6 km/h (3 Bft) O-NO 63 0 min 0,000 mm 0,0 UV-I 0 W/m 3,9 C 4,5 C 24,1 km/h (4 Bft) 100,00 %
01.05.2016 01:04 9,7 C 67 % 1011,0 hPa 0,0 l/m 13,1 km/h (3 Bft) NO 51 0 min 0,000 mm 0,0 UV-I 0 W/m 3,9 C 5,6 C 17,7 km/h (3 Bft) 100,00 %
01.05.2016 01:05 9,7 C 67 % 1011,0 hPa 0,0 l/m 12,5 km/h (3 Bft) NO 47 0 min 0,000 mm 0,0 UV-I 0 W/m 3,9 C 5,9 C 16,1 km/h (3 Bft) 100,00 %
01.05.2016 01:06 9,7 C 67 % 1011,0 hPa 0,0 l/m 12,5 km/h (3 Bft) O-NO 63 0 min 0,000 mm 0,0 UV-I 0 W/m 3,9 C 5,9 C 17,7 km/h (3 Bft) 100,00 %
01.05.2016 01:07 9,7 C 67 % 1011,0 hPa 0,0 l/m 11,9 km/h (2 Bft) NO 53 0 min 0,000 mm 0,0 UV-I 0 W/m 3,9 C 6,2 C 17,7 km/h (3 Bft) 100,00 %
01.05.2016 01:08 9,7 C 67 % 1011,0 hPa 0,0 l/m 19,2 km/h (3 Bft) NO 49 0 min 0,000 mm 0,0 UV-I 0 W/m 3,9 C 3,2 C 24,1 km/h (4 Bft) 100,00 %
01.05.2016 01:09 9,7 C 67 % 1011,0 hPa 0,0 l/m 15,3 km/h (3 Bft) NO 42 0 min 0,000 mm 0,0 UV-I 0 W/m 3,9 C 4,6 C 19,3 km/h (3 Bft) 100,00 %
01.05.2016 01:10 9,7 C 67 % 1011,0 hPa 0,0 l/m 14,0 km/h (3 Bft) NO 40 0 min 0,000 mm 0,0 UV-I 0 W/m 3,9 C 5,2 C 19,3 km/h (3 Bft) 100,00 %
01.05.2016 01:11 9,7 C 67 % 1011,0 hPa 0,0 l/m 14,0 km/h (3 Bft) O-NO 59 0 min 0,000 mm 0,0 UV-I 0 W/m 3,9 C 5,2 C 17,7 km/h (3 Bft) 100,00 %
01.05.2016 01:12 9,7 C 67 % 1011,0 hPa 0,0 l/m 14,4 km/h (3 Bft) O-NO 69 0 min 0,000 mm 0,0 UV-I 0 W/m 3,9 C 5,0 C 19,3 km/h (3 Bft) 95,65 %
01.05.2016 01:13 9,7 C 67 % 1010,9 hPa 0,0 l/m 15,3 km/h (3 Bft) O-NO 61 0 min 0,000 mm 0,0 UV-I 0 W/m 3,9 C 4,6 C 19,3 km/h (3 Bft) 100,00 %
01.05.2016 01:14 9,7 C 67 % 1010,9 hPa 0,0 l/m 16,0 km/h (3 Bft) O-NO 78 0 min 0,000 mm 0,0 UV-I 0 W/m 3,9 C 4,4 C 19,3 km/h (3 Bft) 95,65 %
01.05.2016 01:15 9,7 C 67 % 1010,9 hPa 0,0 l/m 13,3 km/h (3 Bft) NO 51 0 min 0,000 mm 0,0 UV-I 0 W/m 3,9 C 5,5 C 17,7 km/h (3 Bft) 100,00 %
01.05.2016 01:16 9,7 C 67 % 1010,9 hPa 0,0 l/m 14,2 km/h (3 Bft) O-NO 60 0 min 0,000 mm 0,0 UV-I 0 W/m 3,9 C 5,1 C 19,3 km/h (3 Bft) 100,00 %
01.05.2016 01:17 9,7 C 67 % 1010,9 hPa 0,0 l/m 13,8 km/h (3 Bft) O-NO 74 0 min 0,000 mm 0,0 UV-I 0 W/m 3,9 C 5,3 C 16,1 km/h (3 Bft) 100,00 %
01.05.2016 01:18 9,7 C 66 % 1010,9 hPa 0,0 l/m 14,1 km/h (3 Bft) O-NO 66 0 min 0,000 mm 0,0 UV-I 0 W/m 3,7 C 5,2 C 17,7 km/h (3 Bft) 100,00 %
01.05.2016 01:19 9,7 C 67 % 1010,9 hPa 0,0 l/m 10,3 km/h (2 Bft) NO 51 0 min 0,000 mm 0,0 UV-I 0 W/m 3,9 C 7,1 C 14,5 km/h (3 Bft) 95,65 %
01.05.2016 01:20 9,7 C 67 % 1010,8 hPa 0,0 l/m 11,7 km/h (2 Bft) O-NO 68 0 min 0,000 mm 0,0 UV-I 0 W/m 3,9 C 6,3 C 16,1 km/h (3 Bft) 100,00 %
01.05.2016 01:21 9,7 C 66 % 1010,8 hPa 0,0 l/m 10,4 km/h (2 Bft) O-NO 57 0 min 0,000 mm 0,0 UV-I 0 W/m 3,7 C 7,0 C 17,7 km/h (3 Bft) 100,00 %
01.05.2016 01:22 9,7 C 67 % 1010,8 hPa 0,0 l/m 13,5 km/h (3 Bft) N-NO 30 0 min 0,000 mm 0,0 UV-I 0 W/m 3,9 C 5,4 C 19,3 km/h (3 Bft) 100,00 %
01.05.2016 01:23 9,7 C 66 % 1010,8 hPa 0,0 l/m 13,3 km/h (3 Bft) NO 43 0 min 0,000 mm 0,0 UV-I 0 W/m 3,7 C 5,5 C 17,7 km/h (3 Bft) 100,00 %
01.05.2016 01:24 9,7 C 66 % 1010,8 hPa 0,0 l/m 14,6 km/h (3 Bft) O-NO 67 0 min 0,000 mm 0,0 UV-I 0 W/m 3,7 C 4,9 C 20,9 km/h (4 Bft) 95,83 %
01.05.2016 01:25 9,7 C 66 % 1010,8 hPa 0,0 l/m 13,0 km/h (3 Bft) O-NO 62 0 min 0,000 mm 0,0 UV-I 0 W/m 3,7 C 5,7 C 17,7 km/h (3 Bft) 88,46 %
01.05.2016 01:26 9,7 C 66 % 1010,8 hPa 0,0 l/m 11,7 km/h (2 Bft) O-NO 74 0 min 0,000 mm 0,0 UV-I 0 W/m 3,7 C 6,3 C 16,1 km/h (3 Bft) 100,00 %
01.05.2016 01:27 9,7 C 66 % 1010,8 hPa 0,0 l/m 14,5 km/h (3 Bft) NO 47 0 min 0,000 mm 0,0 UV-I 0 W/m 3,7 C 5,0 C 17,7 km/h (3 Bft) 91,30 %
01.05.2016 01:28 9,7 C 66 % 1010,8 hPa 0,0 l/m 12,3 km/h (3 Bft) NO 51 0 min 0,000 mm 0,0 UV-I 0 W/m 3,7 C 6,0 C 16,1 km/h (3 Bft) 100,00 %
01.05.2016 01:29 9,7 C 67 % 1010,7 hPa 0,0 l/m 9,1 km/h (2 Bft) O 84 0 min 0,000 mm 0,0 UV-I 0 W/m 3,9 C 7,8 C 14,5 km/h (3 Bft) 91,30 %
01.05.2016 01:30 9,7 C 67 % 1010,7 hPa 0,0 l/m 12,2 km/h (2 Bft) NO 47 0 min 0,000 mm 0,0 UV-I 0 W/m 3,9 C 6,1 C 17,7 km/h (3 Bft) 100,00 %
01.05.2016 01:31 9,7 C 67 % 1010,7 hPa 0,0 l/m 11,6 km/h (2 Bft) NO 48 0 min 0,000 mm 0,0 UV-I 0 W/m 3,9 C 6,4 C 16,1 km/h (3 Bft) 91,30 %
01.05.2016 01:32 9,7 C 67 % 1010,7 hPa 0,0 l/m 11,8 km/h (2 Bft) NO 52 0 min 0,000 mm 0,0 UV-I 0 W/m 3,9 C 6,3 C 17,7 km/h (3 Bft) 95,83 %
01.05.2016 01:33 9,7 C 67 % 1010,7 hPa 0,0 l/m 12,7 km/h (3 Bft) O-NO 59 0 min 0,000 mm 0,0 UV-I 0 W/m 3,9 C 5,8 C 17,7 km/h (3 Bft) 100,00 %
01.05.2016 01:34 9,7 C 67 % 1010,7 hPa 0,0 l/m 13,3 km/h (3 Bft) NO 40 0 min 0,000 mm 0,0 UV-I 0 W/m 3,9 C 5,5 C 19,3 km/h (3 Bft) 96,15 %
01.05.2016 01:35 9,7 C 67 % 1010,7 hPa 0,0 l/m 13,4 km/h (3 Bft) O-NO 68 0 min 0,000 mm 0,0 UV-I 0 W/m 3,9 C 5,5 C 17,7 km/h (3 Bft) 100,00 %
01.05.2016 01:36 9,7 C 67 % 1010,7 hPa 0,0 l/m 15,8 km/h (3 Bft) O-NO 72 0 min 0,000 mm 0,0 UV-I 0 W/m 3,9 C 4,4 C 22,5 km/h (4 Bft) 91,30 %
01.05.2016 01:37 9,7 C 67 % 1010,7 hPa 0,0 l/m 14,6 km/h (3 Bft) NO 53 0 min 0,000 mm 0,0 UV-I 0 W/m 3,9 C 4,9 C 17,7 km/h (3 Bft) 100,00 %
01.05.2016 01:38 9,7 C 67 % 1010,7 hPa 0,0 l/m 14,6 km/h (3 Bft) O-NO 65 0 min 0,000 mm 0,0 UV-I 0 W/m 3,9 C 4,9 C 20,9 km/h (4 Bft) 96,15 %
01.05.2016 01:39 9,7 C 67 % 1010,7 hPa 0,0 l/m 14,0 km/h (3 Bft) O-NO 63 0 min 0,000 mm 0,0 UV-I 0 W/m 3,9 C 5,2 C 16,1 km/h (3 Bft) 100,00 %
01.05.2016 01:40 9,7 C 67 % 1010,7 hPa 0,0 l/m 12,1 km/h (2 Bft) O 80 0 min 0,000 mm 0,0 UV-I 0 W/m 3,9 C 6,1 C 17,7 km/h (3 Bft) 96,15 %
01.05.2016 01:41 9,7 C 67 % 1010,7 hPa 0,0 l/m 13,4 km/h (3 Bft) O-NO 62 0 min 0,000 mm 0,0 UV-I 0 W/m 3,9 C 5,5 C 19,3 km/h (3 Bft) 95,83 %
01.05.2016 01:42 9,7 C 67 % 1010,7 hPa 0,0 l/m 12,7 km/h (3 Bft) O-NO 59 0 min 0,000 mm 0,0 UV-I 0 W/m 3,9 C 5,8 C 17,7 km/h (3 Bft) 100,00 %
01.05.2016 01:43 9,7 C 67 % 1010,7 hPa 0,0 l/m 11,3 km/h (2 Bft) O-NO 76 0 min 0,000 mm 0,0 UV-I 0 W/m 3,9 C 6,5 C 19,3 km/h (3 Bft) 95,83 %
01.05.2016 01:44 9,7 C 67 % 1010,7 hPa 0,0 l/m 12,1 km/h (2 Bft) O-NO 61 0 min 0,000 mm 0,0 UV-I 0 W/m 3,9 C 6,1 C 20,9 km/h (4 Bft) 100,00 %
01.05.2016 01:45 9,7 C 67 % 1010,7 hPa 0,0 l/m 14,0 km/h (3 Bft) N-NO 33 0 min 0,000 mm 0,0 UV-I 0 W/m 3,9 C 5,2 C 17,7 km/h (3 Bft) 95,83 %
01.05.2016 01:46 9,7 C 68 % 1010,8 hPa 0,0 l/m 12,4 km/h (3 Bft) O-NO 61 0 min 0,000 mm 0,0 UV-I 0 W/m 4,1 C 6,0 C 19,3 km/h (3 Bft) 100,00 %
01.05.2016 01:47 9,6 C 67 % 1010,8 hPa 0,0 l/m 14,1 km/h (3 Bft) O-NO 64 0 min 0,000 mm 0,0 UV-I 0 W/m 3,8 C 5,0 C 17,7 km/h (3 Bft) 95,83 %
01.05.2016 01:48 9,6 C 68 % 1010,8 hPa 0,0 l/m 12,7 km/h (3 Bft) O-NO 70 0 min 0,000 mm 0,0 UV-I 0 W/m 4,0 C 5,7 C 17,7 km/h (3 Bft) 100,00 %
01.05.2016 01:49 9,6 C 68 % 1010,7 hPa 0,0 l/m 12,5 km/h (3 Bft) O-NO 64 0 min 0,000 mm 0,0 UV-I 0 W/m 4,0 C 5,8 C 19,3 km/h (3 Bft) 95,83 %
01.05.2016 01:50 9,6 C 68 % 1010,7 hPa 0,0 l/m 10,9 km/h (2 Bft) NO 39 0 min 0,000 mm 0,0 UV-I 0 W/m 4,0 C 6,6 C 14,5 km/h (3 Bft) 95,65 %
01.05.2016 01:51 9,6 C 68 % 1010,8 hPa 0,0 l/m 13,3 km/h (3 Bft) O-NO 64 0 min 0,000 mm 0,0 UV-I 0 W/m 4,0 C 5,4 C 20,9 km/h (4 Bft) 95,83 %
01.05.2016 01:52 9,6 C 68 % 1010,8 hPa 0,0 l/m 12,3 km/h (3 Bft) NO 53 0 min 0,000 mm 0,0 UV-I 0 W/m 4,0 C 5,9 C 17,7 km/h (3 Bft) 100,00 %
01.05.2016 01:53 9,6 C 68 % 1010,8 hPa 0,0 l/m 13,5 km/h (3 Bft) O-NO 77 0 min 0,000 mm 0,0 UV-I 0 W/m 4,0 C 5,3 C 19,3 km/h (3 Bft) 92,86 %
01.05.2016 01:54 9,6 C 68 % 1010,8 hPa 0,0 l/m 12,2 km/h (2 Bft) O-NO 67 0 min 0,000 mm 0,0 UV-I 0 W/m 4,0 C 6,0 C 20,9 km/h (4 Bft) 97,44 %
01.05.2016 01:55 9,6 C 67 % 1010,8 hPa 0,0 l/m 12,0 km/h (2 Bft) NO 44 0 min 0,000 mm 0,0 UV-I 0 W/m 3,8 C 6,1 C 19,3 km/h (3 Bft) 95,65 %
01.05.2016 01:56 9,6 C 68 % 1010,8 hPa 0,0 l/m 9,8 km/h (2 Bft) NO 49 0 min 0,000 mm 0,0 UV-I 0 W/m 4,0 C 7,3 C 14,5 km/h (3 Bft) 95,83 %
01.05.2016 01:57 9,6 C 67 % 1010,8 hPa 0,0 l/m 14,0 km/h (3 Bft) O-NO 57 0 min 0,000 mm 0,0 UV-I 0 W/m 3,8 C 5,1 C 17,7 km/h (3 Bft) 100,00 %
01.05.2016 01:58 9,6 C 68 % 1010,8 hPa 0,0 l/m 15,4 km/h (3 Bft) NO 52 0 min 0,000 mm 0,0 UV-I 0 W/m 4,0 C 4,5 C 19,3 km/h (3 Bft) 100,00 %
01.05.2016 01:59 9,6 C 68 % 1010,8 hPa 0,0 l/m 12,3 km/h (3 Bft) O-NO 76 0 min 0,000 mm 0,0 UV-I 0 W/m 4,0 C 5,9 C 14,5 km/h (3 Bft) 100,00 %
01.05.2016 02:00 9,6 C 68 % 1010,9 hPa 0,0 l/m 14,7 km/h (3 Bft) O-NO 60 0 min 0,051 mm 0,0 UV-I 0 W/m 4,0 C 4,8 C 22,5 km/h (4 Bft) 100,00 %
01.05.2016 02:01 9,6 C 68 % 1010,9 hPa 0,0 l/m 10,6 km/h (2 Bft) O-NO 76 0 min 0,000 mm 0,0 UV-I 0 W/m 4,0 C 6,8 C 14,5 km/h (3 Bft) 95,65 %
01.05.2016 02:02 9,6 C 68 % 1010,9 hPa 0,0 l/m 8,6 km/h (2 Bft) O 96 0 min 0,000 mm 0,0 UV-I 0 W/m 4,0 C 8,0 C 14,5 km/h (3 Bft) 100,00 %
01.05.2016 02:03 9,6 C 68 % 1010,9 hPa 0,0 l/m 10,7 km/h (2 Bft) O-NO 71 0 min 0,000 mm 0,0 UV-I 0 W/m 4,0 C 6,8 C 16,1 km/h (3 Bft) 100,00 %
01.05.2016 02:04 9,6 C 68 % 1011,0 hPa 0,0 l/m 12,1 km/h (2 Bft) O 96 0 min 0,000 mm 0,0 UV-I 0 W/m 4,0 C 6,0 C 16,1 km/h (3 Bft) 100,00 %
01.05.2016 02:05 9,6 C 67 % 1011,1 hPa 0,0 l/m 10,1 km/h (2 Bft) O-NO 66 0 min 0,000 mm 0,0 UV-I 0 W/m 3,8 C 7,1 C 14,5 km/h (3 Bft) 96,15 %
01.05.2016 02:06 9,6 C 67 % 1011,0 hPa 0,0 l/m 10,1 km/h (2 Bft) O 94 0 min 0,000 mm 0,0 UV-I 0 W/m 3,8 C 7,1 C 12,9 km/h (3 Bft) 100,00 %
01.05.2016 02:07 9,6 C 67 % 1011,0 hPa 0,0 l/m 12,6 km/h (3 Bft) O-NO 74 0 min 0,000 mm 0,0 UV-I 0 W/m 3,8 C 5,8 C 20,9 km/h (4 Bft) 100,00 %
01.05.2016 02:08 9,6 C 67 % 1011,0 hPa 0,0 l/m 14,2 km/h (3 Bft) O-NO 65 0 min 0,000 mm 0,0 UV-I 0 W/m 3,8 C 5,0 C 20,9 km/h (4 Bft) 100,00 %
01.05.2016 02:09 9,7 C 67 % 1011,0 hPa 0,0 l/m 14,6 km/h (3 Bft) O 90 0 min 0,000 mm 0,0 UV-I 0 W/m 3,9 C 4,9 C 20,9 km/h (4 Bft) 100,00 %
01.05.2016 02:10 9,7 C 67 % 1011,0 hPa 0,0 l/m 11,8 km/h (2 Bft) O 86 0 min 0,000 mm 0,0 UV-I 0 W/m 3,9 C 6,3 C 14,5 km/h (3 Bft) 100,00 %
01.05.2016 02:11 9,7 C 67 % 1011,0 hPa 0,0 l/m 13,1 km/h (3 Bft) O-NO 78 0 min 0,000 mm 0,0 UV-I 0 W/m 3,9 C 5,6 C 19,3 km/h (3 Bft) 100,00 %
01.05.2016 02:12 9,7 C 67 % 1011,0 hPa 0,0 l/m 8,3 km/h (2 Bft) NO 39 0 min 0,000 mm 0,0 UV-I 0 W/m 3,9 C 8,3 C 9,7 km/h (2 Bft) 100,00 %
01.05.2016 02:13 9,7 C 67 % 1011,0 hPa 0,0 l/m 11,4 km/h (2 Bft) O-NO 69 0 min 0,000 mm 0,0 UV-I 0 W/m 3,9 C 6,5 C 14,5 km/h (3 Bft) 100,00 %
01.05.2016 02:14 9,7 C 67 % 1011,0 hPa 0,0 l/m 10,7 km/h (2 Bft) O-NO 71 0 min 0,000 mm 0,0 UV-I 0 W/m 3,9 C 6,9 C 14,5 km/h (3 Bft) 100,00 %
01.05.2016 02:15 9,7 C 67 % 1011,1 hPa 0,0 l/m 10,7 km/h (2 Bft) O-NO 77 0 min 0,000 mm 0,0 UV-I 0 W/m 3,9 C 6,9 C 14,5 km/h (3 Bft) 95,83 %
01.05.2016 02:16 9,7 C 67 % 1011,0 hPa 0,0 l/m 11,9 km/h (2 Bft) O-NO 62 0 min 0,000 mm 0,0 UV-I 0 W/m 3,9 C 6,2 C 16,1 km/h (3 Bft) 91,30 %
01.05.2016 02:17 9,7 C 67 % 1011,1 hPa 0,0 l/m 12,3 km/h (3 Bft) O-NO 65 0 min 0,000 mm 0,0 UV-I 0 W/m 3,9 C 6,0 C 16,1 km/h (3 Bft) 100,00 %
01.05.2016 02:18 9,7 C 67 % 1011,1 hPa 0,0 l/m 12,2 km/h (2 Bft) O-NO 71 0 min 0,000 mm 0,0 UV-I 0 W/m 3,9 C 6,1 C 16,1 km/h (3 Bft) 95,65 %
01.05.2016 02:19 9,7 C 68 % 1011,0 hPa 0,0 l/m 14,3 km/h (3 Bft) NO 41 0 min 0,000 mm 0,0 UV-I 0 W/m 4,1 C 5,1 C 17,7 km/h (3 Bft) 100,00 %
01.05.2016 02:20 9,7 C 68 % 1011,1 hPa 0,0 l/m 15,2 km/h (3 Bft) O 85 0 min 0,000 mm 0,0 UV-I 0 W/m 4,1 C 4,7 C 19,3 km/h (3 Bft) 95,65 %
01.05.2016 02:21 9,7 C 67 % 1011,1 hPa 0,0 l/m 13,9 km/h (3 Bft) NO 43 0 min 0,000 mm 0,0 UV-I 0 W/m 3,9 C 5,3 C 16,1 km/h (3 Bft) 100,00 %
01.05.2016 02:22 9,7 C 67 % 1011,1 hPa 0,0 l/m 14,8 km/h (3 Bft) NO 48 0 min 0,000 mm 0,0 UV-I 0 W/m 3,9 C 4,9 C 20,9 km/h (4 Bft) 100,00 %
01.05.2016 02:23 9,7 C 67 % 1011,0 hPa 0,0 l/m 13,8 km/h (3 Bft) NO 54 0 min 0,000 mm 0,0 UV-I 0 W/m 3,9 C 5,3 C 17,7 km/h (3 Bft) 100,00 %
01.05.2016 02:24 9,7 C 67 % 1011,0 hPa 0,0 l/m 13,5 km/h (3 Bft) O-NO 60 0 min 0,000 mm 0,0 UV-I 0 W/m 3,9 C 5,4 C 19,3 km/h (3 Bft) 95,65 %
01.05.2016 02:25 9,7 C 67 % 1011,0 hPa 0,0 l/m 14,1 km/h (3 Bft) O-NO 60 0 min 0,000 mm 0,0 UV-I 0 W/m 3,9 C 5,2 C 17,7 km/h (3 Bft) 100,00 %
01.05.2016 02:26 9,7 C 67 % 1010,9 hPa 0,0 l/m 13,9 km/h (3 Bft) O-NO 59 0 min 0,000 mm 0,0 UV-I 0 W/m 3,9 C 5,3 C 16,1 km/h (3 Bft) 100,00 %
01.05.2016 02:27 9,7 C 67 % 1010,9 hPa 0,0 l/m 15,2 km/h (3 Bft) O-NO 64 0 min 0,000 mm 0,0 UV-I 0 W/m 3,9 C 4,7 C 22,5 km/h (4 Bft) 100,00 %
01.05.2016 02:28 9,7 C 67 % 1010,8 hPa 0,0 l/m 17,4 km/h (3 Bft) NO 40 0 min 0,000 mm 0,0 UV-I 0 W/m 3,9 C 3,8 C 20,9 km/h (4 Bft) 95,65 %
01.05.2016 02:29 9,7 C 67 % 1010,8 hPa 0,0 l/m 15,4 km/h (3 Bft) O-NO 67 0 min 0,000 mm 0,0 UV-I 0 W/m 3,9 C 4,6 C 20,9 km/h (4 Bft) 95,83 %
01.05.2016 02:30 9,7 C 67 % 1010,9 hPa 0,0 l/m 12,8 km/h (3 Bft) O-NO 57 0 min 0,000 mm 0,0 UV-I 0 W/m 3,9 C 5,8 C 17,7 km/h (3 Bft) 100,00 %
01.05.2016 02:31 9,7 C 67 % 1010,8 hPa 0,0 l/m 16,0 km/h (3 Bft) O-NO 60 0 min 0,000 mm 0,0 UV-I 0 W/m 3,9 C 4,4 C 19,3 km/h (3 Bft) 100,00 %
01.05.2016 02:32 9,7 C 67 % 1010,8 hPa 0,0 l/m 15,8 km/h (3 Bft) O-NO 57 0 min 0,000 mm 0,0 UV-I 0 W/m 3,9 C 4,4 C 19,3 km/h (3 Bft) 100,00 %
01.05.2016 02:33 9,7 C 67 % 1010,8 hPa 0,0 l/m 15,6 km/h (3 Bft) O-NO 59 0 min 0,000 mm 0,0 UV-I 0 W/m 3,9 C 4,5 C 19,3 km/h (3 Bft) 91,67 %
01.05.2016 02:34 9,7 C 67 % 1010,7 hPa 0,0 l/m 14,7 km/h (3 Bft) O-NO 78 0 min 0,000 mm 0,0 UV-I 0 W/m 3,9 C 4,9 C 19,3 km/h (3 Bft) 100,00 %
01.05.2016 02:35 9,7 C 68 % 1010,8 hPa 0,0 l/m 15,2 km/h (3 Bft) NO 53 0 min 0,000 mm 0,0 UV-I 0 W/m 4,1 C 4,7 C 20,9 km/h (4 Bft) 95,65 %
01.05.2016 02:36 9,7 C 68 % 1010,8 hPa 0,0 l/m 14,3 km/h (3 Bft) O-NO 71 0 min 0,000 mm 0,0 UV-I 0 W/m 4,1 C 5,1 C 20,9 km/h (4 Bft) 100,00 %
01.05.2016 02:37 9,7 C 68 % 1010,8 hPa 0,0 l/m 12,5 km/h (3 Bft) O-NO 71 0 min 0,000 mm 0,0 UV-I 0 W/m 4,1 C 5,9 C 17,7 km/h (3 Bft) 100,00 %
01.05.2016 02:38 9,7 C 68 % 1010,9 hPa 0,0 l/m 12,2 km/h (2 Bft) NO 51 0 min 0,000 mm 0,0 UV-I 0 W/m 4,1 C 6,1 C 16,1 km/h (3 Bft) 100,00 %
01.05.2016 02:39 9,6 C 68 % 1010,9 hPa 0,0 l/m 13,9 km/h (3 Bft) O-NO 70 0 min 0,000 mm 0,0 UV-I 0 W/m 4,0 C 5,1 C 17,7 km/h (3 Bft) 100,00 %
01.05.2016 02:40 9,6 C 68 % 1010,8 hPa 0,0 l/m 13,5 km/h (3 Bft) O-NO 59 0 min 0,000 mm 0,0 UV-I 0 W/m 4,0 C 5,3 C 17,7 km/h (3 Bft) 100,00 %
01.05.2016 02:41 9,6 C 68 % 1010,8 hPa 0,0 l/m 12,2 km/h (2 Bft) NO 36 0 min 0,000 mm 0,0 UV-I 0 W/m 4,0 C 6,0 C 16,1 km/h (3 Bft) 100,00 %
01.05.2016 02:42 9,6 C 68 % 1010,8 hPa 0,0 l/m 11,6 km/h (2 Bft) NO 49 0 min 0,000 mm 0,0 UV-I 0 W/m 4,0 C 6,3 C 16,1 km/h (3 Bft) 100,00 %
01.05.2016 02:43 9,6 C 68 % 1010,8 hPa 0,0 l/m 13,6 km/h (3 Bft) NO 49 0 min 0,000 mm 0,0 UV-I 0 W/m 4,0 C 5,3 C 19,3 km/h (3 Bft) 100,00 %
01.05.2016 02:44 9,6 C 68 % 1010,8 hPa 0,0 l/m 12,4 km/h (3 Bft) NO 53 0 min 0,000 mm 0,0 UV-I 0 W/m 4,0 C 5,9 C 16,1 km/h (3 Bft) 100,00 %
01.05.2016 02:45 9,6 C 68 % 1010,8 hPa 0,0 l/m 9,6 km/h (2 Bft) O-NO 63 0 min 0,000 mm 0,0 UV-I 0 W/m 4,0 C 7,4 C 12,9 km/h (3 Bft) 100,00 %
01.05.2016 02:46 9,5 C 69 % 1010,8 hPa 0,0 l/m 10,2 km/h (2 Bft) O-NO 59 0 min 0,000 mm 0,0 UV-I 0 W/m 4,1 C 6,9 C 14,5 km/h (3 Bft) 100,00 %
01.05.2016 02:47 9,5 C 68 % 1010,8 hPa 0,0 l/m 8,1 km/h (2 Bft) O-NO 78 0 min 0,000 mm 0,0 UV-I 0 W/m 3,9 C 8,3 C 12,9 km/h (3 Bft) 100,00 %
01.05.2016 02:48 9,5 C 69 % 1010,8 hPa 0,0 l/m 8,4 km/h (2 Bft) O-NO 61 0 min 0,000 mm 0,0 UV-I 0 W/m 4,1 C 8,1 C 12,9 km/h (3 Bft) 100,00 %
01.05.2016 02:49 9,5 C 68 % 1010,8 hPa 0,0 l/m 10,6 km/h (2 Bft) O-NO 66 0 min 0,000 mm 0,0 UV-I 0 W/m 3,9 C 6,7 C 16,1 km/h (3 Bft) 100,00 %
01.05.2016 02:50 9,4 C 68 % 1010,9 hPa 0,0 l/m 8,0 km/h (2 Bft) O-NO 61 0 min 0,000 mm 0,0 UV-I 0 W/m 3,8 C 8,2 C 12,9 km/h (3 Bft) 100,00 %
01.05.2016 02:51 9,4 C 68 % 1010,9 hPa 0,0 l/m 13,3 km/h (3 Bft) NO 46 0 min 0,000 mm 0,0 UV-I 0 W/m 3,8 C 5,2 C 17,7 km/h (3 Bft) 100,00 %
01.05.2016 02:52 9,4 C 69 % 1010,9 hPa 0,0 l/m 12,6 km/h (3 Bft) O-NO 68 0 min 0,000 mm 0,0 UV-I 0 W/m 4,0 C 5,5 C 16,1 km/h (3 Bft) 100,00 %
01.05.2016 02:53 9,4 C 69 % 1010,9 hPa 0,0 l/m 11,9 km/h (2 Bft) O 88 0 min 0,000 mm 0,0 UV-I 0 W/m 4,0 C 5,9 C 17,7 km/h (3 Bft) 100,00 %
01.05.2016 02:54 9,4 C 68 % 1010,9 hPa 0,0 l/m 11,5 km/h (2 Bft) NO 53 0 min 0,000 mm 0,0 UV-I 0 W/m 3,8 C 6,1 C 19,3 km/h (3 Bft) 100,00 %
01.05.2016 02:55 9,4 C 68 % 1010,8 hPa 0,0 l/m 11,9 km/h (2 Bft) NO 51 0 min 0,000 mm 0,0 UV-I 0 W/m 3,8 C 5,9 C 17,7 km/h (3 Bft) 100,00 %
01.05.2016 02:56 9,4 C 68 % 1010,8 hPa 0,0 l/m 11,1 km/h (2 Bft) NO 44 0 min 0,000 mm 0,0 UV-I 0 W/m 3,8 C 6,3 C 14,5 km/h (3 Bft) 95,65 %
01.05.2016 02:57 9,4 C 68 % 1010,8 hPa 0,0 l/m 14,2 km/h (3 Bft) NO 45 0 min 0,000 mm 0,0 UV-I 0 W/m 3,8 C 4,8 C 17,7 km/h (3 Bft) 100,00 %
01.05.2016 02:58 9,4 C 68 % 1010,8 hPa 0,0 l/m 13,9 km/h (3 Bft) O-NO 63 0 min 0,000 mm 0,0 UV-I 0 W/m 3,8 C 4,9 C 17,7 km/h (3 Bft) 100,00 %
01.05.2016 02:59 9,4 C 68 % 1010,8 hPa 0,0 l/m 16,9 km/h (3 Bft) NO 47 0 min 0,000 mm 0,0 UV-I 0 W/m 3,8 C 3,6 C 20,9 km/h (4 Bft) 100,00 %
01.05.2016 03:00 9,5 C 68 % 1010,8 hPa 0,0 l/m 14,1 km/h (3 Bft) O-NO 67 0 min 0,000 mm 0,0 UV-I 0 W/m 3,9 C 4,9 C 19,3 km/h (3 Bft) 100,00 %
01.05.2016 03:01 9,5 C 68 % 1010,8 hPa 0,0 l/m 13,5 km/h (3 Bft) O-NO 59 0 min 0,050 mm 0,0 UV-I 0 W/m 3,9 C 5,2 C 16,1 km/h (3 Bft) 100,00 %
01.05.2016 03:02 9,5 C 68 % 1010,8 hPa 0,0 l/m 14,3 km/h (3 Bft) O-NO 71 0 min 0,000 mm 0,0 UV-I 0 W/m 3,9 C 4,8 C 20,9 km/h (4 Bft) 100,00 %
01.05.2016 03:03 9,5 C 68 % 1010,8 hPa 0,0 l/m 12,8 km/h (3 Bft) O-NO 78 0 min 0,000 mm 0,0 UV-I 0 W/m 3,9 C 5,5 C 19,3 km/h (3 Bft) 100,00 %
01.05.2016 03:04 9,6 C 68 % 1010,8 hPa 0,0 l/m 12,7 km/h (3 Bft) NO 41 0 min 0,000 mm 0,0 UV-I 0 W/m 4,0 C 5,7 C 16,1 km/h (3 Bft) 100,00 %
01.05.2016 03:05 9,6 C 68 % 1010,8 hPa 0,0 l/m 13,5 km/h (3 Bft) NO 56 0 min 0,000 mm 0,0 UV-I 0 W/m 4,0 C 5,3 C 17,7 km/h (3 Bft) 100,00 %
01.05.2016 03:06 9,6 C 68 % 1010,8 hPa 0,0 l/m 14,8 km/h (3 Bft) NO 46 0 min 0,000 mm 0,0 UV-I 0 W/m 4,0 C 4,7 C 19,3 km/h (3 Bft) 100,00 %
01.05.2016 03:07 9,6 C 68 % 1010,8 hPa 0,0 l/m 12,9 km/h (3 Bft) NO 46 0 min 0,000 mm 0,0 UV-I 0 W/m 4,0 C 5,6 C 17,7 km/h (3 Bft) 100,00 %
01.05.2016 03:08 9,6 C 68 % 1010,8 hPa 0,0 l/m 15,6 km/h (3 Bft) O-NO 65 0 min 0,000 mm 0,0 UV-I 0 W/m 4,0 C 4,4 C 19,3 km/h (3 Bft) 100,00 %
01.05.2016 03:09 9,6 C 68 % 1010,8 hPa 0,0 l/m 12,9 km/h (3 Bft) NO 40 0 min 0,000 mm 0,0 UV-I 0 W/m 4,0 C 5,6 C 16,1 km/h (3 Bft) 100,00 %
01.05.2016 03:10 9,6 C 68 % 1010,8 hPa 0,0 l/m 12,1 km/h (2 Bft) NO 36 0 min 0,000 mm 0,0 UV-I 0 W/m 4,0 C 6,0 C 14,5 km/h (3 Bft) 100,00 %
01.05.2016 03:11 9,6 C 68 % 1010,7 hPa 0,0 l/m 10,0 km/h (2 Bft) NO 43 0 min 0,000 mm 0,0 UV-I 0 W/m 4,0 C 7,2 C 16,1 km/h (3 Bft) 100,00 %
01.05.2016 03:12 9,6 C 68 % 1010,8 hPa 0,0 l/m 9,1 km/h (2 Bft) NO 51 0 min 0,000 mm 0,0 UV-I 0 W/m 4,0 C 7,7 C 12,9 km/h (3 Bft) 100,00 %
01.05.2016 03:13 9,6 C 68 % 1010,7 hPa 0,0 l/m 11,9 km/h (2 Bft) NO 51 0 min 0,000 mm 0,0 UV-I 0 W/m 4,0 C 6,1 C 17,7 km/h (3 Bft) 100,00 %
01.05.2016 03:14 9,6 C 68 % 1010,7 hPa 0,0 l/m 12,8 km/h (3 Bft) NO 53 0 min 0,000 mm 0,0 UV-I 0 W/m 4,0 C 5,7 C 16,1 km/h (3 Bft) 100,00 %
01.05.2016 03:15 9,6 C 68 % 1010,7 hPa 0,0 l/m 13,0 km/h (3 Bft) O-NO 65 0 min 0,000 mm 0,0 UV-I 0 W/m 4,0 C 5,6 C 17,7 km/h (3 Bft) 100,00 %
01.05.2016 03:16 9,6 C 68 % 1010,7 hPa 0,0 l/m 7,9 km/h (2 Bft) NO 51 0 min 0,000 mm 0,0 UV-I 0 W/m 4,0 C 8,5 C 14,5 km/h (3 Bft) 100,00 %
01.05.2016 03:17 9,6 C 68 % 1010,7 hPa 0,0 l/m 9,7 km/h (2 Bft) NO 43 0 min 0,000 mm 0,0 UV-I 0 W/m 4,0 C 7,3 C 12,9 km/h (3 Bft) 100,00 %
01.05.2016 03:18 9,6 C 68 % 1010,7 hPa 0,0 l/m 10,6 km/h (2 Bft) NO 42 0 min 0,000 mm 0,0 UV-I 0 W/m 4,0 C 6,8 C 16,1 km/h (3 Bft) 100,00 %
01.05.2016 03:19 9,6 C 68 % 1010,7 hPa 0,0 l/m 8,6 km/h (2 Bft) O-NO 63 0 min 0,000 mm 0,0 UV-I 0 W/m 4,0 C 8,0 C 12,9 km/h (3 Bft) 100,00 %
01.05.2016 03:20 9,6 C 68 % 1010,7 hPa 0,0 l/m 13,3 km/h (3 Bft) O-NO 65 0 min 0,000 mm 0,0 UV-I 0 W/m 4,0 C 5,4 C 19,3 km/h (3 Bft) 95,83 %
01.05.2016 03:21 9,6 C 68 % 1010,7 hPa 0,0 l/m 13,3 km/h (3 Bft) O-NO 62 0 min 0,000 mm 0,0 UV-I 0 W/m 4,0 C 5,4 C 20,9 km/h (4 Bft) 100,00 %
01.05.2016 03:22 9,5 C 68 % 1010,6 hPa 0,0 l/m 14,2 km/h (3 Bft) NO 44 0 min 0,000 mm 0,0 UV-I 0 W/m 3,9 C 4,9 C 19,3 km/h (3 Bft) 100,00 %
01.05.2016 03:23 9,5 C 68 % 1010,6 hPa 0,0 l/m 12,4 km/h (3 Bft) NO 55 0 min 0,000 mm 0,0 UV-I 0 W/m 3,9 C 5,7 C 17,7 km/h (3 Bft) 100,00 %
01.05.2016 03:24 9,6 C 68 % 1010,6 hPa 0,0 l/m 14,8 km/h (3 Bft) NO 56 0 min 0,000 mm 0,0 UV-I 0 W/m 4,0 C 4,7 C 19,3 km/h (3 Bft) 100,00 %
01.05.2016 03:25 9,5 C 68 % 1010,6 hPa 0,0 l/m 13,7 km/h (3 Bft) O-NO 62 0 min 0,000 mm 0,0 UV-I 0 W/m 3,9 C 5,1 C 17,7 km/h (3 Bft) 96,15 %
01.05.2016 03:26 9,5 C 68 % 1010,6 hPa 0,0 l/m 14,2 km/h (3 Bft) NO 51 0 min 0,000 mm 0,0 UV-I 0 W/m 3,9 C 4,9 C 22,5 km/h (4 Bft) 100,00 %
01.05.2016 03:27 9,6 C 68 % 1010,5 hPa 0,0 l/m 13,9 km/h (3 Bft) NO 46 0 min 0,000 mm 0,0 UV-I 0 W/m 4,0 C 5,1 C 17,7 km/h (3 Bft) 95,65 %
01.05.2016 03:28 9,5 C 69 % 1010,6 hPa 0,0 l/m 15,5 km/h (3 Bft) NO 43 0 min 0,000 mm 0,0 UV-I 0 W/m 4,1 C 4,3 C 20,9 km/h (4 Bft) 100,00 %
01.05.2016 03:29 9,5 C 68 % 1010,6 hPa 0,0 l/m 14,6 km/h (3 Bft) NO 49 0 min 0,000 mm 0,0 UV-I 0 W/m 3,9 C 4,7 C 19,3 km/h (3 Bft) 96,30 %
01.05.2016 03:30 9,6 C 68 % 1010,6 hPa 0,0 l/m 12,3 km/h (3 Bft) NO 34 0 min 0,000 mm 0,0 UV-I 0 W/m 4,0 C 5,9 C 17,7 km/h (3 Bft) 100,00 %
01.05.2016 03:31 9,6 C 68 % 1010,6 hPa 0,0 l/m 16,0 km/h (3 Bft) O-NO 62 0 min 0,000 mm 0,0 UV-I 0 W/m 4,0 C 4,2 C 20,9 km/h (4 Bft) 95,83 %
01.05.2016 03:32 9,6 C 68 % 1010,6 hPa 0,0 l/m 13,7 km/h (3 Bft) O-NO 59 0 min 0,000 mm 0,0 UV-I 0 W/m 4,0 C 5,2 C 20,9 km/h (4 Bft) 100,00 %
01.05.2016 03:33 9,6 C 68 % 1010,6 hPa 0,0 l/m 14,5 km/h (3 Bft) O 88 0 min 0,000 mm 0,0 UV-I 0 W/m 4,0 C 4,9 C 19,3 km/h (3 Bft) 95,83 %
01.05.2016 03:34 9,6 C 68 % 1010,6 hPa 0,0 l/m 12,5 km/h (3 Bft) O-NO 65 0 min 0,000 mm 0,0 UV-I 0 W/m 4,0 C 5,8 C 17,7 km/h (3 Bft) 100,00 %
01.05.2016 03:35 9,6 C 68 % 1010,6 hPa 0,0 l/m 15,4 km/h (3 Bft) NO 54 0 min 0,000 mm 0,0 UV-I 0 W/m 4,0 C 4,5 C 19,3 km/h (3 Bft) 96,30 %
01.05.2016 03:36 9,6 C 68 % 1010,6 hPa 0,0 l/m 17,0 km/h (3 Bft) O-NO 65 0 min 0,000 mm 0,0 UV-I 0 W/m 4,0 C 3,8 C 20,9 km/h (4 Bft) 96,15 %
01.05.2016 03:37 9,6 C 68 % 1010,6 hPa 0,0 l/m 14,6 km/h (3 Bft) NO 49 0 min 0,000 mm 0,0 UV-I 0 W/m 4,0 C 4,8 C 19,3 km/h (3 Bft) 100,00 %
01.05.2016 03:38 9,6 C 68 % 1010,6 hPa 0,0 l/m 16,2 km/h (3 Bft) NO 53 0 min 0,000 mm 0,0 UV-I 0 W/m 4,0 C 4,2 C 24,1 km/h (4 Bft) 96,15 %
01.05.2016 03:39 9,6 C 68 % 1010,6 hPa 0,0 l/m 17,9 km/h (3 Bft) O-NO 63 0 min 0,000 mm 0,0 UV-I 0 W/m 4,0 C 3,5 C 22,5 km/h (4 Bft) 100,00 %
01.05.2016 03:40 9,6 C 68 % 1010,6 hPa 0,0 l/m 13,4 km/h (3 Bft) NO 53 0 min 0,000 mm 0,0 UV-I 0 W/m 4,0 C 5,4 C 16,1 km/h (3 Bft) 90,91 %
01.05.2016 03:41 9,6 C 68 % 1010,6 hPa 0,0 l/m 11,3 km/h (2 Bft) NO 36 0 min 0,000 mm 0,0 UV-I 0 W/m 4,0 C 6,4 C 16,1 km/h (3 Bft) 97,22 %
01.05.2016 03:42 9,6 C 68 % 1010,6 hPa 0,0 l/m 15,4 km/h (3 Bft) O-NO 61 0 min 0,000 mm 0,0 UV-I 0 W/m 4,0 C 4,5 C 20,9 km/h (4 Bft) 100,00 %
01.05.2016 03:43 9,6 C 68 % 1010,6 hPa 0,0 l/m 13,7 km/h (3 Bft) NO 53 0 min 0,000 mm 0,0 UV-I 0 W/m 4,0 C 5,2 C 19,3 km/h (3 Bft) 100,00 %
01.05.2016 03:44 9,6 C 68 % 1010,6 hPa 0,0 l/m 12,2 km/h (2 Bft) NO 51 0 min 0,000 mm 0,0 UV-I 0 W/m 4,0 C 6,0 C 17,7 km/h (3 Bft) 91,30 %
01.05.2016 03:45 9,7 C 68 % 1010,6 hPa 0,0 l/m 13,6 km/h (3 Bft) NO 56 0 min 0,000 mm 0,0 UV-I 0 W/m 4,1 C 5,4 C 19,3 km/h (3 Bft) 96,30 %
01.05.2016 03:46 9,7 C 68 % 1010,6 hPa 0,0 l/m 14,9 km/h (3 Bft) NO 42 0 min 0,000 mm 0,0 UV-I 0 W/m 4,1 C 4,8 C 20,9 km/h (4 Bft) 100,00 %
01.05.2016 03:47 9,6 C 68 % 1010,6 hPa 0,0 l/m 17,3 km/h (3 Bft) O-NO 61 0 min 0,000 mm 0,0 UV-I 0 W/m 4,0 C 3,7 C 20,9 km/h (4 Bft) 95,83 %
01.05.2016 03:48 9,7 C 68 % 1010,6 hPa 0,0 l/m 15,6 km/h (3 Bft) O-NO 64 0 min 0,000 mm 0,0 UV-I 0 W/m 4,1 C 4,5 C 19,3 km/h (3 Bft) 100,00 %
01.05.2016 03:49 9,6 C 67 % 1010,6 hPa 0,0 l/m 15,7 km/h (3 Bft) O-NO 68 0 min 0,000 mm 0,0 UV-I 0 W/m 3,8 C 4,4 C 22,5 km/h (4 Bft) 91,67 %
01.05.2016 03:50 9,7 C 67 % 1010,6 hPa 0,0 l/m 15,4 km/h (3 Bft) O-NO 65 0 min 0,000 mm 0,0 UV-I 0 W/m 3,9 C 4,6 C 19,3 km/h (3 Bft) 100,00 %
01.05.2016 03:51 9,7 C 67 % 1010,6 hPa 0,0 l/m 15,7 km/h (3 Bft) O-NO 64 0 min 0,000 mm 0,0 UV-I 0 W/m 3,9 C 4,5 C 22,5 km/h (4 Bft) 95,83 %
01.05.2016 03:52 9,7 C 67 % 1010,6 hPa 0,0 l/m 13,4 km/h (3 Bft) O-NO 63 0 min 0,000 mm 0,0 UV-I 0 W/m 3,9 C 5,5 C 17,7 km/h (3 Bft) 96,15 %
01.05.2016 03:53 9,7 C 68 % 1010,6 hPa 0,0 l/m 13,3 km/h (3 Bft) O-NO 61 0 min 0,000 mm 0,0 UV-I 0 W/m 4,1 C 5,5 C 17,7 km/h (3 Bft) 100,00 %
01.05.2016 03:54 9,7 C 68 % 1010,5 hPa 0,0 l/m 15,0 km/h (3 Bft) O-NO 57 0 min 0,000 mm 0,0 UV-I 0 W/m 4,1 C 4,8 C 19,3 km/h (3 Bft) 95,65 %
01.05.2016 03:55 9,7 C 68 % 1010,6 hPa 0,0 l/m 12,6 km/h (3 Bft) NO 44 0 min 0,000 mm 0,0 UV-I 0 W/m 4,1 C 5,9 C 16,1 km/h (3 Bft) 100,00 %
01.05.2016 03:56 9,7 C 67 % 1010,5 hPa 0,0 l/m 15,2 km/h (3 Bft) O-NO 59 0 min 0,000 mm 0,0 UV-I 0 W/m 3,9 C 4,7 C 25,7 km/h (4 Bft) 95,83 %
01.05.2016 03:57 9,7 C 67 % 1010,5 hPa 0,0 l/m 17,1 km/h (3 Bft) O-NO 61 0 min 0,000 mm 0,0 UV-I 0 W/m 3,9 C 3,9 C 22,5 km/h (4 Bft) 95,65 %
01.05.2016 03:58 9,7 C 67 % 1010,6 hPa 0,0 l/m 11,6 km/h (2 Bft) NO 53 0 min 0,000 mm 0,0 UV-I 0 W/m 3,9 C 6,4 C 16,1 km/h (3 Bft) 100,00 %
01.05.2016 03:59 9,7 C 67 % 1010,5 hPa 0,0 l/m 15,2 km/h (3 Bft) NO 44 0 min 0,000 mm 0,0 UV-I 0 W/m 3,9 C 4,7 C 19,3 km/h (3 Bft) 100,00 %
01.05.2016 04:00 9,7 C 67 % 1010,5 hPa 0,0 l/m 18,4 km/h (3 Bft) NO 54 0 min 0,000 mm 0,0 UV-I 0 W/m 3,9 C 3,4 C 25,7 km/h (4 Bft) 100,00 %
01.05.2016 04:01 9,7 C 67 % 1010,5 hPa 0,0 l/m 16,4 km/h (3 Bft) O-NO 62 0 min 0,051 mm 0,0 UV-I 0 W/m 3,9 C 4,2 C 19,3 km/h (3 Bft) 100,00 %
01.05.2016 04:02 9,7 C 67 % 1010,5 hPa 0,0 l/m 16,8 km/h (3 Bft) O-NO 63 0 min 0,000 mm 0,0 UV-I 0 W/m 3,9 C 4,0 C 20,9 km/h (4 Bft) 95,83 %
01.05.2016 04:03 9,7 C 67 % 1010,5 hPa 0,0 l/m 15,3 km/h (3 Bft) O-NO 61 0 min 0,000 mm 0,0 UV-I 0 W/m 3,9 C 4,6 C 20,9 km/h (4 Bft) 100,00 %
01.05.2016 04:04 9,7 C 67 % 1010,5 hPa 0,0 l/m 14,7 km/h (3 Bft) O-NO 65 0 min 0,000 mm 0,0 UV-I 0 W/m 3,9 C 4,9 C 20,9 km/h (4 Bft) 100,00 %
01.05.2016 04:05 9,8 C 67 % 1010,5 hPa 0,0 l/m 15,3 km/h (3 Bft) O-NO 57 0 min 0,000 mm 0,0 UV-I 0 W/m 4,0 C 4,8 C 19,3 km/h (3 Bft) 100,00 %
01.05.2016 04:06 9,8 C 67 % 1010,4 hPa 0,0 l/m 24,6 km/h (4 Bft) O-NO 70 0 min 0,000 mm 0,0 UV-I 0 W/m 4,0 C 1,7 C 30,6 km/h (5 Bft) 100,00 %
01.05.2016 04:07 9,8 C 67 % 1010,4 hPa 0,0 l/m 19,8 km/h (3 Bft) O-NO 67 0 min 0,000 mm 0,0 UV-I 0 W/m 4,0 C 3,1 C 25,7 km/h (4 Bft) 95,65 %
01.05.2016 04:08 9,8 C 67 % 1010,4 hPa 0,0 l/m 17,9 km/h (3 Bft) O-NO 62 0 min 0,000 mm 0,0 UV-I 0 W/m 4,0 C 3,8 C 24,1 km/h (4 Bft) 100,00 %
01.05.2016 04:09 9,8 C 67 % 1010,4 hPa 0,0 l/m 18,3 km/h (3 Bft) O-NO 64 0 min 0,000 mm 0,0 UV-I 0 W/m 4,0 C 3,6 C 25,7 km/h (4 Bft) 100,00 %
01.05.2016 04:10 9,8 C 67 % 1010,4 hPa 0,0 l/m 18,3 km/h (3 Bft) NO 53 0 min 0,000 mm 0,0 UV-I 0 W/m 4,0 C 3,6 C 25,7 km/h (4 Bft) 100,00 %
01.05.2016 04:11 9,8 C 67 % 1010,5 hPa 0,0 l/m 19,6 km/h (3 Bft) O-NO 67 0 min 0,000 mm 0,0 UV-I 0 W/m 4,0 C 3,2 C 25,7 km/h (4 Bft) 100,00 %
01.05.2016 04:12 9,8 C 67 % 1010,5 hPa 0,0 l/m 18,9 km/h (3 Bft) O-NO 60 0 min 0,000 mm 0,0 UV-I 0 W/m 4,0 C 3,4 C 25,7 km/h (4 Bft) 100,00 %
01.05.2016 04:13 9,8 C 67 % 1010,5 hPa 0,0 l/m 18,0 km/h (3 Bft) O-NO 68 0 min 0,000 mm 0,0 UV-I 0 W/m 4,0 C 3,7 C 25,7 km/h (4 Bft) 100,00 %
01.05.2016 04:14 9,8 C 67 % 1010,5 hPa 0,0 l/m 16,7 km/h (3 Bft) O-NO 73 0 min 0,000 mm 0,0 UV-I 0 W/m 4,0 C 4,2 C 24,1 km/h (4 Bft) 95,65 %
01.05.2016 04:15 9,8 C 67 % 1010,5 hPa 0,0 l/m 14,3 km/h (3 Bft) O 93 0 min 0,000 mm 0,0 UV-I 0 W/m 4,0 C 5,2 C 17,7 km/h (3 Bft) 100,00 %
01.05.2016 04:16 9,8 C 67 % 1010,5 hPa 0,0 l/m 13,4 km/h (3 Bft) O-NO 63 0 min 0,000 mm 0,0 UV-I 0 W/m 4,0 C 5,6 C 19,3 km/h (3 Bft) 100,00 %
01.05.2016 04:17 9,8 C 67 % 1010,5 hPa 0,0 l/m 15,2 km/h (3 Bft) O-NO 73 0 min 0,000 mm 0,0 UV-I 0 W/m 4,0 C 4,8 C 17,7 km/h (3 Bft) 100,00 %
01.05.2016 04:18 9,8 C 67 % 1010,5 hPa 0,0 l/m 11,3 km/h (2 Bft) O-NO 58 0 min 0,000 mm 0,0 UV-I 0 W/m 4,0 C 6,6 C 19,3 km/h (3 Bft) 100,00 %
01.05.2016 04:19 9,8 C 67 % 1010,5 hPa 0,0 l/m 16,0 km/h (3 Bft) NO 49 0 min 0,000 mm 0,0 UV-I 0 W/m 4,0 C 4,5 C 24,1 km/h (4 Bft) 100,00 %
01.05.2016 04:20 9,8 C 67 % 1010,5 hPa 0,0 l/m 15,3 km/h (3 Bft) O-NO 63 0 min 0,000 mm 0,0 UV-I 0 W/m 4,0 C 4,8 C 19,3 km/h (3 Bft) 95,65 %
01.05.2016 04:21 9,8 C 68 % 1010,5 hPa 0,0 l/m 13,5 km/h (3 Bft) NO 53 0 min 0,000 mm 0,0 UV-I 0 W/m 4,2 C 5,6 C 17,7 km/h (3 Bft) 100,00 %
01.05.2016 04:22 9,8 C 68 % 1010,5 hPa 0,0 l/m 18,4 km/h (3 Bft) O-NO 59 0 min 0,000 mm 0,0 UV-I 0 W/m 4,2 C 3,6 C 22,5 km/h (4 Bft) 100,00 %
01.05.2016 04:23 9,8 C 67 % 1010,5 hPa 0,0 l/m 16,7 km/h (3 Bft) O-NO 57 0 min 0,000 mm 0,0 UV-I 0 W/m 4,0 C 4,2 C 20,9 km/h (4 Bft) 100,00 %
01.05.2016 04:24 9,8 C 67 % 1010,5 hPa 0,0 l/m 16,8 km/h (3 Bft) NO 45 0 min 0,000 mm 0,0 UV-I 0 W/m 4,0 C 4,2 C 20,9 km/h (4 Bft) 100,00 %
01.05.2016 04:25 9,8 C 68 % 1010,5 hPa 0,0 l/m 15,3 km/h (3 Bft) NO 50 0 min 0,000 mm 0,0 UV-I 0 W/m 4,2 C 4,8 C 19,3 km/h (3 Bft) 100,00 %
01.05.2016 04:26 9,8 C 68 % 1010,5 hPa 0,0 l/m 13,7 km/h (3 Bft) O-NO 65 0 min 0,000 mm 0,0 UV-I 0 W/m 4,2 C 5,5 C 19,3 km/h (3 Bft) 95,65 %
01.05.2016 04:27 9,8 C 68 % 1010,5 hPa 0,0 l/m 14,8 km/h (3 Bft) NO 42 0 min 0,000 mm 0,0 UV-I 0 W/m 4,2 C 5,0 C 19,3 km/h (3 Bft) 95,83 %
01.05.2016 04:28 9,8 C 68 % 1010,5 hPa 0,0 l/m 14,1 km/h (3 Bft) NO 56 0 min 0,000 mm 0,0 UV-I 0 W/m 4,2 C 5,3 C 17,7 km/h (3 Bft) 95,65 %
01.05.2016 04:29 9,7 C 68 % 1010,5 hPa 0,0 l/m 11,1 km/h (2 Bft) O-NO 57 0 min 0,000 mm 0,0 UV-I 0 W/m 4,1 C 6,6 C 16,1 km/h (3 Bft) 100,00 %
01.05.2016 04:30 9,7 C 68 % 1010,5 hPa 0,0 l/m 16,8 km/h (3 Bft) NO 53 0 min 0,000 mm 0,0 UV-I 0 W/m 4,1 C 4,0 C 20,9 km/h (4 Bft) 100,00 %
01.05.2016 04:31 9,7 C 68 % 1010,5 hPa 0,0 l/m 13,6 km/h (3 Bft) NO 55 0 min 0,000 mm 0,0 UV-I 0 W/m 4,1 C 5,4 C 17,7 km/h (3 Bft) 100,00 %
01.05.2016 04:32 9,7 C 68 % 1010,4 hPa 0,0 l/m 14,0 km/h (3 Bft) O-NO 61 0 min 0,000 mm 0,0 UV-I 0 W/m 4,1 C 5,2 C 17,7 km/h (3 Bft) 100,00 %
01.05.2016 04:33 9,7 C 68 % 1010,4 hPa 0,0 l/m 13,9 km/h (3 Bft) O-NO 61 0 min 0,000 mm 0,0 UV-I 0 W/m 4,1 C 5,3 C 19,3 km/h (3 Bft) 95,83 %
01.05.2016 04:34 9,7 C 68 % 1010,5 hPa 0,0 l/m 17,4 km/h (3 Bft) O-NO 63 0 min 0,000 mm 0,0 UV-I 0 W/m 4,1 C 3,8 C 22,5 km/h (4 Bft) 100,00 %
01.05.2016 04:35 9,7 C 68 % 1010,5 hPa 0,0 l/m 14,8 km/h (3 Bft) O-NO 57 0 min 0,000 mm 0,0 UV-I 0 W/m 4,1 C 4,9 C 17,7 km/h (3 Bft) 95,65 %
01.05.2016 04:36 9,7 C 68 % 1010,5 hPa 0,0 l/m 13,2 km/h (3 Bft) O-NO 69 0 min 0,000 mm 0,0 UV-I 0 W/m 4,1 C 5,6 C 19,3 km/h (3 Bft) 95,83 %
01.05.2016 04:37 9,7 C 68 % 1010,5 hPa 0,0 l/m 14,0 km/h (3 Bft) NO 35 0 min 0,000 mm 0,0 UV-I 0 W/m 4,1 C 5,2 C 17,7 km/h (3 Bft) 100,00 %
01.05.2016 04:38 9,7 C 68 % 1010,5 hPa 0,0 l/m 16,2 km/h (3 Bft) O-NO 63 0 min 0,000 mm 0,0 UV-I 0 W/m 4,1 C 4,3 C 20,9 km/h (4 Bft) 100,00 %
01.05.2016 04:39 9,7 C 68 % 1010,4 hPa 0,0 l/m 17,8 km/h (3 Bft) O-NO 57 0 min 0,000 mm 0,0 UV-I 0 W/m 4,1 C 3,7 C 22,5 km/h (4 Bft) 100,00 %
01.05.2016 04:40 9,7 C 68 % 1010,5 hPa 0,0 l/m 14,3 km/h (3 Bft) O-NO 69 0 min 0,000 mm 0,0 UV-I 0 W/m 4,1 C 5,1 C 19,3 km/h (3 Bft) 100,00 %
01.05.2016 04:41 9,7 C 68 % 1010,4 hPa 0,0 l/m 14,9 km/h (3 Bft) O-NO 59 0 min 0,000 mm 0,0 UV-I 0 W/m 4,1 C 4,8 C 22,5 km/h (4 Bft) 100,00 %
01.05.2016 04:42 9,7 C 68 % 1010,5 hPa 0,0 l/m 14,4 km/h (3 Bft) NO 55 0 min 0,000 mm 0,0 UV-I 0 W/m 4,1 C 5,0 C 17,7 km/h (3 Bft) 95,83 %
01.05.2016 04:43 9,7 C 67 % 1010,5 hPa 0,0 l/m 15,4 km/h (3 Bft) O-NO 67 0 min 0,000 mm 0,0 UV-I 0 W/m 3,9 C 4,6 C 19,3 km/h (3 Bft) 100,00 %
01.05.2016 04:44 9,7 C 68 % 1010,5 hPa 0,0 l/m 19,0 km/h (3 Bft) NO 49 0 min 0,000 mm 0,0 UV-I 0 W/m 4,1 C 3,2 C 25,7 km/h (4 Bft) 95,83 %
01.05.2016 04:45 9,7 C 67 % 1010,5 hPa 0,0 l/m 21,9 km/h (4 Bft) O-NO 57 0 min 0,000 mm 0,0 UV-I 0 W/m 3,9 C 2,3 C 30,6 km/h (5 Bft) 100,00 %
01.05.2016 04:46 9,7 C 67 % 1010,4 hPa 0,0 l/m 24,1 km/h (4 Bft) O-NO 65 0 min 0,000 mm 0,0 UV-I 0 W/m 3,9 C 1,7 C 30,6 km/h (5 Bft) 100,00 %
01.05.2016 04:47 9,7 C 67 % 1010,4 hPa 0,0 l/m 17,6 km/h (3 Bft) O 79 0 min 0,000 mm 0,0 UV-I 0 W/m 3,9 C 3,7 C 25,7 km/h (4 Bft) 100,00 %
01.05.2016 04:48 9,7 C 67 % 1010,4 hPa 0,0 l/m 17,2 km/h (3 Bft) O-NO 63 0 min 0,000 mm 0,0 UV-I 0 W/m 3,9 C 3,9 C 22,5 km/h (4 Bft) 95,83 %
01.05.2016 04:49 9,7 C 67 % 1010,4 hPa 0,0 l/m 18,2 km/h (3 Bft) NO 48 0 min 0,000 mm 0,0 UV-I 0 W/m 3,9 C 3,5 C 24,1 km/h (4 Bft) 100,00 %
01.05.2016 04:50 9,8 C 67 % 1010,4 hPa 0,0 l/m 16,1 km/h (3 Bft) O-NO 61 0 min 0,000 mm 0,0 UV-I 0 W/m 4,0 C 4,4 C 24,1 km/h (4 Bft) 96,30 %
01.05.2016 04:51 9,7 C 67 % 1010,4 hPa 0,0 l/m 17,0 km/h (3 Bft) O 82 0 min 0,000 mm 0,0 UV-I 0 W/m 3,9 C 4,0 C 22,5 km/h (4 Bft) 100,00 %
01.05.2016 04:52 9,8 C 67 % 1010,4 hPa 0,0 l/m 21,9 km/h (4 Bft) O-NO 72 0 min 0,000 mm 0,0 UV-I 0 W/m 4,0 C 2,4 C 27,4 km/h (4 Bft) 100,00 %
01.05.2016 04:53 9,8 C 67 % 1010,4 hPa 0,0 l/m 17,1 km/h (3 Bft) NO 53 0 min 0,000 mm 0,0 UV-I 0 W/m 4,0 C 4,1 C 20,9 km/h (4 Bft) 100,00 %
01.05.2016 04:54 9,8 C 67 % 1010,4 hPa 0,0 l/m 16,6 km/h (3 Bft) O-NO 67 0 min 0,000 mm 0,0 UV-I 0 W/m 4,0 C 4,2 C 20,9 km/h (4 Bft) 100,00 %
01.05.2016 04:55 9,8 C 67 % 1010,4 hPa 0,0 l/m 17,4 km/h (3 Bft) NO 54 0 min 0,000 mm 0,0 UV-I 0 W/m 4,0 C 3,9 C 22,5 km/h (4 Bft) 100,00 %
01.05.2016 04:56 9,7 C 67 % 1010,4 hPa 0,0 l/m 17,7 km/h (3 Bft) NO 53 0 min 0,000 mm 0,0 UV-I 0 W/m 3,9 C 3,7 C 22,5 km/h (4 Bft) 100,00 %
01.05.2016 04:57 9,7 C 68 % 1010,4 hPa 0,0 l/m 18,6 km/h (3 Bft) O 94 0 min 0,000 mm 0,0 UV-I 0 W/m 4,1 C 3,4 C 25,7 km/h (4 Bft) 100,00 %
01.05.2016 04:58 9,7 C 67 % 1010,4 hPa 0,0 l/m 16,8 km/h (3 Bft) O-NO 57 0 min 0,000 mm 0,0 UV-I 0 W/m 3,9 C 4,0 C 22,5 km/h (4 Bft) 95,65 %
01.05.2016 04:59 9,7 C 67 % 1010,3 hPa 0,0 l/m 18,7 km/h (3 Bft) O-NO 74 0 min 0,000 mm 0,0 UV-I 0 W/m 3,9 C 3,3 C 25,7 km/h (4 Bft) 100,00 %
01.05.2016 05:00 9,7 C 67 % 1010,3 hPa 0,0 l/m 19,2 km/h (3 Bft) O-NO 67 0 min 0,051 mm 0,0 UV-I 0 W/m 3,9 C 3,2 C 24,1 km/h (4 Bft) 100,00 %
01.05.2016 05:01 9,7 C 67 % 1010,3 hPa 0,0 l/m 18,8 km/h (3 Bft) O-NO 71 0 min 0,000 mm 0,0 UV-I 0 W/m 3,9 C 3,3 C 24,1 km/h (4 Bft) 100,00 %
01.05.2016 05:02 9,7 C 67 % 1010,3 hPa 0,0 l/m 19,2 km/h (3 Bft) O 83 0 min 0,000 mm 0,0 UV-I 0 W/m 3,9 C 3,2 C 25,7 km/h (4 Bft) 100,00 %
01.05.2016 05:03 9,8 C 67 % 1010,3 hPa 0,0 l/m 19,4 km/h (3 Bft) NO 52 0 min 0,000 mm 0,0 UV-I 0 W/m 4,0 C 3,2 C 24,1 km/h (4 Bft) 100,00 %
01.05.2016 05:04 9,7 C 67 % 1010,3 hPa 0,0 l/m 20,0 km/h (4 Bft) NO 55 0 min 0,000 mm 0,0 UV-I 0 W/m 3,9 C 2,9 C 27,4 km/h (4 Bft) 95,65 %
01.05.2016 05:05 9,8 C 67 % 1010,3 hPa 0,0 l/m 20,2 km/h (4 Bft) O-NO 59 0 min 0,000 mm 0,0 UV-I 0 W/m 4,0 C 3,0 C 25,7 km/h (4 Bft) 100,00 %
01.05.2016 05:06 9,8 C 67 % 1010,3 hPa 0,0 l/m 16,1 km/h (3 Bft) O-NO 62 0 min 0,000 mm 0,0 UV-I 0 W/m 4,0 C 4,4 C 20,9 km/h (4 Bft) 100,00 %
01.05.2016 05:07 9,8 C 67 % 1010,3 hPa 0,0 l/m 21,9 km/h (4 Bft) O-NO 65 0 min 0,000 mm 0,0 UV-I 0 W/m 4,0 C 2,4 C 30,6 km/h (5 Bft) 100,00 %
01.05.2016 05:08 9,8 C 67 % 1010,3 hPa 0,0 l/m 20,4 km/h (4 Bft) NO 44 0 min 0,000 mm 0,0 UV-I 0 W/m 4,0 C 2,9 C 25,7 km/h (4 Bft) 100,00 %
01.05.2016 05:09 9,8 C 67 % 1010,3 hPa 0,0 l/m 21,3 km/h (4 Bft) O-NO 74 0 min 0,000 mm 0,0 UV-I 0 W/m 4,0 C 2,6 C 27,4 km/h (4 Bft) 100,00 %
01.05.2016 05:10 9,8 C 67 % 1010,3 hPa 0,0 l/m 17,8 km/h (3 Bft) O-NO 72 0 min 0,000 mm 0,0 UV-I 0 W/m 4,0 C 3,8 C 25,7 km/h (4 Bft) 100,00 %
01.05.2016 05:11 9,8 C 67 % 1010,3 hPa 0,0 l/m 17,6 km/h (3 Bft) O-NO 62 0 min 0,000 mm 0,0 UV-I 0 W/m 4,0 C 3,9 C 22,5 km/h (4 Bft) 100,00 %
01.05.2016 05:12 9,8 C 67 % 1010,3 hPa 0,0 l/m 17,9 km/h (3 Bft) O-NO 65 0 min 0,000 mm 0,0 UV-I 0 W/m 4,0 C 3,8 C 25,7 km/h (4 Bft) 100,00 %
01.05.2016 05:13 9,8 C 67 % 1010,4 hPa 0,0 l/m 18,3 km/h (3 Bft) O 90 0 min 0,000 mm 0,0 UV-I 0 W/m 4,0 C 3,6 C 32,2 km/h (5 Bft) 100,00 %
01.05.2016 05:14 9,7 C 67 % 1010,4 hPa 0,0 l/m 20,4 km/h (4 Bft) NO 53 0 min 0,000 mm 0,0 UV-I 0 W/m 3,9 C 2,8 C 27,4 km/h (4 Bft) 100,00 %
01.05.2016 05:15 9,8 C 67 % 1010,4 hPa 0,0 l/m 19,1 km/h (3 Bft) O-NO 69 0 min 0,000 mm 0,0 UV-I 0 W/m 4,0 C 3,3 C 25,7 km/h (4 Bft) 100,00 %
01.05.2016 05:16 9,7 C 67 % 1010,3 hPa 0,0 l/m 20,5 km/h (4 Bft) NO 46 0 min 0,000 mm 0,0 UV-I 0 W/m 3,9 C 2,7 C 24,1 km/h (4 Bft) 100,00 %
01.05.2016 05:17 9,7 C 67 % 1010,3 hPa 0,0 l/m 19,5 km/h (3 Bft) O-NO 69 0 min 0,000 mm 0,0 UV-I 0 W/m 3,9 C 3,1 C 27,4 km/h (4 Bft) 100,00 %
01.05.2016 05:18 9,7 C 67 % 1010,3 hPa 0,0 l/m 21,1 km/h (4 Bft) NO 44 0 min 0,000 mm 0,0 UV-I 0 W/m 3,9 C 2,5 C 25,7 km/h (4 Bft) 100,00 %
01.05.2016 05:19 9,7 C 67 % 1010,3 hPa 0,0 l/m 20,4 km/h (4 Bft) O-NO 66 0 min 0,000 mm 0,0 UV-I 0 W/m 3,9 C 2,8 C 33,8 km/h (5 Bft) 100,00 %
01.05.2016 05:20 9,7 C 67 % 1010,3 hPa 0,0 l/m 19,7 km/h (3 Bft) O-NO 63 0 min 0,000 mm 0,0 UV-I 0 W/m 3,9 C 3,0 C 25,7 km/h (4 Bft) 100,00 %
01.05.2016 05:21 9,8 C 67 % 1010,3 hPa 0,0 l/m 21,9 km/h (4 Bft) O-NO 61 0 min 0,000 mm 0,0 UV-I 0 W/m 4,0 C 2,4 C 30,6 km/h (5 Bft) 100,00 %
01.05.2016 05:22 9,8 C 67 % 1010,3 hPa 0,0 l/m 18,2 km/h (3 Bft) O-NO 60 0 min 0,000 mm 0,0 UV-I 0 W/m 4,0 C 3,6 C 25,7 km/h (4 Bft) 91,67 %
01.05.2016 05:23 9,8 C 67 % 1010,3 hPa 0,0 l/m 19,4 km/h (3 Bft) O-NO 71 0 min 0,000 mm 0,0 UV-I 0 W/m 4,0 C 3,2 C 27,4 km/h (4 Bft) 100,00 %
01.05.2016 05:24 9,8 C 68 % 1010,4 hPa 0,0 l/m 17,4 km/h (3 Bft) O 80 0 min 0,000 mm 0,0 UV-I 0 W/m 4,2 C 3,9 C 24,1 km/h (4 Bft) 100,00 %
01.05.2016 05:25 9,8 C 67 % 1010,4 hPa 0,0 l/m 24,1 km/h (4 Bft) O-NO 69 0 min 0,000 mm 0,0 UV-I 0 W/m 4,0 C 1,8 C 33,8 km/h (5 Bft) 100,00 %
01.05.2016 05:26 9,7 C 67 % 1010,4 hPa 0,0 l/m 19,7 km/h (3 Bft) O 83 0 min 0,000 mm 0,0 UV-I 0 W/m 3,9 C 3,0 C 27,4 km/h (4 Bft) 95,83 %
01.05.2016 05:27 9,8 C 68 % 1010,3 hPa 0,0 l/m 20,2 km/h (4 Bft) NO 49 0 min 0,000 mm 0,0 UV-I 0 W/m 4,2 C 3,0 C 24,1 km/h (4 Bft) 95,65 %
01.05.2016 05:28 9,7 C 68 % 1010,3 hPa 0,0 l/m 21,1 km/h (4 Bft) O-NO 59 0 min 0,000 mm 0,0 UV-I 0 W/m 4,1 C 2,5 C 27,4 km/h (4 Bft) 100,00 %
01.05.2016 05:29 9,7 C 68 % 1010,3 hPa 0,0 l/m 16,7 km/h (3 Bft) O 80 0 min 0,000 mm 0,0 UV-I 0 W/m 4,1 C 4,1 C 20,9 km/h (4 Bft) 95,65 %
01.05.2016 05:30 9,7 C 68 % 1010,3 hPa 0,0 l/m 16,3 km/h (3 Bft) NO 53 0 min 0,000 mm 0,0 UV-I 0 W/m 4,1 C 4,2 C 24,1 km/h (4 Bft) 100,00 %
01.05.2016 05:31 9,7 C 68 % 1010,3 hPa 0,0 l/m 18,3 km/h (3 Bft) O-NO 65 0 min 0,000 mm 0,0 UV-I 0 W/m 4,1 C 3,5 C 27,4 km/h (4 Bft) 95,83 %
01.05.2016 05:32 9,7 C 68 % 1010,4 hPa 0,0 l/m 19,8 km/h (3 Bft) O-NO 76 0 min 0,000 mm 0,0 UV-I 0 W/m 4,1 C 3,0 C 30,6 km/h (5 Bft) 100,00 %
01.05.2016 05:33 9,7 C 68 % 1010,4 hPa 0,0 l/m 17,2 km/h (3 Bft) O-NO 74 0 min 0,000 mm 0,0 UV-I 0 W/m 4,1 C 3,9 C 20,9 km/h (4 Bft) 96,30 %
01.05.2016 05:34 9,7 C 68 % 1010,4 hPa 0,0 l/m 14,3 km/h (3 Bft) O-NO 63 0 min 0,000 mm 0,0 UV-I 0 W/m 4,1 C 5,1 C 22,5 km/h (4 Bft) 95,65 %
01.05.2016 05:35 9,7 C 68 % 1010,4 hPa 0,0 l/m 18,1 km/h (3 Bft) NO 36 0 min 0,000 mm 0,0 UV-I 0 W/m 4,1 C 3,6 C 27,4 km/h (4 Bft) 100,00 %
01.05.2016 05:36 9,7 C 68 % 1010,4 hPa 0,0 l/m 20,3 km/h (4 Bft) NO 37 0 min 0,000 mm 0,0 UV-I 0 W/m 4,1 C 2,8 C 27,4 km/h (4 Bft) 95,65 %
01.05.2016 05:37 9,7 C 68 % 1010,4 hPa 0,0 l/m 19,7 km/h (3 Bft) O-NO 78 0 min 0,000 mm 0,0 UV-I 0 W/m 4,1 C 3,0 C 25,7 km/h (4 Bft) 100,00 %
01.05.2016 05:38 9,7 C 68 % 1010,4 hPa 0,0 l/m 17,9 km/h (3 Bft) O-NO 62 0 min 0,000 mm 0,0 UV-I 0 W/m 4,1 C 3,6 C 25,7 km/h (4 Bft) 91,30 %
01.05.2016 05:39 9,7 C 68 % 1010,4 hPa 0,0 l/m 21,7 km/h (4 Bft) NO 49 0 min 0,000 mm 0,0 UV-I 0 W/m 4,1 C 2,4 C 30,6 km/h (5 Bft) 100,00 %
01.05.2016 05:40 9,7 C 68 % 1010,3 hPa 0,0 l/m 14,6 km/h (3 Bft) NO 46 0 min 0,000 mm 0,0 UV-I 0 W/m 4,1 C 4,9 C 20,9 km/h (4 Bft) 91,30 %
01.05.2016 05:41 9,6 C 69 % 1010,3 hPa 0,0 l/m 17,8 km/h (3 Bft) NO 56 0 min 0,000 mm 0,0 UV-I 0 W/m 4,2 C 3,5 C 27,4 km/h (4 Bft) 100,00 %
01.05.2016 05:42 9,6 C 68 % 1010,3 hPa 0,0 l/m 20,4 km/h (4 Bft) O-NO 67 0 min 0,000 mm 0,0 UV-I 0 W/m 4,0 C 2,6 C 27,4 km/h (4 Bft) 95,65 %
01.05.2016 05:43 9,6 C 69 % 1010,3 hPa 0,0 l/m 20,7 km/h (4 Bft) NO 45 0 min 0,000 mm 0,0 UV-I 0 W/m 4,2 C 2,5 C 27,4 km/h (4 Bft) 95,83 %
01.05.2016 05:44 9,6 C 68 % 1010,3 hPa 0,0 l/m 20,9 km/h (4 Bft) NO 42 0 min 0,000 mm 0,0 UV-I 0 W/m 4,0 C 2,5 C 27,4 km/h (4 Bft) 100,00 %
01.05.2016 05:45 9,6 C 68 % 1010,4 hPa 0,0 l/m 23,5 km/h (4 Bft) O-NO 59 0 min 0,000 mm 0,0 UV-I 0 W/m 4,0 C 1,7 C 29,0 km/h (5 Bft) 95,83 %
01.05.2016 05:46 9,6 C 68 % 1010,3 hPa 0,0 l/m 18,6 km/h (3 Bft) O-NO 65 0 min 0,000 mm 0,0 UV-I 0 W/m 4,0 C 3,2 C 22,5 km/h (4 Bft) 95,65 %
01.05.2016 05:47 9,6 C 69 % 1010,3 hPa 0,0 l/m 17,2 km/h (3 Bft) NO 40 0 min 0,000 mm 0,0 UV-I 0 W/m 4,2 C 3,8 C 22,5 km/h (4 Bft) 91,67 %
01.05.2016 05:48 9,6 C 69 % 1010,3 hPa 0,0 l/m 19,6 km/h (3 Bft) O 94 0 min 0,000 mm 0,0 UV-I 0 W/m 4,2 C 2,9 C 25,7 km/h (4 Bft) 100,00 %
01.05.2016 05:49 9,6 C 69 % 1010,3 hPa 0,0 l/m 22,3 km/h (4 Bft) NO 53 0 min 0,000 mm 0,0 UV-I 0 W/m 4,2 C 2,0 C 32,2 km/h (5 Bft) 91,67 %
01.05.2016 05:50 9,6 C 68 % 1010,3 hPa 0,0 l/m 18,7 km/h (3 Bft) O 82 0 min 0,000 mm 0,0 UV-I 1 W/m 4,0 C 3,2 C 24,1 km/h (4 Bft) 100,00 %
01.05.2016 05:51 9,6 C 69 % 1010,3 hPa 0,0 l/m 21,9 km/h (4 Bft) O 81 0 min 0,000 mm 0,0 UV-I 5 W/m 4,2 C 2,2 C 30,6 km/h (5 Bft) 96,15 %
01.05.2016 05:52 9,6 C 68 % 1010,3 hPa 0,0 l/m 17,0 km/h (3 Bft) O-NO 57 0 min 0,000 mm 0,0 UV-I 5 W/m 4,0 C 3,8 C 22,5 km/h (4 Bft) 95,83 %
01.05.2016 05:53 9,6 C 69 % 1010,3 hPa 0,0 l/m 17,8 km/h (3 Bft) O-NO 59 0 min 0,000 mm 0,0 UV-I 5 W/m 4,2 C 3,5 C 24,1 km/h (4 Bft) 86,96 %
01.05.2016 05:54 9,6 C 69 % 1010,3 hPa 0,0 l/m 22,3 km/h (4 Bft) NO 39 0 min 0,000 mm 0,0 UV-I 5 W/m 4,2 C 2,0 C 27,4 km/h (4 Bft) 95,83 %
01.05.2016 05:55 9,6 C 69 % 1010,2 hPa 0,0 l/m 24,4 km/h (4 Bft) O-NO 67 0 min 0,000 mm 0,0 UV-I 5 W/m 4,2 C 1,5 C 35,4 km/h (5 Bft) 100,00 %
01.05.2016 05:56 9,6 C 69 % 1010,3 hPa 0,0 l/m 20,7 km/h (4 Bft) O-NO 61 0 min 0,000 mm 0,0 UV-I 7 W/m 4,2 C 2,5 C 32,2 km/h (5 Bft) 95,83 %
01.05.2016 05:57 9,6 C 69 % 1010,3 hPa 0,0 l/m 22,3 km/h (4 Bft) O-NO 68 0 min 0,000 mm 0,0 UV-I 7 W/m 4,2 C 2,0 C 29,0 km/h (5 Bft) 100,00 %
01.05.2016 05:58 9,6 C 69 % 1010,3 hPa 0,0 l/m 16,8 km/h (3 Bft) O-NO 65 0 min 0,000 mm 0,0 UV-I 7 W/m 4,2 C 3,9 C 20,9 km/h (4 Bft) 95,83 %
01.05.2016 05:59 9,6 C 69 % 1010,3 hPa 0,0 l/m 21,0 km/h (4 Bft) NO 47 0 min 0,000 mm 0,0 UV-I 8 W/m 4,2 C 2,4 C 25,7 km/h (4 Bft) 95,65 %
01.05.2016 06:00 9,6 C 69 % 1010,3 hPa 0,0 l/m 21,1 km/h (4 Bft) NO 47 0 min 0,076 mm 0,0 UV-I 9 W/m 4,2 C 2,4 C 27,4 km/h (4 Bft) 100,00 %
01.05.2016 06:01 9,6 C 69 % 1010,3 hPa 0,0 l/m 23,1 km/h (4 Bft) O-NO 76 0 min 0,000 mm 0,0 UV-I 9 W/m 4,2 C 1,8 C 30,6 km/h (5 Bft) 100,00 %
01.05.2016 06:02 9,6 C 69 % 1010,3 hPa 0,0 l/m 21,9 km/h (4 Bft) O-NO 68 0 min 0,000 mm 0,0 UV-I 11 W/m 4,2 C 2,2 C 27,4 km/h (4 Bft) 100,00 %
01.05.2016 06:03 9,6 C 69 % 1010,3 hPa 0,0 l/m 22,5 km/h (4 Bft) O-NO 57 0 min 0,000 mm 0,0 UV-I 11 W/m 4,2 C 2,0 C 30,6 km/h (5 Bft) 95,65 %
01.05.2016 06:04 9,6 C 69 % 1010,3 hPa 0,0 l/m 20,7 km/h (4 Bft) O-NO 61 0 min 0,000 mm 0,0 UV-I 12 W/m 4,2 C 2,5 C 27,4 km/h (4 Bft) 100,00 %
01.05.2016 06:05 9,6 C 69 % 1010,3 hPa 0,0 l/m 21,6 km/h (4 Bft) O-NO 76 0 min 0,000 mm 0,0 UV-I 12 W/m 4,2 C 2,3 C 30,6 km/h (5 Bft) 95,65 %
01.05.2016 06:06 9,6 C 69 % 1010,3 hPa 0,0 l/m 20,3 km/h (4 Bft) O-NO 71 0 min 0,000 mm 0,0 UV-I 12 W/m 4,2 C 2,7 C 29,0 km/h (5 Bft) 100,00 %
01.05.2016 06:07 9,6 C 69 % 1010,3 hPa 0,0 l/m 21,0 km/h (4 Bft) O-NO 70 0 min 0,000 mm 0,0 UV-I 14 W/m 4,2 C 2,4 C 25,7 km/h (4 Bft) 95,83 %
01.05.2016 06:08 9,6 C 69 % 1010,3 hPa 0,0 l/m 24,5 km/h (4 Bft) O-NO 65 0 min 0,000 mm 0,0 UV-I 15 W/m 4,2 C 1,4 C 30,6 km/h (5 Bft) 100,00 %
01.05.2016 06:09 9,6 C 69 % 1010,2 hPa 0,0 l/m 19,9 km/h (4 Bft) O-NO 67 0 min 0,000 mm 0,0 UV-I 16 W/m 4,2 C 2,8 C 30,6 km/h (5 Bft) 100,00 %
01.05.2016 06:10 9,6 C 69 % 1010,3 hPa 0,0 l/m 21,3 km/h (4 Bft) O-NO 67 0 min 0,000 mm 0,0 UV-I 17 W/m 4,2 C 2,4 C 29,0 km/h (5 Bft) 95,65 %
01.05.2016 06:11 9,6 C 69 % 1010,2 hPa 0,0 l/m 21,1 km/h (4 Bft) O-NO 57 0 min 0,000 mm 0,0 UV-I 18 W/m 4,2 C 2,4 C 25,7 km/h (4 Bft) 100,00 %
01.05.2016 06:12 9,6 C 69 % 1010,3 hPa 0,0 l/m 22,5 km/h (4 Bft) O-NO 59 0 min 0,000 mm 0,0 UV-I 18 W/m 4,2 C 2,0 C 30,6 km/h (5 Bft) 91,30 %
01.05.2016 06:13 9,6 C 69 % 1010,2 hPa 0,0 l/m 25,1 km/h (4 Bft) NO 48 0 min 0,000 mm 0,0 UV-I 19 W/m 4,2 C 1,3 C 33,8 km/h (5 Bft) 100,00 %
01.05.2016 06:14 9,6 C 69 % 1010,2 hPa 0,0 l/m 22,1 km/h (4 Bft) O-NO 61 0 min 0,000 mm 0,0 UV-I 19 W/m 4,2 C 2,1 C 30,6 km/h (5 Bft) 100,00 %
01.05.2016 06:15 9,6 C 69 % 1010,2 hPa 0,0 l/m 23,9 km/h (4 Bft) O 86 0 min 0,000 mm 0,0 UV-I 20 W/m 4,2 C 1,6 C 33,8 km/h (5 Bft) 100,00 %
01.05.2016 06:16 9,6 C 69 % 1010,3 hPa 0,0 l/m 21,9 km/h (4 Bft) O-NO 63 0 min 0,000 mm 0,0 UV-I 21 W/m 4,2 C 2,2 C 27,4 km/h (4 Bft) 100,00 %
01.05.2016 06:17 9,6 C 69 % 1010,3 hPa 0,0 l/m 21,4 km/h (4 Bft) NO 50 0 min 0,000 mm 0,0 UV-I 21 W/m 4,2 C 2,3 C 25,7 km/h (4 Bft) 100,00 %
01.05.2016 06:18 9,6 C 70 % 1010,3 hPa 0,0 l/m 25,0 km/h (4 Bft) O-NO 66 0 min 0,000 mm 0,0 UV-I 23 W/m 4,4 C 1,3 C 37,0 km/h (5 Bft) 100,00 %
01.05.2016 06:19 9,6 C 70 % 1010,3 hPa 0,0 l/m 20,9 km/h (4 Bft) NO 53 0 min 0,000 mm 0,0 UV-I 23 W/m 4,4 C 2,5 C 29,0 km/h (5 Bft) 100,00 %
01.05.2016 06:20 9,6 C 70 % 1010,3 hPa 0,0 l/m 21,5 km/h (4 Bft) NO 53 0 min 0,000 mm 0,0 UV-I 25 W/m 4,4 C 2,3 C 32,2 km/h (5 Bft) 100,00 %
01.05.2016 06:21 9,6 C 70 % 1010,3 hPa 0,0 l/m 23,3 km/h (4 Bft) O-NO 67 0 min 0,000 mm 0,0 UV-I 26 W/m 4,4 C 1,8 C 30,6 km/h (5 Bft) 100,00 %
01.05.2016 06:22 9,6 C 70 % 1010,3 hPa 0,0 l/m 21,5 km/h (4 Bft) NO 40 0 min 0,000 mm 0,0 UV-I 26 W/m 4,4 C 2,3 C 30,6 km/h (5 Bft) 95,65 %
01.05.2016 06:23 9,6 C 70 % 1010,3 hPa 0,0 l/m 23,7 km/h (4 Bft) O-NO 59 0 min 0,000 mm 0,0 UV-I 26 W/m 4,4 C 1,6 C 33,8 km/h (5 Bft) 100,00 %
01.05.2016 06:24 9,6 C 70 % 1010,3 hPa 0,0 l/m 22,9 km/h (4 Bft) O-NO 60 0 min 0,000 mm 0,0 UV-I 28 W/m 4,4 C 1,9 C 29,0 km/h (5 Bft) 100,00 %
01.05.2016 06:25 9,6 C 70 % 1010,4 hPa 0,0 l/m 26,0 km/h (4 Bft) O-NO 67 0 min 0,000 mm 0,0 UV-I 28 W/m 4,4 C 1,0 C 35,4 km/h (5 Bft) 95,83 %
01.05.2016 06:26 9,6 C 70 % 1010,3 hPa 0,0 l/m 20,8 km/h (4 Bft) O-NO 74 0 min 0,000 mm 0,0 UV-I 30 W/m 4,4 C 2,5 C 30,6 km/h (5 Bft) 100,00 %
01.05.2016 06:27 9,6 C 70 % 1010,4 hPa 0,0 l/m 24,5 km/h (4 Bft) O-NO 61 0 min 0,000 mm 0,0 UV-I 30 W/m 4,4 C 1,4 C 33,8 km/h (5 Bft) 100,00 %
01.05.2016 06:28 9,6 C 70 % 1010,3 hPa 0,0 l/m 23,4 km/h (4 Bft) NO 46 0 min 0,000 mm 0,0 UV-I 31 W/m 4,4 C 1,7 C 30,6 km/h (5 Bft) 100,00 %
01.05.2016 06:29 9,6 C 70 % 1010,4 hPa 0,0 l/m 23,2 km/h (4 Bft) NO 55 0 min 0,000 mm 0,0 UV-I 32 W/m 4,4 C 1,8 C 29,0 km/h (5 Bft) 100,00 %
01.05.2016 06:30 9,6 C 70 % 1010,4 hPa 0,0 l/m 22,0 km/h (4 Bft) O-NO 78 0 min 0,000 mm 0,0 UV-I 32 W/m 4,4 C 2,1 C 29,0 km/h (5 Bft) 100,00 %
01.05.2016 06:31 9,6 C 70 % 1010,4 hPa 0,0 l/m 22,2 km/h (4 Bft) NO 56 0 min 0,000 mm 0,0 UV-I 32 W/m 4,4 C 2,1 C 30,6 km/h (5 Bft) 100,00 %
01.05.2016 06:32 9,7 C 69 % 1010,3 hPa 0,0 l/m 20,1 km/h (4 Bft) O-NO 69 0 min 0,000 mm 0,0 UV-I 33 W/m 4,3 C 2,9 C 25,7 km/h (4 Bft) 95,83 %
01.05.2016 06:33 9,7 C 70 % 1010,3 hPa 0,0 l/m 22,3 km/h (4 Bft) NO 48 0 min 0,000 mm 0,0 UV-I 33 W/m 4,5 C 2,2 C 27,4 km/h (4 Bft) 100,00 %
01.05.2016 06:34 9,7 C 70 % 1010,4 hPa 0,0 l/m 24,0 km/h (4 Bft) O-NO 78 0 min 0,000 mm 0,0 UV-I 33 W/m 4,5 C 1,7 C 32,2 km/h (5 Bft) 100,00 %
01.05.2016 06:35 9,7 C 70 % 1010,4 hPa 0,0 l/m 23,7 km/h (4 Bft) O-NO 65 0 min 0,000 mm 0,0 UV-I 33 W/m 4,5 C 1,8 C 29,0 km/h (5 Bft) 100,00 %
01.05.2016 06:36 9,7 C 70 % 1010,4 hPa 0,0 l/m 22,7 km/h (4 Bft) NO 42 0 min 0,000 mm 0,0 UV-I 35 W/m 4,5 C 2,1 C 32,2 km/h (5 Bft) 100,00 %
01.05.2016 06:37 9,7 C 70 % 1010,4 hPa 0,0 l/m 17,6 km/h (3 Bft) O 82 0 min 0,000 mm 0,0 UV-I 36 W/m 4,5 C 3,7 C 25,7 km/h (4 Bft) 100,00 %
01.05.2016 06:38 9,7 C 70 % 1010,3 hPa 0,0 l/m 26,8 km/h (4 Bft) O-NO 61 0 min 0,000 mm 0,0 UV-I 37 W/m 4,5 C 1,0 C 33,8 km/h (5 Bft) 95,83 %
01.05.2016 06:39 9,7 C 70 % 1010,4 hPa 0,0 l/m 23,7 km/h (4 Bft) NO 49 0 min 0,000 mm 0,0 UV-I 38 W/m 4,5 C 1,8 C 33,8 km/h (5 Bft) 95,65 %
01.05.2016 06:40 9,7 C 70 % 1010,4 hPa 0,0 l/m 20,0 km/h (4 Bft) O-NO 71 0 min 0,000 mm 0,0 UV-I 40 W/m 4,5 C 2,9 C 24,1 km/h (4 Bft) 100,00 %
01.05.2016 06:41 9,7 C 70 % 1010,3 hPa 0,0 l/m 26,2 km/h (4 Bft) O-NO 63 0 min 0,000 mm 0,0 UV-I 40 W/m 4,5 C 1,1 C 32,2 km/h (5 Bft) 100,00 %
01.05.2016 06:42 9,7 C 70 % 1010,3 hPa 0,0 l/m 21,5 km/h (4 Bft) NO 52 0 min 0,000 mm 0,0 UV-I 40 W/m 4,5 C 2,4 C 27,4 km/h (4 Bft) 100,00 %
01.05.2016 06:43 9,7 C 70 % 1010,3 hPa 0,0 l/m 22,7 km/h (4 Bft) O-NO 69 0 min 0,000 mm 0,0 UV-I 42 W/m 4,5 C 2,1 C 32,2 km/h (5 Bft) 100,00 %
01.05.2016 06:44 9,7 C 70 % 1010,3 hPa 0,0 l/m 24,7 km/h (4 Bft) O 90 0 min 0,000 mm 0,0 UV-I 43 W/m 4,5 C 1,5 C 32,2 km/h (5 Bft) 100,00 %
01.05.2016 06:45 9,7 C 70 % 1010,3 hPa 0,0 l/m 23,5 km/h (4 Bft) O-NO 77 0 min 0,000 mm 0,0 UV-I 45 W/m 4,5 C 1,8 C 29,0 km/h (5 Bft) 100,00 %
01.05.2016 06:46 9,7 C 70 % 1010,3 hPa 0,0 l/m 17,2 km/h (3 Bft) NO 42 0 min 0,000 mm 0,0 UV-I 46 W/m 4,5 C 3,9 C 20,9 km/h (4 Bft) 100,00 %
01.05.2016 06:47 9,7 C 70 % 1010,3 hPa 0,0 l/m 18,8 km/h (3 Bft) NO 55 0 min 0,000 mm 0,0 UV-I 47 W/m 4,5 C 3,3 C 24,1 km/h (4 Bft) 100,00 %
01.05.2016 06:48 9,7 C 70 % 1010,3 hPa 0,0 l/m 20,6 km/h (4 Bft) NO 47 0 min 0,000 mm 0,0 UV-I 47 W/m 4,5 C 2,7 C 25,7 km/h (4 Bft) 100,00 %
01.05.2016 06:49 9,7 C 70 % 1010,3 hPa 0,0 l/m 21,4 km/h (4 Bft) O-NO 59 0 min 0,000 mm 0,0 UV-I 49 W/m 4,5 C 2,5 C 33,8 km/h (5 Bft) 100,00 %
01.05.2016 06:50 9,7 C 70 % 1010,3 hPa 0,0 l/m 20,5 km/h (4 Bft) O-NO 65 0 min 0,000 mm 0,0 UV-I 50 W/m 4,5 C 2,7 C 29,0 km/h (5 Bft) 100,00 %
01.05.2016 06:51 9,8 C 70 % 1010,4 hPa 0,0 l/m 19,6 km/h (3 Bft) O-NO 72 0 min 0,000 mm 0,0 UV-I 51 W/m 4,6 C 3,2 C 29,0 km/h (5 Bft) 100,00 %
01.05.2016 06:52 9,7 C 70 % 1010,4 hPa 0,0 l/m 20,0 km/h (4 Bft) O-NO 60 0 min 0,000 mm 0,0 UV-I 53 W/m 4,5 C 2,9 C 25,7 km/h (4 Bft) 100,00 %
01.05.2016 06:53 9,7 C 70 % 1010,5 hPa 0,0 l/m 18,6 km/h (3 Bft) O-NO 60 0 min 0,000 mm 0,0 UV-I 54 W/m 4,5 C 3,4 C 22,5 km/h (4 Bft) 100,00 %
01.05.2016 06:54 9,8 C 70 % 1010,5 hPa 0,0 l/m 22,1 km/h (4 Bft) O-NO 65 0 min 0,000 mm 0,0 UV-I 54 W/m 4,6 C 2,4 C 27,4 km/h (4 Bft) 100,00 %
01.05.2016 06:55 9,7 C 70 % 1010,5 hPa 0,0 l/m 19,2 km/h (3 Bft) NO 46 0 min 0,000 mm 0,0 UV-I 56 W/m 4,5 C 3,2 C 27,4 km/h (4 Bft) 100,00 %
01.05.2016 06:56 9,8 C 70 % 1010,5 hPa 0,0 l/m 19,6 km/h (3 Bft) NO 47 0 min 0,000 mm 0,0 UV-I 57 W/m 4,6 C 3,2 C 25,7 km/h (4 Bft) 95,65 %
01.05.2016 06:57 9,8 C 70 % 1010,5 hPa 0,0 l/m 18,4 km/h (3 Bft) NO 49 0 min 0,000 mm 0,0 UV-I 59 W/m 4,6 C 3,6 C 24,1 km/h (4 Bft) 100,00 %
01.05.2016 06:58 9,8 C 70 % 1010,5 hPa 0,0 l/m 23,3 km/h (4 Bft) O 86 0 min 0,000 mm 0,0 UV-I 60 W/m 4,6 C 2,0 C 30,6 km/h (5 Bft) 95,65 %
01.05.2016 06:59 9,8 C 70 % 1010,6 hPa 0,0 l/m 19,6 km/h (3 Bft) O-NO 62 0 min 0,000 mm 0,0 UV-I 62 W/m 4,6 C 3,2 C 24,1 km/h (4 Bft) 100,00 %
01.05.2016 07:00 9,8 C 71 % 1010,6 hPa 0,0 l/m 18,9 km/h (3 Bft) O-NO 68 0 min 0,000 mm 0,0 UV-I 63 W/m 4,8 C 3,4 C 24,1 km/h (4 Bft) 100,00 %
01.05.2016 07:01 9,8 C 71 % 1010,5 hPa 0,0 l/m 18,0 km/h (3 Bft) NO 50 0 min 0,076 mm 0,0 UV-I 66 W/m 4,8 C 3,7 C 27,4 km/h (4 Bft) 100,00 %
01.05.2016 07:02 9,8 C 71 % 1010,5 hPa 0,0 l/m 23,7 km/h (4 Bft) O-NO 69 0 min 0,000 mm 0,0 UV-I 68 W/m 4,8 C 1,9 C 30,6 km/h (5 Bft) 95,65 %
01.05.2016 07:03 9,8 C 71 % 1010,6 hPa 0,0 l/m 15,6 km/h (3 Bft) N-NO 26 0 min 0,000 mm 0,0 UV-I 69 W/m 4,8 C 4,6 C 20,9 km/h (4 Bft) 100,00 %
01.05.2016 07:04 9,8 C 71 % 1010,5 hPa 0,0 l/m 18,5 km/h (3 Bft) O-NO 64 0 min 0,000 mm 0,0 UV-I 70 W/m 4,8 C 3,5 C 27,4 km/h (4 Bft) 100,00 %
01.05.2016 07:05 9,8 C 71 % 1010,5 hPa 0,0 l/m 17,7 km/h (3 Bft) NO 41 0 min 0,000 mm 0,0 UV-I 72 W/m 4,8 C 3,8 C 20,9 km/h (4 Bft) 100,00 %
01.05.2016 07:06 9,8 C 71 % 1010,5 hPa 0,0 l/m 21,3 km/h (4 Bft) N-NO 28 0 min 0,000 mm 0,0 UV-I 74 W/m 4,8 C 2,6 C 25,7 km/h (4 Bft) 100,00 %
01.05.2016 07:07 9,8 C 71 % 1010,6 hPa 0,0 l/m 24,0 km/h (4 Bft) O-NO 64 0 min 0,000 mm 0,0 UV-I 76 W/m 4,8 C 1,8 C 30,6 km/h (5 Bft) 95,83 %
01.05.2016 07:08 9,8 C 71 % 1010,6 hPa 0,0 l/m 24,3 km/h (4 Bft) O-NO 72 0 min 0,000 mm 0,0 UV-I 78 W/m 4,8 C 1,7 C 30,6 km/h (5 Bft) 95,83 %
01.05.2016 07:09 9,8 C 70 % 1010,6 hPa 0,0 l/m 18,2 km/h (3 Bft) NO 40 0 min 0,000 mm 0,0 UV-I 80 W/m 4,6 C 3,6 C 22,5 km/h (4 Bft) 100,00 %
01.05.2016 07:10 9,8 C 71 % 1010,6 hPa 0,0 l/m 15,2 km/h (3 Bft) NO 48 0 min 0,000 mm 0,0 UV-I 83 W/m 4,8 C 4,8 C 20,9 km/h (4 Bft) 100,00 %
01.05.2016 07:11 9,8 C 71 % 1010,6 hPa 0,0 l/m 16,2 km/h (3 Bft) O-NO 59 0 min 0,000 mm 0,0 UV-I 86 W/m 4,8 C 4,4 C 20,9 km/h (4 Bft) 100,00 %
01.05.2016 07:12 9,8 C 72 % 1010,6 hPa 0,0 l/m 22,5 km/h (4 Bft) NO 42 0 min 0,000 mm 0,0 UV-I 89 W/m 5,0 C 2,3 C 32,2 km/h (5 Bft) 100,00 %
01.05.2016 07:13 9,8 C 71 % 1010,6 hPa 0,0 l/m 19,2 km/h (3 Bft) O-NO 60 0 min 0,000 mm 0,0 UV-I 91 W/m 4,8 C 3,3 C 27,4 km/h (4 Bft) 95,65 %
01.05.2016 07:14 9,8 C 71 % 1010,6 hPa 0,0 l/m 16,0 km/h (3 Bft) O-NO 57 0 min 0,000 mm 0,0 UV-I 94 W/m 4,8 C 4,5 C 22,5 km/h (4 Bft) 100,00 %
01.05.2016 07:15 9,8 C 71 % 1010,6 hPa 0,0 l/m 25,4 km/h (4 Bft) O-NO 65 0 min 0,000 mm 0,0 UV-I 97 W/m 4,8 C 1,5 C 33,8 km/h (5 Bft) 95,65 %
01.05.2016 07:16 9,8 C 71 % 1010,6 hPa 0,0 l/m 18,8 km/h (3 Bft) NO 51 0 min 0,000 mm 0,0 UV-I 100 W/m 4,8 C 3,4 C 24,1 km/h (4 Bft) 100,00 %
01.05.2016 07:17 9,8 C 72 % 1010,6 hPa 0,0 l/m 20,1 km/h (4 Bft) O-NO 63 0 min 0,000 mm 0,0 UV-I 104 W/m 5,0 C 3,0 C 25,7 km/h (4 Bft) 100,00 %
01.05.2016 07:18 9,8 C 71 % 1010,6 hPa 0,0 l/m 20,4 km/h (4 Bft) O-NO 61 0 min 0,000 mm 0,0 UV-I 106 W/m 4,8 C 2,9 C 27,4 km/h (4 Bft) 100,00 %
01.05.2016 07:19 9,8 C 71 % 1010,6 hPa 0,0 l/m 18,7 km/h (3 Bft) O-NO 74 0 min 0,000 mm 0,0 UV-I 110 W/m 4,8 C 3,5 C 24,1 km/h (4 Bft) 96,15 %
01.05.2016 07:20 9,9 C 71 % 1010,6 hPa 0,0 l/m 21,8 km/h (4 Bft) O-NO 78 0 min 0,000 mm 0,0 UV-I 113 W/m 4,9 C 2,6 C 32,2 km/h (5 Bft) 95,83 %
01.05.2016 07:21 9,9 C 71 % 1010,6 hPa 0,0 l/m 18,5 km/h (3 Bft) O-NO 62 0 min 0,000 mm 0,0 UV-I 115 W/m 4,9 C 3,7 C 22,5 km/h (4 Bft) 100,00 %
01.05.2016 07:22 9,9 C 71 % 1010,7 hPa 0,0 l/m 19,0 km/h (3 Bft) NO 44 0 min 0,000 mm 0,0 UV-I 119 W/m 4,9 C 3,5 C 24,1 km/h (4 Bft) 100,00 %
01.05.2016 07:23 9,9 C 71 % 1010,6 hPa 0,0 l/m 20,0 km/h (4 Bft) NO 49 0 min 0,000 mm 0,0 UV-I 124 W/m 4,9 C 3,2 C 25,7 km/h (4 Bft) 100,00 %
01.05.2016 07:24 9,9 C 71 % 1010,7 hPa 0,0 l/m 21,8 km/h (4 Bft) NO 34 0 min 0,000 mm 0,0 UV-I 127 W/m 4,9 C 2,6 C 25,7 km/h (4 Bft) 100,00 %
01.05.2016 07:25 10,0 C 71 % 1010,7 hPa 0,0 l/m 15,1 km/h (3 Bft) NO 53 0 min 0,000 mm 0,0 UV-I 130 W/m 5,0 C 5,1 C 22,5 km/h (4 Bft) 91,30 %
01.05.2016 07:26 10,0 C 71 % 1010,7 hPa 0,0 l/m 19,0 km/h (3 Bft) NO 39 0 min 0,000 mm 0,0 UV-I 134 W/m 5,0 C 3,6 C 27,4 km/h (4 Bft) 100,00 %
01.05.2016 07:27 10,0 C 71 % 1010,7 hPa 0,0 l/m 18,5 km/h (3 Bft) O-NO 59 0 min 0,000 mm 0,0 UV-I 138 W/m 5,0 C 3,8 C 25,7 km/h (4 Bft) 95,65 %
01.05.2016 07:28 10,1 C 71 % 1010,8 hPa 0,0 l/m 23,3 km/h (4 Bft) O-NO 58 0 min 0,000 mm 0,0 UV-I 136 W/m 5,1 C 2,4 C 27,4 km/h (4 Bft) 100,00 %
01.05.2016 07:29 10,1 C 71 % 1010,8 hPa 0,0 l/m 21,7 km/h (4 Bft) O-NO 67 0 min 0,000 mm 0,0 UV-I 146 W/m 5,1 C 2,9 C 30,6 km/h (5 Bft) 95,83 %
01.05.2016 07:30 10,1 C 70 % 1010,8 hPa 0,0 l/m 23,5 km/h (4 Bft) O-NO 60 0 min 0,000 mm 0,0 UV-I 149 W/m 4,9 C 2,4 C 30,6 km/h (5 Bft) 100,00 %
01.05.2016 07:31 10,1 C 70 % 1010,8 hPa 0,0 l/m 21,7 km/h (4 Bft) O-NO 70 0 min 0,000 mm 0,0 UV-I 152 W/m 4,9 C 2,9 C 29,0 km/h (5 Bft) 95,83 %
01.05.2016 07:32 10,2 C 70 % 1010,9 hPa 0,0 l/m 23,3 km/h (4 Bft) O-NO 59 0 min 0,000 mm 0,0 UV-I 153 W/m 5,0 C 2,6 C 27,4 km/h (4 Bft) 100,00 %
01.05.2016 07:33 10,2 C 70 % 1010,9 hPa 0,0 l/m 21,1 km/h (4 Bft) O 81 0 min 0,000 mm 0,0 UV-I 150 W/m 5,0 C 3,2 C 30,6 km/h (5 Bft) 95,83 %
01.05.2016 07:34 10,2 C 70 % 1010,9 hPa 0,0 l/m 21,6 km/h (4 Bft) O-NO 78 0 min 0,000 mm 0,0 UV-I 149 W/m 5,0 C 3,0 C 29,0 km/h (5 Bft) 100,00 %
01.05.2016 07:35 10,2 C 70 % 1010,9 hPa 0,0 l/m 23,8 km/h (4 Bft) O-NO 76 0 min 0,000 mm 0,0 UV-I 149 W/m 5,0 C 2,4 C 30,6 km/h (5 Bft) 95,83 %
01.05.2016 07:36 10,3 C 70 % 1010,9 hPa 0,0 l/m 26,7 km/h (4 Bft) O-NO 61 0 min 0,000 mm 0,0 UV-I 148 W/m 5,1 C 1,8 C 33,8 km/h (5 Bft) 100,00 %
01.05.2016 07:37 10,3 C 70 % 1010,9 hPa 0,0 l/m 25,6 km/h (4 Bft) O-NO 73 0 min 0,000 mm 0,0 UV-I 149 W/m 5,1 C 2,1 C 33,8 km/h (5 Bft) 95,83 %
01.05.2016 07:38 10,3 C 70 % 1010,9 hPa 0,0 l/m 25,1 km/h (4 Bft) NO 50 0 min 0,000 mm 0,0 UV-I 149 W/m 5,1 C 2,2 C 33,8 km/h (5 Bft) 91,30 %
01.05.2016 07:39 10,3 C 70 % 1010,9 hPa 0,0 l/m 18,7 km/h (3 Bft) O 84 0 min 0,000 mm 0,0 UV-I 149 W/m 5,1 C 4,1 C 24,1 km/h (4 Bft) 100,00 %
01.05.2016 07:40 10,3 C 70 % 1011,0 hPa 0,0 l/m 19,6 km/h (3 Bft) NO 55 0 min 0,000 mm 0,0 UV-I 148 W/m 5,1 C 3,8 C 25,7 km/h (4 Bft) 92,31 %
01.05.2016 07:41 10,3 C 69 % 1010,9 hPa 0,0 l/m 20,9 km/h (4 Bft) O-NO 70 0 min 0,000 mm 0,0 UV-I 148 W/m 4,9 C 3,4 C 25,7 km/h (4 Bft) 100,00 %
01.05.2016 07:42 10,4 C 70 % 1010,9 hPa 0,0 l/m 20,0 km/h (4 Bft) NO 50 0 min 0,000 mm 0,0 UV-I 146 W/m 5,2 C 3,8 C 29,0 km/h (5 Bft) 95,65 %
01.05.2016 07:43 10,4 C 69 % 1011,0 hPa 0,0 l/m 20,5 km/h (4 Bft) O-NO 68 0 min 0,000 mm 0,0 UV-I 145 W/m 5,0 C 3,6 C 27,4 km/h (4 Bft) 100,00 %
01.05.2016 07:44 10,4 C 70 % 1011,0 hPa 0,0 l/m 18,5 km/h (3 Bft) O-NO 70 0 min 0,000 mm 0,0 UV-I 145 W/m 5,2 C 4,3 C 24,1 km/h (4 Bft) 95,65 %
01.05.2016 07:45 10,4 C 70 % 1011,0 hPa 0,0 l/m 22,1 km/h (4 Bft) O 81 0 min 0,000 mm 0,0 UV-I 146 W/m 5,2 C 3,2 C 29,0 km/h (5 Bft) 95,83 %
01.05.2016 07:46 10,4 C 70 % 1011,1 hPa 0,0 l/m 22,6 km/h (4 Bft) NO 55 0 min 0,000 mm 0,0 UV-I 146 W/m 5,2 C 3,0 C 32,2 km/h (5 Bft) 100,00 %
01.05.2016 07:47 10,4 C 69 % 1011,0 hPa 0,0 l/m 24,1 km/h (4 Bft) O-NO 60 0 min 0,000 mm 0,0 UV-I 146 W/m 5,0 C 2,6 C 30,6 km/h (5 Bft) 96,30 %
01.05.2016 07:48 10,4 C 69 % 1011,0 hPa 0,0 l/m 24,5 km/h (4 Bft) O-NO 66 0 min 0,000 mm 0,0 UV-I 147 W/m 5,0 C 2,5 C 33,8 km/h (5 Bft) 100,00 %
01.05.2016 07:49 10,4 C 70 % 1011,0 hPa 0,0 l/m 21,6 km/h (4 Bft) NO 35 0 min 0,000 mm 0,0 UV-I 149 W/m 5,2 C 3,3 C 27,4 km/h (4 Bft) 86,67 %
01.05.2016 07:50 10,4 C 70 % 1011,1 hPa 0,0 l/m 22,7 km/h (4 Bft) O 80 0 min 0,000 mm 0,0 UV-I 150 W/m 5,2 C 3,0 C 30,6 km/h (5 Bft) 100,00 %
01.05.2016 07:51 10,4 C 70 % 1011,1 hPa 0,0 l/m 18,1 km/h (3 Bft) NO 51 0 min 0,000 mm 0,0 UV-I 153 W/m 5,2 C 4,4 C 29,0 km/h (5 Bft) 95,83 %
01.05.2016 07:52 10,4 C 70 % 1011,1 hPa 0,0 l/m 22,3 km/h (4 Bft) O-NO 76 0 min 0,000 mm 0,0 UV-I 155 W/m 5,2 C 3,1 C 29,0 km/h (5 Bft) 100,00 %
01.05.2016 07:53 10,4 C 70 % 1011,1 hPa 0,0 l/m 25,2 km/h (4 Bft) O-NO 69 0 min 0,000 mm 0,0 UV-I 155 W/m 5,2 C 2,3 C 32,2 km/h (5 Bft) 96,15 %
01.05.2016 07:54 10,5 C 69 % 1011,2 hPa 0,0 l/m 19,8 km/h (3 Bft) O-NO 67 0 min 0,000 mm 0,0 UV-I 158 W/m 5,1 C 4,0 C 29,0 km/h (5 Bft) 95,83 %
01.05.2016 07:55 10,5 C 70 % 1011,2 hPa 0,0 l/m 19,5 km/h (3 Bft) O-NO 63 0 min 0,000 mm 0,0 UV-I 161 W/m 5,3 C 4,1 C 27,4 km/h (4 Bft) 100,00 %
01.05.2016 07:56 10,5 C 70 % 1011,2 hPa 0,0 l/m 26,2 km/h (4 Bft) O-NO 67 0 min 0,000 mm 0,0 UV-I 164 W/m 5,3 C 2,2 C 30,6 km/h (5 Bft) 95,83 %
01.05.2016 07:57 10,5 C 69 % 1011,2 hPa 0,0 l/m 23,7 km/h (4 Bft) NO 51 0 min 0,000 mm 0,0 UV-I 171 W/m 5,1 C 2,9 C 32,2 km/h (5 Bft) 96,15 %
01.05.2016 07:58 10,5 C 69 % 1011,2 hPa 0,0 l/m 25,3 km/h (4 Bft) NO 55 0 min 0,000 mm 0,0 UV-I 175 W/m 5,1 C 2,4 C 33,8 km/h (5 Bft) 95,83 %
01.05.2016 07:59 10,6 C 69 % 1011,1 hPa 0,0 l/m 20,8 km/h (4 Bft) NO 38 0 min 0,000 mm 0,0 UV-I 182 W/m 5,2 C 3,8 C 25,7 km/h (4 Bft) 100,00 %
01.05.2016 08:00 10,6 C 70 % 1011,2 hPa 0,0 l/m 27,2 km/h (4 Bft) O-NO 65 0 min 0,127 mm 0,0 UV-I 188 W/m 5,4 C 2,1 C 32,2 km/h (5 Bft) 96,30 %
01.05.2016 08:01 10,6 C 70 % 1011,2 hPa 0,0 l/m 25,0 km/h (4 Bft) NO 55 0 min 0,000 mm 0,0 UV-I 197 W/m 5,4 C 2,6 C 30,6 km/h (5 Bft) 100,00 %
01.05.2016 08:02 10,6 C 70 % 1011,2 hPa 0,0 l/m 19,1 km/h (3 Bft) NO 53 1 min 0,000 mm 0,3 UV-I 208 W/m 5,4 C 4,4 C 27,4 km/h (4 Bft) 100,00 %
01.05.2016 08:03 10,6 C 70 % 1011,2 hPa 0,0 l/m 29,4 km/h (5 Bft) O-NO 65 1 min 0,000 mm 0,5 UV-I 221 W/m 5,4 C 1,6 C 40,2 km/h (6 Bft) 95,65 %
01.05.2016 08:04 10,6 C 70 % 1011,2 hPa 0,0 l/m 25,5 km/h (4 Bft) NO 56 1 min 0,000 mm 0,5 UV-I 240 W/m 5,4 C 2,5 C 32,2 km/h (5 Bft) 95,83 %
01.05.2016 08:05 10,7 C 69 % 1011,2 hPa 0,0 l/m 27,8 km/h (4 Bft) O-NO 59 1 min 0,000 mm 0,5 UV-I 249 W/m 5,2 C 2,1 C 33,8 km/h (5 Bft) 95,65 %
01.05.2016 08:06 10,7 C 70 % 1011,2 hPa 0,0 l/m 18,0 km/h (3 Bft) O-NO 58 1 min 0,000 mm 0,5 UV-I 249 W/m 5,5 C 4,9 C 24,1 km/h (4 Bft) 100,00 %
01.05.2016 08:07 10,7 C 70 % 1011,3 hPa 0,0 l/m 22,3 km/h (4 Bft) NO 45 1 min 0,000 mm 0,5 UV-I 265 W/m 5,5 C 3,5 C 27,4 km/h (4 Bft) 100,00 %
01.05.2016 08:08 10,8 C 70 % 1011,3 hPa 0,0 l/m 24,6 km/h (4 Bft) O-NO 73 1 min 0,000 mm 0,5 UV-I 278 W/m 5,6 C 3,0 C 30,6 km/h (5 Bft) 100,00 %
01.05.2016 08:09 10,8 C 69 % 1011,3 hPa 0,0 l/m 20,7 km/h (4 Bft) O 84 1 min 0,000 mm 0,6 UV-I 291 W/m 5,3 C 4,1 C 30,6 km/h (5 Bft) 100,00 %
01.05.2016 08:10 10,8 C 69 % 1011,3 hPa 0,0 l/m 22,5 km/h (4 Bft) O-NO 58 1 min 0,000 mm 0,6 UV-I 300 W/m 5,3 C 3,6 C 30,6 km/h (5 Bft) 100,00 %
01.05.2016 08:11 10,9 C 69 % 1011,3 hPa 0,0 l/m 24,7 km/h (4 Bft) O-NO 63 1 min 0,000 mm 0,6 UV-I 322 W/m 5,4 C 3,1 C 33,8 km/h (5 Bft) 100,00 %
01.05.2016 08:12 10,9 C 69 % 1011,3 hPa 0,0 l/m 24,2 km/h (4 Bft) O 82 1 min 0,000 mm 0,6 UV-I 339 W/m 5,4 C 3,3 C 35,4 km/h (5 Bft) 100,00 %
01.05.2016 08:13 11,0 C 69 % 1011,3 hPa 0,0 l/m 20,9 km/h (4 Bft) NO 43 1 min 0,000 mm 0,6 UV-I 336 W/m 5,5 C 4,3 C 27,4 km/h (4 Bft) 100,00 %
01.05.2016 08:14 11,1 C 69 % 1011,2 hPa 0,0 l/m 28,9 km/h (5 Bft) O-NO 66 1 min 0,000 mm 0,6 UV-I 301 W/m 5,6 C 2,4 C 37,0 km/h (5 Bft) 100,00 %
01.05.2016 08:15 11,1 C 68 % 1011,2 hPa 0,0 l/m 25,1 km/h (4 Bft) O-NO 74 1 min 0,000 mm 0,6 UV-I 295 W/m 5,4 C 3,3 C 32,2 km/h (5 Bft) 100,00 %
01.05.2016 08:16 11,1 C 68 % 1011,3 hPa 0,0 l/m 25,9 km/h (4 Bft) O-NO 78 1 min 0,000 mm 0,6 UV-I 264 W/m 5,4 C 3,1 C 32,2 km/h (5 Bft) 100,00 %
01.05.2016 08:17 11,2 C 68 % 1011,3 hPa 0,0 l/m 23,1 km/h (4 Bft) N-NO 29 1 min 0,000 mm 0,6 UV-I 248 W/m 5,5 C 3,9 C 30,6 km/h (5 Bft) 100,00 %
01.05.2016 08:18 11,2 C 69 % 1011,3 hPa 0,0 l/m 24,9 km/h (4 Bft) O-NO 57 1 min 0,000 mm 0,6 UV-I 237 W/m 5,7 C 3,5 C 32,2 km/h (5 Bft) 100,00 %
01.05.2016 08:19 11,2 C 69 % 1011,3 hPa 0,0 l/m 22,9 km/h (4 Bft) O 91 1 min 0,000 mm 0,6 UV-I 231 W/m 5,7 C 4,0 C 30,6 km/h (5 Bft) 100,00 %
01.05.2016 08:20 11,2 C 69 % 1011,3 hPa 0,0 l/m 26,1 km/h (4 Bft) O-NO 74 1 min 0,000 mm 0,6 UV-I 232 W/m 5,7 C 3,2 C 37,0 km/h (5 Bft) 100,00 %
01.05.2016 08:21 11,2 C 68 % 1011,3 hPa 0,0 l/m 26,0 km/h (4 Bft) O-NO 78 1 min 0,000 mm 0,6 UV-I 237 W/m 5,5 C 3,2 C 38,6 km/h (5 Bft) 100,00 %
01.05.2016 08:22 11,2 C 68 % 1011,3 hPa 0,0 l/m 25,3 km/h (4 Bft) O-NO 57 1 min 0,000 mm 0,6 UV-I 251 W/m 5,5 C 3,4 C 32,2 km/h (5 Bft) 100,00 %
01.05.2016 08:23 11,2 C 68 % 1011,3 hPa 0,0 l/m 27,3 km/h (4 Bft) O 88 1 min 0,000 mm 0,6 UV-I 281 W/m 5,5 C 2,9 C 33,8 km/h (5 Bft) 100,00 %
01.05.2016 08:24 11,2 C 68 % 1011,3 hPa 0,0 l/m 24,7 km/h (4 Bft) NO 43 1 min 0,000 mm 0,7 UV-I 296 W/m 5,5 C 3,5 C 32,2 km/h (5 Bft) 100,00 %
01.05.2016 08:25 11,3 C 69 % 1011,4 hPa 0,0 l/m 19,0 km/h (3 Bft) NO 39 1 min 0,000 mm 0,7 UV-I 308 W/m 5,8 C 5,3 C 27,4 km/h (4 Bft) 100,00 %
01.05.2016 08:26 11,3 C 70 % 1011,4 hPa 0,0 l/m 22,1 km/h (4 Bft) N-NO 33 1 min 0,000 mm 0,7 UV-I 327 W/m 6,0 C 4,4 C 29,0 km/h (5 Bft) 100,00 %
01.05.2016 08:27 11,3 C 69 % 1011,4 hPa 0,0 l/m 22,5 km/h (4 Bft) NO 53 1 min 0,000 mm 0,8 UV-I 330 W/m 5,8 C 4,2 C 30,6 km/h (5 Bft) 95,65 %
01.05.2016 08:28 11,3 C 69 % 1011,4 hPa 0,0 l/m 22,7 km/h (4 Bft) NO 43 1 min 0,000 mm 0,8 UV-I 336 W/m 5,8 C 4,2 C 29,0 km/h (5 Bft) 100,00 %
01.05.2016 08:29 11,4 C 69 % 1011,4 hPa 0,0 l/m 23,3 km/h (4 Bft) NO 38 1 min 0,000 mm 0,8 UV-I 334 W/m 5,9 C 4,2 C 32,2 km/h (5 Bft) 93,33 %
01.05.2016 08:30 11,4 C 69 % 1011,4 hPa 0,0 l/m 27,6 km/h (4 Bft) O-NO 72 1 min 0,000 mm 0,8 UV-I 332 W/m 5,9 C 3,1 C 41,8 km/h (6 Bft) 100,00 %
01.05.2016 08:31 11,4 C 68 % 1011,4 hPa 0,0 l/m 27,0 km/h (4 Bft) NO 50 1 min 0,000 mm 0,8 UV-I 337 W/m 5,7 C 3,3 C 35,4 km/h (5 Bft) 100,00 %
01.05.2016 08:32 11,5 C 68 % 1011,4 hPa 0,0 l/m 27,4 km/h (4 Bft) NO 42 1 min 0,000 mm 0,9 UV-I 356 W/m 5,8 C 3,3 C 33,8 km/h (5 Bft) 100,00 %
01.05.2016 08:33 11,5 C 68 % 1011,4 hPa 0,0 l/m 26,4 km/h (4 Bft) O-NO 63 1 min 0,000 mm 0,9 UV-I 360 W/m 5,8 C 3,5 C 35,4 km/h (5 Bft) 100,00 %
01.05.2016 08:34 11,6 C 68 % 1011,4 hPa 0,0 l/m 29,9 km/h (5 Bft) O-NO 57 1 min 0,000 mm 0,9 UV-I 354 W/m 5,9 C 2,9 C 35,4 km/h (5 Bft) 100,00 %
01.05.2016 08:35 11,6 C 67 % 1011,5 hPa 0,0 l/m 22,4 km/h (4 Bft) NO 39 1 min 0,000 mm 0,9 UV-I 354 W/m 5,7 C 4,7 C 29,0 km/h (5 Bft) 100,00 %
01.05.2016 08:36 11,6 C 67 % 1011,5 hPa 0,0 l/m 31,1 km/h (5 Bft) O 87 1 min 0,000 mm 0,9 UV-I 399 W/m 5,7 C 2,7 C 38,6 km/h (5 Bft) 100,00 %
01.05.2016 08:37 11,7 C 67 % 1011,5 hPa 0,0 l/m 25,7 km/h (4 Bft) NO 40 1 min 0,000 mm 1,0 UV-I 402 W/m 5,8 C 4,0 C 32,2 km/h (5 Bft) 100,00 %
01.05.2016 08:38 11,7 C 67 % 1011,5 hPa 0,0 l/m 24,3 km/h (4 Bft) NO 55 1 min 0,000 mm 0,9 UV-I 362 W/m 5,8 C 4,3 C 32,2 km/h (5 Bft) 100,00 %
01.05.2016 08:39 11,8 C 67 % 1011,6 hPa 0,0 l/m 24,5 km/h (4 Bft) O-NO 69 1 min 0,000 mm 0,9 UV-I 322 W/m 5,9 C 4,4 C 32,2 km/h (5 Bft) 100,00 %
01.05.2016 08:40 11,8 C 68 % 1011,6 hPa 0,0 l/m 24,7 km/h (4 Bft) O 97 1 min 0,000 mm 0,9 UV-I 296 W/m 6,1 C 4,3 C 30,6 km/h (5 Bft) 100,00 %
01.05.2016 08:41 11,8 C 67 % 1011,6 hPa 0,0 l/m 30,8 km/h (5 Bft) O-NO 61 1 min 0,000 mm 0,8 UV-I 278 W/m 5,9 C 3,0 C 37,0 km/h (5 Bft) 100,00 %
01.05.2016 08:42 11,8 C 68 % 1011,6 hPa 0,0 l/m 25,9 km/h (4 Bft) NO 35 1 min 0,000 mm 0,8 UV-I 276 W/m 6,1 C 4,1 C 32,2 km/h (5 Bft) 100,00 %
01.05.2016 08:43 11,8 C 67 % 1011,6 hPa 0,0 l/m 26,6 km/h (4 Bft) NO 50 1 min 0,000 mm 0,8 UV-I 267 W/m 5,9 C 3,9 C 33,8 km/h (5 Bft) 100,00 %
01.05.2016 08:44 11,8 C 68 % 1011,6 hPa 0,0 l/m 23,2 km/h (4 Bft) NO 46 1 min 0,000 mm 0,8 UV-I 264 W/m 6,1 C 4,7 C 32,2 km/h (5 Bft) 100,00 %
01.05.2016 08:45 11,8 C 68 % 1011,6 hPa 0,0 l/m 23,4 km/h (4 Bft) O-NO 57 1 min 0,000 mm 0,8 UV-I 271 W/m 6,1 C 4,7 C 32,2 km/h (5 Bft) 95,65 %
01.05.2016 08:46 11,8 C 67 % 1011,7 hPa 0,0 l/m 25,8 km/h (4 Bft) O-NO 62 1 min 0,000 mm 0,9 UV-I 279 W/m 5,9 C 4,1 C 35,4 km/h (5 Bft) 92,59 %
01.05.2016 08:47 11,8 C 66 % 1011,6 hPa 0,0 l/m 27,5 km/h (4 Bft) O-NO 74 1 min 0,000 mm 0,9 UV-I 286 W/m 5,7 C 3,7 C 37,0 km/h (5 Bft) 100,00 %
01.05.2016 08:48 11,8 C 67 % 1011,7 hPa 0,0 l/m 27,8 km/h (4 Bft) O-NO 67 1 min 0,000 mm 0,9 UV-I 298 W/m 5,9 C 3,6 C 33,8 km/h (5 Bft) 95,83 %
01.05.2016 08:49 11,8 C 67 % 1011,7 hPa 0,0 l/m 26,2 km/h (4 Bft) O-NO 57 1 min 0,000 mm 0,9 UV-I 306 W/m 5,9 C 4,0 C 33,8 km/h (5 Bft) 100,00 %
01.05.2016 08:50 11,8 C 67 % 1011,7 hPa 0,0 l/m 26,0 km/h (4 Bft) O-NO 58 1 min 0,000 mm 0,9 UV-I 318 W/m 5,9 C 4,0 C 32,2 km/h (5 Bft) 100,00 %
01.05.2016 08:51 11,8 C 67 % 1011,7 hPa 0,0 l/m 19,8 km/h (3 Bft) O-SO 103 1 min 0,000 mm 0,9 UV-I 322 W/m 5,9 C 5,7 C 25,7 km/h (4 Bft) 100,00 %
01.05.2016 08:52 11,8 C 68 % 1011,7 hPa 0,0 l/m 19,1 km/h (3 Bft) O-NO 78 1 min 0,000 mm 1,0 UV-I 329 W/m 6,1 C 5,9 C 24,1 km/h (4 Bft) 100,00 %
01.05.2016 08:53 11,8 C 68 % 1011,7 hPa 0,0 l/m 18,4 km/h (3 Bft) O-NO 57 1 min 0,000 mm 1,0 UV-I 329 W/m 6,1 C 6,1 C 27,4 km/h (4 Bft) 100,00 %
01.05.2016 08:54 11,8 C 68 % 1011,7 hPa 0,0 l/m 23,0 km/h (4 Bft) O-NO 71 1 min 0,000 mm 1,0 UV-I 324 W/m 6,1 C 4,8 C 32,2 km/h (5 Bft) 100,00 %
01.05.2016 08:55 11,8 C 67 % 1011,8 hPa 0,0 l/m 25,1 km/h (4 Bft) NO 49 1 min 0,000 mm 1,0 UV-I 315 W/m 5,9 C 4,2 C 35,4 km/h (5 Bft) 100,00 %
01.05.2016 08:56 11,8 C 67 % 1011,8 hPa 0,0 l/m 30,4 km/h (5 Bft) O-NO 66 1 min 0,000 mm 1,0 UV-I 311 W/m 5,9 C 3,1 C 40,2 km/h (6 Bft) 100,00 %
01.05.2016 08:57 11,8 C 67 % 1011,8 hPa 0,0 l/m 27,4 km/h (4 Bft) NO 35 1 min 0,000 mm 1,0 UV-I 308 W/m 5,9 C 3,7 C 38,6 km/h (5 Bft) 100,00 %
01.05.2016 08:58 11,8 C 67 % 1011,8 hPa 0,0 l/m 25,7 km/h (4 Bft) O 94 1 min 0,000 mm 1,0 UV-I 307 W/m 5,9 C 4,1 C 32,2 km/h (5 Bft) 100,00 %
01.05.2016 08:59 11,8 C 67 % 1011,8 hPa 0,0 l/m 19,1 km/h (3 Bft) O 92 1 min 0,000 mm 1,0 UV-I 311 W/m 5,9 C 5,9 C 22,5 km/h (4 Bft) 100,00 %
01.05.2016 09:00 11,8 C 67 % 1011,8 hPa 0,0 l/m 23,8 km/h (4 Bft) O-NO 59 1 min 0,229 mm 1,0 UV-I 317 W/m 5,9 C 4,6 C 38,6 km/h (5 Bft) 100,00 %
01.05.2016 09:01 11,8 C 67 % 1011,8 hPa 0,0 l/m 26,2 km/h (4 Bft) O 87 1 min 0,000 mm 1,0 UV-I 320 W/m 5,9 C 4,0 C 40,2 km/h (6 Bft) 96,30 %
01.05.2016 09:02 11,9 C 67 % 1011,8 hPa 0,0 l/m 21,2 km/h (4 Bft) O-NO 61 1 min 0,000 mm 1,0 UV-I 329 W/m 6,0 C 5,4 C 30,6 km/h (5 Bft) 100,00 %
01.05.2016 09:03 11,9 C 68 % 1011,9 hPa 0,0 l/m 18,4 km/h (3 Bft) O-NO 58 1 min 0,000 mm 1,0 UV-I 322 W/m 6,2 C 6,2 C 24,1 km/h (4 Bft) 100,00 %
01.05.2016 09:04 11,9 C 68 % 1011,9 hPa 0,0 l/m 18,6 km/h (3 Bft) O-NO 64 1 min 0,000 mm 1,0 UV-I 322 W/m 6,2 C 6,2 C 25,7 km/h (4 Bft) 100,00 %
01.05.2016 09:05 11,9 C 68 % 1011,9 hPa 0,0 l/m 23,2 km/h (4 Bft) O-NO 68 1 min 0,000 mm 1,0 UV-I 324 W/m 6,2 C 4,9 C 33,8 km/h (5 Bft) 100,00 %
01.05.2016 09:06 11,9 C 67 % 1011,8 hPa 0,0 l/m 22,7 km/h (4 Bft) NO 52 1 min 0,000 mm 1,0 UV-I 321 W/m 6,0 C 5,0 C 30,6 km/h (5 Bft) 100,00 %
01.05.2016 09:07 11,9 C 68 % 1011,9 hPa 0,0 l/m 20,4 km/h (4 Bft) NO 38 1 min 0,000 mm 1,0 UV-I 316 W/m 6,2 C 5,6 C 25,7 km/h (4 Bft) 100,00 %
01.05.2016 09:08 11,9 C 68 % 1011,9 hPa 0,0 l/m 21,2 km/h (4 Bft) O 90 1 min 0,000 mm 1,0 UV-I 300 W/m 6,2 C 5,4 C 27,4 km/h (4 Bft) 100,00 %
01.05.2016 09:09 11,9 C 67 % 1011,9 hPa 0,0 l/m 15,4 km/h (3 Bft) O-NO 71 1 min 0,000 mm 1,0 UV-I 295 W/m 6,0 C 7,3 C 20,9 km/h (4 Bft) 100,00 %
01.05.2016 09:10 11,9 C 68 % 1012,0 hPa 0,0 l/m 21,8 km/h (4 Bft) NO 55 0 min 0,000 mm 1,0 UV-I 291 W/m 6,2 C 5,2 C 33,8 km/h (5 Bft) 100,00 %
01.05.2016 09:11 11,9 C 68 % 1012,0 hPa 0,0 l/m 25,1 km/h (4 Bft) NO 49 0 min 0,000 mm 1,0 UV-I 284 W/m 6,2 C 4,4 C 29,0 km/h (5 Bft) 100,00 %
01.05.2016 09:12 11,9 C 67 % 1012,0 hPa 0,0 l/m 28,4 km/h (4 Bft) NO 55 0 min 0,000 mm 0,9 UV-I 280 W/m 6,0 C 3,6 C 37,0 km/h (5 Bft) 100,00 %
01.05.2016 09:13 11,9 C 67 % 1011,9 hPa 0,0 l/m 25,9 km/h (4 Bft) O-NO 69 0 min 0,000 mm 0,9 UV-I 274 W/m 6,0 C 4,2 C 37,0 km/h (5 Bft) 100,00 %
01.05.2016 09:14 11,9 C 66 % 1012,0 hPa 0,0 l/m 24,7 km/h (4 Bft) O-NO 78 0 min 0,000 mm 0,9 UV-I 267 W/m 5,8 C 4,5 C 33,8 km/h (5 Bft) 100,00 %
01.05.2016 09:15 11,9 C 68 % 1012,0 hPa 0,0 l/m 20,9 km/h (4 Bft) NO 53 0 min 0,000 mm 0,9 UV-I 265 W/m 6,2 C 5,5 C 32,2 km/h (5 Bft) 95,65 %
01.05.2016 09:16 11,9 C 68 % 1012,0 hPa 0,0 l/m 26,6 km/h (4 Bft) NO 46 0 min 0,000 mm 0,9 UV-I 268 W/m 6,2 C 4,0 C 38,6 km/h (5 Bft) 100,00 %
01.05.2016 09:17 11,9 C 67 % 1011,9 hPa 0,0 l/m 28,3 km/h (4 Bft) NO 46 0 min 0,000 mm 0,9 UV-I 270 W/m 6,0 C 3,7 C 38,6 km/h (5 Bft) 95,65 %
01.05.2016 09:18 11,8 C 68 % 1012,0 hPa 0,0 l/m 23,3 km/h (4 Bft) O-NO 69 0 min 0,000 mm 1,0 UV-I 273 W/m 6,1 C 4,7 C 33,8 km/h (5 Bft) 95,83 %
01.05.2016 09:19 11,8 C 68 % 1011,9 hPa 0,0 l/m 21,6 km/h (4 Bft) O 82 0 min 0,000 mm 1,0 UV-I 280 W/m 6,1 C 5,2 C 25,7 km/h (4 Bft) 100,00 %
01.05.2016 09:20 11,8 C 68 % 1012,0 hPa 0,0 l/m 16,8 km/h (3 Bft) O-NO 67 0 min 0,000 mm 1,0 UV-I 285 W/m 6,1 C 6,7 C 20,9 km/h (4 Bft) 100,00 %
01.05.2016 09:21 11,8 C 69 % 1012,0 hPa 0,0 l/m 19,1 km/h (3 Bft) O-NO 57 0 min 0,000 mm 1,0 UV-I 292 W/m 6,3 C 5,9 C 27,4 km/h (4 Bft) 100,00 %
01.05.2016 09:22 11,8 C 68 % 1012,0 hPa 0,0 l/m 24,6 km/h (4 Bft) NO 51 0 min 0,000 mm 1,0 UV-I 302 W/m 6,1 C 4,4 C 33,8 km/h (5 Bft) 92,59 %
01.05.2016 09:23 11,9 C 68 % 1012,0 hPa 0,0 l/m 28,1 km/h (4 Bft) O 79 0 min 0,000 mm 1,1 UV-I 311 W/m 6,2 C 3,7 C 35,4 km/h (5 Bft) 100,00 %
01.05.2016 09:24 11,9 C 68 % 1012,0 hPa 0,0 l/m 23,9 km/h (4 Bft) NO 38 1 min 0,000 mm 1,1 UV-I 320 W/m 6,2 C 4,7 C 30,6 km/h (5 Bft) 95,83 %
01.05.2016 09:25 11,9 C 68 % 1012,0 hPa 0,0 l/m 23,9 km/h (4 Bft) NO 43 1 min 0,000 mm 1,1 UV-I 328 W/m 6,2 C 4,7 C 30,6 km/h (5 Bft) 100,00 %
01.05.2016 09:26 11,9 C 68 % 1012,0 hPa 0,0 l/m 28,3 km/h (4 Bft) O-NO 77 1 min 0,000 mm 1,2 UV-I 340 W/m 6,2 C 3,7 C 37,0 km/h (5 Bft) 91,30 %
01.05.2016 09:27 11,9 C 67 % 1012,0 hPa 0,0 l/m 23,4 km/h (4 Bft) O-NO 59 1 min 0,000 mm 1,2 UV-I 349 W/m 6,0 C 4,8 C 35,4 km/h (5 Bft) 100,00 %
01.05.2016 09:28 11,9 C 68 % 1012,0 hPa 0,0 l/m 24,6 km/h (4 Bft) NO 44 1 min 0,000 mm 1,2 UV-I 355 W/m 6,2 C 4,5 C 33,8 km/h (5 Bft) 96,15 %
01.05.2016 09:29 12,0 C 69 % 1012,0 hPa 0,0 l/m 22,3 km/h (4 Bft) NO 51 1 min 0,000 mm 1,2 UV-I 354 W/m 6,5 C 5,2 C 32,2 km/h (5 Bft) 95,83 %
01.05.2016 09:30 12,0 C 69 % 1012,1 hPa 0,0 l/m 23,8 km/h (4 Bft) NO 50 1 min 0,000 mm 1,3 UV-I 353 W/m 6,5 C 4,8 C 32,2 km/h (5 Bft) 100,00 %
01.05.2016 09:31 12,0 C 68 % 1012,1 hPa 0,0 l/m 24,7 km/h (4 Bft) O-NO 64 1 min 0,000 mm 1,3 UV-I 359 W/m 6,3 C 4,6 C 33,8 km/h (5 Bft) 95,83 %
01.05.2016 09:32 12,1 C 68 % 1012,1 hPa 0,0 l/m 19,8 km/h (3 Bft) O-NO 58 1 min 0,000 mm 1,3 UV-I 363 W/m 6,4 C 6,1 C 27,4 km/h (4 Bft) 100,00 %
01.05.2016 09:33 12,1 C 69 % 1012,1 hPa 0,0 l/m 20,2 km/h (4 Bft) O 85 1 min 0,000 mm 1,3 UV-I 357 W/m 6,6 C 5,9 C 29,0 km/h (5 Bft) 95,83 %
01.05.2016 09:34 12,1 C 68 % 1012,1 hPa 0,0 l/m 20,7 km/h (4 Bft) O-NO 60 1 min 0,000 mm 1,3 UV-I 348 W/m 6,4 C 5,8 C 25,7 km/h (4 Bft) 100,00 %
01.05.2016 09:35 12,2 C 69 % 1012,1 hPa 0,0 l/m 19,5 km/h (3 Bft) NO 55 1 min 0,000 mm 1,3 UV-I 343 W/m 6,7 C 6,3 C 29,0 km/h (5 Bft) 95,83 %
01.05.2016 09:36 12,2 C 68 % 1012,2 hPa 0,0 l/m 25,2 km/h (4 Bft) O-NO 71 1 min 0,000 mm 1,3 UV-I 345 W/m 6,5 C 4,8 C 35,4 km/h (5 Bft) 100,00 %
01.05.2016 09:37 12,2 C 68 % 1012,2 hPa 0,0 l/m 24,1 km/h (4 Bft) NO 47 1 min 0,000 mm 1,3 UV-I 343 W/m 6,5 C 5,0 C 30,6 km/h (5 Bft) 95,83 %
01.05.2016 09:38 12,2 C 68 % 1012,1 hPa 0,0 l/m 22,5 km/h (4 Bft) O 84 1 min 0,000 mm 1,3 UV-I 345 W/m 6,5 C 5,4 C 30,6 km/h (5 Bft) 100,00 %
01.05.2016 09:39 12,2 C 68 % 1012,2 hPa 0,0 l/m 22,9 km/h (4 Bft) NO 38 1 min 0,000 mm 1,3 UV-I 345 W/m 6,5 C 5,3 C 29,0 km/h (5 Bft) 95,65 %
01.05.2016 09:40 12,2 C 68 % 1012,2 hPa 0,0 l/m 22,2 km/h (4 Bft) NO 53 1 min 0,000 mm 1,3 UV-I 348 W/m 6,5 C 5,5 C 25,7 km/h (4 Bft) 91,30 %
01.05.2016 09:43 12,3 C 68 % 1012,3 hPa 0,0 l/m 18,5 km/h (3 Bft) O-NO 68 3 min 0,000 mm 1,3 UV-I 355 W/m 6,6 C 6,7 C 24,1 km/h (4 Bft) 97,37 %
01.05.2016 09:44 12,3 C 68 % 1012,3 hPa 0,0 l/m 20,9 km/h (4 Bft) O-NO 69 1 min 0,000 mm 1,4 UV-I 358 W/m 6,6 C 6,0 C 25,7 km/h (4 Bft) 96,15 %
01.05.2016 09:45 12,3 C 68 % 1012,3 hPa 0,0 l/m 18,5 km/h (3 Bft) NO 46 1 min 0,000 mm 1,4 UV-I 366 W/m 6,6 C 6,7 C 27,4 km/h (4 Bft) 95,83 %
01.05.2016 09:46 12,4 C 68 % 1012,3 hPa 0,0 l/m 23,5 km/h (4 Bft) N-NO 30 1 min 0,000 mm 1,4 UV-I 369 W/m 6,7 C 5,4 C 33,8 km/h (5 Bft) 100,00 %
01.05.2016 09:47 12,4 C 68 % 1012,3 hPa 0,0 l/m 23,3 km/h (4 Bft) O-NO 57 1 min 0,000 mm 1,4 UV-I 369 W/m 6,7 C 5,5 C 29,0 km/h (5 Bft) 100,00 %
01.05.2016 09:48 12,4 C 68 % 1012,3 hPa 0,0 l/m 25,2 km/h (4 Bft) NO 53 1 min 0,000 mm 1,4 UV-I 369 W/m 6,7 C 5,0 C 32,2 km/h (5 Bft) 96,30 %
01.05.2016 09:49 12,4 C 67 % 1012,3 hPa 0,0 l/m 23,9 km/h (4 Bft) NO 38 1 min 0,000 mm 1,4 UV-I 366 W/m 6,4 C 5,3 C 30,6 km/h (5 Bft) 96,15 %
01.05.2016 09:50 12,4 C 68 % 1012,4 hPa 0,0 l/m 14,5 km/h (3 Bft) O-NO 67 1 min 0,000 mm 1,4 UV-I 365 W/m 6,7 C 8,2 C 17,7 km/h (3 Bft) 100,00 %
01.05.2016 09:51 12,5 C 69 % 1012,4 hPa 0,0 l/m 16,9 km/h (3 Bft) NO 44 1 min 0,000 mm 1,4 UV-I 365 W/m 7,0 C 7,5 C 20,9 km/h (4 Bft) 96,15 %
01.05.2016 09:52 12,6 C 69 % 1012,4 hPa 0,0 l/m 21,0 km/h (4 Bft) NO 54 1 min 0,000 mm 1,4 UV-I 368 W/m 7,1 C 6,4 C 29,0 km/h (5 Bft) 94,44 %
01.05.2016 09:53 12,6 C 68 % 1012,4 hPa 0,0 l/m 22,1 km/h (4 Bft) NO 48 1 min 0,000 mm 1,4 UV-I 372 W/m 6,9 C 6,1 C 30,6 km/h (5 Bft) 88,46 %
01.05.2016 09:54 12,6 C 68 % 1012,4 hPa 0,0 l/m 25,7 km/h (4 Bft) O-NO 67 1 min 0,000 mm 1,5 UV-I 376 W/m 6,9 C 5,2 C 30,6 km/h (5 Bft) 100,00 %
01.05.2016 09:55 12,6 C 68 % 1012,6 hPa 0,0 l/m 20,1 km/h (4 Bft) NO 54 1 min 0,000 mm 1,4 UV-I 369 W/m 6,9 C 6,6 C 25,7 km/h (4 Bft) 100,00 %
01.05.2016 09:56 12,6 C 67 % 1012,5 hPa 0,0 l/m 23,3 km/h (4 Bft) O-NO 65 1 min 0,000 mm 1,4 UV-I 364 W/m 6,6 C 5,8 C 33,8 km/h (5 Bft) 100,00 %
01.05.2016 09:57 12,6 C 67 % 1012,6 hPa 0,0 l/m 29,0 km/h (5 Bft) O-NO 78 1 min 0,000 mm 1,4 UV-I 355 W/m 6,6 C 4,5 C 40,2 km/h (6 Bft) 100,00 %
01.05.2016 09:58 12,6 C 66 % 1012,5 hPa 0,0 l/m 28,4 km/h (4 Bft) O-NO 75 0 min 0,000 mm 1,4 UV-I 348 W/m 6,4 C 4,6 C 37,0 km/h (5 Bft) 100,00 %
01.05.2016 09:59 12,6 C 66 % 1012,6 hPa 0,0 l/m 23,4 km/h (4 Bft) O 86 0 min 0,000 mm 1,4 UV-I 342 W/m 6,4 C 5,7 C 30,6 km/h (5 Bft) 95,65 %
01.05.2016 10:00 12,6 C 66 % 1012,7 hPa 0,0 l/m 22,8 km/h (4 Bft) NO 44 0 min 0,254 mm 1,4 UV-I 337 W/m 6,4 C 5,9 C 32,2 km/h (5 Bft) 91,67 %
01.05.2016 10:02 12,6 C 66 % 1012,8 hPa 0,0 l/m 27,7 km/h (4 Bft) O-NO 63 0 min 0,000 mm 1,4 UV-I 332 W/m 6,4 C 4,8 C 35,4 km/h (5 Bft) 98,21 %
01.05.2016 10:03 12,5 C 66 % 1012,6 hPa 0,0 l/m 29,6 km/h (5 Bft) O-NO 58 0 min 0,000 mm 1,4 UV-I 329 W/m 6,3 C 4,2 C 35,4 km/h (5 Bft) 100,00 %
01.05.2016 10:04 12,5 C 66 % 1012,6 hPa 0,0 l/m 23,3 km/h (4 Bft) O-NO 61 0 min 0,000 mm 1,3 UV-I 326 W/m 6,3 C 5,6 C 29,0 km/h (5 Bft) 91,67 %
01.05.2016 10:05 12,5 C 67 % 1012,7 hPa 0,0 l/m 24,7 km/h (4 Bft) NO 53 0 min 0,000 mm 1,3 UV-I 323 W/m 6,5 C 5,3 C 32,2 km/h (5 Bft) 100,00 %
01.05.2016 10:06 12,5 C 67 % 1012,6 hPa 0,0 l/m 22,9 km/h (4 Bft) O-NO 74 0 min 0,000 mm 1,3 UV-I 322 W/m 6,5 C 5,7 C 32,2 km/h (5 Bft) 100,00 %
01.05.2016 10:07 12,5 C 68 % 1012,6 hPa 0,0 l/m 23,6 km/h (4 Bft) O-NO 68 0 min 0,000 mm 1,3 UV-I 322 W/m 6,8 C 5,6 C 37,0 km/h (5 Bft) 100,00 %
01.05.2016 10:08 12,5 C 67 % 1012,6 hPa 0,0 l/m 27,0 km/h (4 Bft) O-NO 67 0 min 0,000 mm 1,3 UV-I 322 W/m 6,5 C 4,8 C 37,0 km/h (5 Bft) 96,88 %
01.05.2016 10:09 12,5 C 67 % 1012,6 hPa 0,0 l/m 23,2 km/h (4 Bft) O 79 0 min 0,000 mm 1,4 UV-I 324 W/m 6,5 C 5,7 C 29,0 km/h (5 Bft) 100,00 %
01.05.2016 10:10 12,6 C 67 % 1012,7 hPa 0,0 l/m 24,5 km/h (4 Bft) O-NO 57 0 min 0,000 mm 1,4 UV-I 329 W/m 6,6 C 5,5 C 32,2 km/h (5 Bft) 100,00 %
01.05.2016 10:11 12,6 C 67 % 1012,7 hPa 0,0 l/m 25,1 km/h (4 Bft) O-NO 59 0 min 0,000 mm 1,4 UV-I 333 W/m 6,6 C 5,3 C 33,8 km/h (5 Bft) 100,00 %
01.05.2016 10:12 12,6 C 67 % 1012,7 hPa 0,0 l/m 24,0 km/h (4 Bft) O-NO 69 0 min 0,000 mm 1,4 UV-I 338 W/m 6,6 C 5,6 C 30,6 km/h (5 Bft) 100,00 %
01.05.2016 10:13 12,6 C 67 % 1012,8 hPa 0,0 l/m 24,9 km/h (4 Bft) O 82 0 min 0,000 mm 1,4 UV-I 339 W/m 6,6 C 5,4 C 32,2 km/h (5 Bft) 100,00 %
01.05.2016 10:14 12,6 C 67 % 1012,8 hPa 0,0 l/m 23,3 km/h (4 Bft) O-NO 67 0 min 0,000 mm 1,4 UV-I 339 W/m 6,6 C 5,8 C 30,6 km/h (5 Bft) 100,00 %
01.05.2016 10:15 12,6 C 68 % 1012,8 hPa 0,0 l/m 19,8 km/h (3 Bft) O-NO 61 0 min 0,000 mm 1,4 UV-I 339 W/m 6,9 C 6,7 C 27,4 km/h (4 Bft) 100,00 %
01.05.2016 10:16 12,7 C 68 % 1012,8 hPa 0,0 l/m 25,5 km/h (4 Bft) NO 42 0 min 0,000 mm 1,5 UV-I 339 W/m 6,9 C 5,4 C 32,2 km/h (5 Bft) 100,00 %
01.05.2016 10:17 12,7 C 68 % 1012,8 hPa 0,0 l/m 29,5 km/h (5 Bft) O 91 0 min 0,000 mm 1,4 UV-I 334 W/m 6,9 C 4,5 C 37,0 km/h (5 Bft) 100,00 %
01.05.2016 10:18 12,7 C 68 % 1012,8 hPa 0,0 l/m 20,0 km/h (4 Bft) O-NO 64 0 min 0,000 mm 1,4 UV-I 326 W/m 6,9 C 6,8 C 29,0 km/h (5 Bft) 100,00 %
01.05.2016 10:19 12,7 C 68 % 1012,8 hPa 0,0 l/m 25,3 km/h (4 Bft) NO 46 0 min 0,000 mm 1,4 UV-I 319 W/m 6,9 C 5,4 C 32,2 km/h (5 Bft) 100,00 %
01.05.2016 10:20 12,7 C 68 % 1012,8 hPa 0,0 l/m 26,8 km/h (4 Bft) O-NO 65 0 min 0,000 mm 1,4 UV-I 312 W/m 6,9 C 5,1 C 32,2 km/h (5 Bft) 96,55 %
01.05.2016 10:21 12,7 C 68 % 1012,9 hPa 0,0 l/m 25,7 km/h (4 Bft) O-NO 71 0 min 0,000 mm 1,4 UV-I 309 W/m 6,9 C 5,3 C 30,6 km/h (5 Bft) 100,00 %
01.05.2016 10:22 12,7 C 67 % 1012,9 hPa 0,0 l/m 27,0 km/h (4 Bft) O 97 0 min 0,000 mm 1,4 UV-I 306 W/m 6,7 C 5,1 C 33,8 km/h (5 Bft) 100,00 %
01.05.2016 10:23 12,7 C 67 % 1012,9 hPa 0,0 l/m 26,2 km/h (4 Bft) NO 50 0 min 0,000 mm 1,3 UV-I 302 W/m 6,7 C 5,2 C 30,6 km/h (5 Bft) 100,00 %
01.05.2016 10:24 12,7 C 67 % 1012,9 hPa 0,0 l/m 23,0 km/h (4 Bft) O-NO 65 0 min 0,000 mm 1,3 UV-I 297 W/m 6,7 C 6,0 C 25,7 km/h (4 Bft) 96,15 %
01.05.2016 10:25 12,7 C 68 % 1012,9 hPa 0,0 l/m 15,5 km/h (3 Bft) O-NO 66 0 min 0,000 mm 1,3 UV-I 292 W/m 6,9 C 8,2 C 22,5 km/h (4 Bft) 100,00 %
01.05.2016 10:26 12,7 C 69 % 1013,0 hPa 0,0 l/m 25,4 km/h (4 Bft) O-NO 59 0 min 0,000 mm 1,3 UV-I 287 W/m 7,2 C 5,4 C 29,0 km/h (5 Bft) 100,00 %
01.05.2016 10:27 12,7 C 69 % 1013,0 hPa 0,0 l/m 24,8 km/h (4 Bft) O-NO 66 0 min 0,000 mm 1,3 UV-I 283 W/m 7,2 C 5,5 C 35,4 km/h (5 Bft) 100,00 %
01.05.2016 10:28 12,7 C 68 % 1012,9 hPa 0,0 l/m 29,4 km/h (5 Bft) NO 49 0 min 0,000 mm 1,3 UV-I 279 W/m 6,9 C 4,6 C 37,0 km/h (5 Bft) 95,83 %
01.05.2016 10:29 12,6 C 68 % 1013,0 hPa 0,0 l/m 22,8 km/h (4 Bft) O-NO 61 0 min 0,000 mm 1,3 UV-I 275 W/m 6,9 C 5,9 C 32,2 km/h (5 Bft) 100,00 %
01.05.2016 10:30 12,6 C 68 % 1013,0 hPa 0,0 l/m 25,7 km/h (4 Bft) O-NO 60 0 min 0,000 mm 1,2 UV-I 272 W/m 6,9 C 5,2 C 30,6 km/h (5 Bft) 100,00 %
01.05.2016 10:31 12,6 C 69 % 1013,0 hPa 0,0 l/m 26,8 km/h (4 Bft) O-NO 60 0 min 0,000 mm 1,2 UV-I 269 W/m 7,1 C 5,0 C 32,2 km/h (5 Bft) 100,00 %
01.05.2016 10:32 12,6 C 69 % 1013,0 hPa 0,0 l/m 24,9 km/h (4 Bft) O-NO 67 0 min 0,000 mm 1,2 UV-I 265 W/m 7,1 C 5,4 C 29,0 km/h (5 Bft) 100,00 %
01.05.2016 10:33 12,6 C 68 % 1013,0 hPa 0,0 l/m 25,2 km/h (4 Bft) O-NO 61 0 min 0,000 mm 1,2 UV-I 262 W/m 6,9 C 5,3 C 35,4 km/h (5 Bft) 100,00 %
01.05.2016 10:34 12,6 C 68 % 1013,0 hPa 0,0 l/m 22,0 km/h (4 Bft) O-NO 74 0 min 0,000 mm 1,2 UV-I 258 W/m 6,9 C 6,1 C 30,6 km/h (5 Bft) 100,00 %
01.05.2016 10:35 12,5 C 68 % 1013,0 hPa 0,0 l/m 23,6 km/h (4 Bft) O-NO 63 0 min 0,000 mm 1,2 UV-I 254 W/m 6,8 C 5,6 C 27,4 km/h (4 Bft) 100,00 %
01.05.2016 10:36 12,5 C 68 % 1013,0 hPa 0,0 l/m 22,4 km/h (4 Bft) O-NO 63 0 min 0,000 mm 1,1 UV-I 248 W/m 6,8 C 5,9 C 33,8 km/h (5 Bft) 100,00 %
01.05.2016 10:37 12,5 C 69 % 1013,1 hPa 0,0 l/m 19,6 km/h (3 Bft) O-NO 71 0 min 0,000 mm 1,1 UV-I 241 W/m 7,0 C 6,6 C 27,4 km/h (4 Bft) 100,00 %
01.05.2016 10:38 12,4 C 69 % 1013,1 hPa 0,0 l/m 16,7 km/h (3 Bft) O-NO 63 0 min 0,000 mm 1,1 UV-I 235 W/m 6,9 C 7,4 C 25,7 km/h (4 Bft) 100,00 %
01.05.2016 10:39 12,4 C 69 % 1013,1 hPa 0,0 l/m 18,9 km/h (3 Bft) NO 45 0 min 0,000 mm 1,1 UV-I 229 W/m 6,9 C 6,7 C 24,1 km/h (4 Bft) 100,00 %
01.05.2016 10:40 12,4 C 70 % 1013,1 hPa 0,0 l/m 24,4 km/h (4 Bft) O-NO 61 0 min 0,000 mm 1,0 UV-I 223 W/m 7,1 C 5,2 C 33,8 km/h (5 Bft) 100,00 %
01.05.2016 10:41 12,4 C 69 % 1013,0 hPa 0,0 l/m 28,7 km/h (4 Bft) O-NO 71 0 min 0,000 mm 1,0 UV-I 220 W/m 6,9 C 4,3 C 35,4 km/h (5 Bft) 100,00 %
01.05.2016 10:42 12,4 C 69 % 1013,1 hPa 0,0 l/m 22,9 km/h (4 Bft) O 82 0 min 0,000 mm 1,0 UV-I 216 W/m 6,9 C 5,6 C 30,6 km/h (5 Bft) 100,00 %
01.05.2016 10:43 12,4 C 69 % 1013,1 hPa 0,0 l/m 21,8 km/h (4 Bft) NO 56 0 min 0,000 mm 1,0 UV-I 212 W/m 6,9 C 5,9 C 32,2 km/h (5 Bft) 100,00 %
01.05.2016 10:44 12,4 C 69 % 1013,1 hPa 0,0 l/m 26,0 km/h (4 Bft) NO 48 0 min 0,000 mm 1,0 UV-I 209 W/m 6,9 C 4,9 C 32,2 km/h (5 Bft) 100,00 %
01.05.2016 10:45 12,4 C 69 % 1013,1 hPa 0,0 l/m 25,5 km/h (4 Bft) O-NO 67 0 min 0,000 mm 1,0 UV-I 208 W/m 6,9 C 5,0 C 30,6 km/h (5 Bft) 100,00 %
01.05.2016 10:46 12,4 C 68 % 1013,2 hPa 0,0 l/m 26,9 km/h (4 Bft) O-NO 67 0 min 0,000 mm 1,0 UV-I 208 W/m 6,7 C 4,7 C 37,0 km/h (5 Bft) 100,00 %
01.05.2016 10:47 12,4 C 69 % 1013,3 hPa 0,0 l/m 28,1 km/h (4 Bft) NO 36 0 min 0,000 mm 1,0 UV-I 209 W/m 6,9 C 4,4 C 38,6 km/h (5 Bft) 100,00 %
01.05.2016 10:48 12,4 C 69 % 1013,2 hPa 0,0 l/m 23,5 km/h (4 Bft) O-NO 57 0 min 0,000 mm 1,0 UV-I 209 W/m 6,9 C 5,4 C 32,2 km/h (5 Bft) 100,00 %
01.05.2016 10:49 12,4 C 69 % 1013,4 hPa 0,0 l/m 23,7 km/h (4 Bft) NO 40 0 min 0,000 mm 1,0 UV-I 207 W/m 6,9 C 5,4 C 30,6 km/h (5 Bft) 100,00 %
01.05.2016 10:50 12,4 C 69 % 1013,2 hPa 0,0 l/m 22,6 km/h (4 Bft) O-NO 76 0 min 0,000 mm 1,0 UV-I 205 W/m 6,9 C 5,7 C 30,6 km/h (5 Bft) 100,00 %
01.05.2016 10:51 12,4 C 69 % 1013,2 hPa 0,0 l/m 25,7 km/h (4 Bft) O-NO 71 0 min 0,000 mm 1,0 UV-I 206 W/m 6,9 C 4,9 C 35,4 km/h (5 Bft) 100,00 %
01.05.2016 10:52 12,4 C 68 % 1013,2 hPa 0,0 l/m 23,8 km/h (4 Bft) O-NO 58 0 min 0,000 mm 1,0 UV-I 209 W/m 6,7 C 5,4 C 30,6 km/h (5 Bft) 100,00 %
01.05.2016 10:53 12,3 C 68 % 1013,2 hPa 0,0 l/m 22,6 km/h (4 Bft) NO 54 0 min 0,000 mm 1,0 UV-I 213 W/m 6,6 C 5,5 C 35,4 km/h (5 Bft) 100,00 %
01.05.2016 10:54 12,3 C 69 % 1013,2 hPa 0,0 l/m 23,3 km/h (4 Bft) O-NO 67 0 min 0,000 mm 1,0 UV-I 216 W/m 6,8 C 5,4 C 29,0 km/h (5 Bft) 100,00 %
01.05.2016 10:55 12,3 C 69 % 1013,3 hPa 0,0 l/m 24,4 km/h (4 Bft) NO 55 0 min 0,000 mm 1,0 UV-I 218 W/m 6,8 C 5,1 C 32,2 km/h (5 Bft) 100,00 %
01.05.2016 10:56 12,3 C 69 % 1013,3 hPa 0,0 l/m 23,9 km/h (4 Bft) O-NO 59 0 min 0,000 mm 1,0 UV-I 217 W/m 6,8 C 5,2 C 30,6 km/h (5 Bft) 100,00 %
01.05.2016 10:57 12,3 C 69 % 1013,3 hPa 0,0 l/m 27,0 km/h (4 Bft) O-NO 69 0 min 0,000 mm 1,1 UV-I 217 W/m 6,8 C 4,5 C 33,8 km/h (5 Bft) 100,00 %
01.05.2016 10:58 12,3 C 69 % 1013,3 hPa 0,0 l/m 25,7 km/h (4 Bft) O-NO 69 0 min 0,000 mm 1,1 UV-I 220 W/m 6,8 C 4,8 C 33,8 km/h (5 Bft) 100,00 %
01.05.2016 10:59 12,3 C 70 % 1013,3 hPa 0,0 l/m 21,4 km/h (4 Bft) O 85 0 min 0,000 mm 1,1 UV-I 226 W/m 7,0 C 5,9 C 25,7 km/h (4 Bft) 100,00 %
01.05.2016 11:00 12,3 C 70 % 1013,3 hPa 0,0 l/m 22,6 km/h (4 Bft) O-NO 64 0 min 0,229 mm 1,1 UV-I 234 W/m 7,0 C 5,5 C 29,0 km/h (5 Bft) 100,00 %
01.05.2016 11:01 12,3 C 69 % 1013,3 hPa 0,0 l/m 21,2 km/h (4 Bft) O-NO 58 0 min 0,000 mm 1,2 UV-I 238 W/m 6,8 C 5,9 C 27,4 km/h (4 Bft) 100,00 %
01.05.2016 11:02 12,3 C 70 % 1013,3 hPa 0,0 l/m 27,1 km/h (4 Bft) O-NO 74 0 min 0,000 mm 1,2 UV-I 243 W/m 7,0 C 4,5 C 35,4 km/h (5 Bft) 100,00 %
01.05.2016 11:03 12,3 C 69 % 1013,3 hPa 0,0 l/m 24,1 km/h (4 Bft) O-NO 78 0 min 0,000 mm 1,2 UV-I 251 W/m 6,8 C 5,2 C 33,8 km/h (5 Bft) 100,00 %
01.05.2016 11:04 12,3 C 69 % 1013,3 hPa 0,0 l/m 21,7 km/h (4 Bft) NO 40 0 min 0,000 mm 1,3 UV-I 264 W/m 6,8 C 5,8 C 25,7 km/h (4 Bft) 100,00 %
01.05.2016 11:05 12,4 C 69 % 1013,3 hPa 0,0 l/m 25,4 km/h (4 Bft) NO 47 0 min 0,000 mm 1,3 UV-I 277 W/m 6,9 C 5,0 C 32,2 km/h (5 Bft) 100,00 %
01.05.2016 11:06 12,4 C 69 % 1013,3 hPa 0,0 l/m 26,3 km/h (4 Bft) NO 38 0 min 0,000 mm 1,4 UV-I 284 W/m 6,9 C 4,8 C 35,4 km/h (5 Bft) 96,67 %
01.05.2016 11:07 12,4 C 68 % 1013,3 hPa 0,0 l/m 27,0 km/h (4 Bft) NO 49 0 min 0,000 mm 1,4 UV-I 290 W/m 6,7 C 4,6 C 37,0 km/h (5 Bft) 100,00 %
01.05.2016 11:08 12,4 C 68 % 1013,3 hPa 0,0 l/m 26,2 km/h (4 Bft) NO 54 0 min 0,000 mm 1,4 UV-I 292 W/m 6,7 C 4,8 C 33,8 km/h (5 Bft) 100,00 %
01.05.2016 11:09 12,4 C 68 % 1013,3 hPa 0,0 l/m 30,3 km/h (5 Bft) NO 56 0 min 0,000 mm 1,4 UV-I 292 W/m 6,7 C 4,0 C 37,0 km/h (5 Bft) 100,00 %
01.05.2016 11:10 12,4 C 68 % 1013,3 hPa 0,0 l/m 25,4 km/h (4 Bft) NO 53 0 min 0,000 mm 1,4 UV-I 288 W/m 6,7 C 5,0 C 32,2 km/h (5 Bft) 100,00 %
01.05.2016 11:11 12,4 C 68 % 1013,4 hPa 0,0 l/m 16,7 km/h (3 Bft) O 101 0 min 0,000 mm 1,4 UV-I 282 W/m 6,7 C 7,4 C 22,5 km/h (4 Bft) 100,00 %
01.05.2016 11:14 12,4 C 68 % 1013,4 hPa 0,0 l/m 25,7 km/h (4 Bft) NO 53 0 min 0,000 mm 1,3 UV-I 259 W/m 6,7 C 4,9 C 35,4 km/h (5 Bft) 100,00 %
01.05.2016 11:15 12,4 C 68 % 1013,4 hPa 0,0 l/m 29,7 km/h (5 Bft) O-NO 57 0 min 0,000 mm 1,3 UV-I 252 W/m 6,7 C 4,1 C 40,2 km/h (6 Bft) 100,00 %
01.05.2016 11:16 12,4 C 69 % 1013,5 hPa 0,0 l/m 23,5 km/h (4 Bft) NO 53 0 min 0,000 mm 1,2 UV-I 243 W/m 6,9 C 5,4 C 30,6 km/h (5 Bft) 100,00 %
01.05.2016 11:17 12,4 C 69 % 1013,4 hPa 0,0 l/m 18,8 km/h (3 Bft) O-NO 64 0 min 0,000 mm 1,2 UV-I 234 W/m 6,9 C 6,7 C 24,1 km/h (4 Bft) 100,00 %
01.05.2016 11:18 12,4 C 70 % 1013,4 hPa 0,0 l/m 28,2 km/h (4 Bft) O-NO 61 0 min 0,000 mm 1,2 UV-I 228 W/m 7,1 C 4,4 C 33,8 km/h (5 Bft) 100,00 %
01.05.2016 11:19 12,4 C 69 % 1013,4 hPa 0,0 l/m 24,4 km/h (4 Bft) O-NO 59 0 min 0,000 mm 1,2 UV-I 224 W/m 6,9 C 5,2 C 32,2 km/h (5 Bft) 92,31 %
01.05.2016 11:20 12,3 C 69 % 1013,5 hPa 0,0 l/m 24,5 km/h (4 Bft) O-NO 67 0 min 0,000 mm 1,1 UV-I 221 W/m 6,8 C 5,1 C 33,8 km/h (5 Bft) 96,30 %
01.05.2016 11:21 12,3 C 69 % 1013,5 hPa 0,0 l/m 24,5 km/h (4 Bft) O-NO 66 0 min 0,000 mm 1,1 UV-I 215 W/m 6,8 C 5,1 C 29,0 km/h (5 Bft) 100,00 %
01.05.2016 11:22 12,3 C 69 % 1013,5 hPa 0,0 l/m 25,3 km/h (4 Bft) O-NO 72 0 min 0,000 mm 1,1 UV-I 210 W/m 6,8 C 4,9 C 30,6 km/h (5 Bft) 100,00 %
01.05.2016 11:23 12,3 C 69 % 1013,5 hPa 0,0 l/m 22,3 km/h (4 Bft) NO 50 0 min 0,000 mm 1,0 UV-I 200 W/m 6,8 C 5,6 C 30,6 km/h (5 Bft) 96,15 %
01.05.2016 11:24 12,3 C 69 % 1013,6 hPa 0,0 l/m 23,2 km/h (4 Bft) NO 51 0 min 0,000 mm 1,0 UV-I 190 W/m 6,8 C 5,4 C 32,2 km/h (5 Bft) 96,30 %
01.05.2016 11:25 12,3 C 69 % 1013,5 hPa 0,0 l/m 24,8 km/h (4 Bft) O 90 0 min 0,000 mm 0,9 UV-I 182 W/m 6,8 C 5,0 C 30,6 km/h (5 Bft) 95,65 %
01.05.2016 11:26 12,3 C 70 % 1013,5 hPa 0,0 l/m 19,2 km/h (3 Bft) O 84 0 min 0,000 mm 0,9 UV-I 177 W/m 7,0 C 6,5 C 24,1 km/h (4 Bft) 93,33 %
01.05.2016 11:27 12,3 C 70 % 1013,6 hPa 0,0 l/m 21,6 km/h (4 Bft) NO 55 0 min 0,000 mm 0,9 UV-I 175 W/m 7,0 C 5,8 C 29,0 km/h (5 Bft) 100,00 %
01.05.2016 11:28 12,3 C 70 % 1013,5 hPa 0,0 l/m 26,4 km/h (4 Bft) O-NO 65 0 min 0,000 mm 0,9 UV-I 174 W/m 7,0 C 4,6 C 35,4 km/h (5 Bft) 95,65 %
01.05.2016 11:29 12,3 C 69 % 1013,5 hPa 0,0 l/m 21,6 km/h (4 Bft) O 87 0 min 0,000 mm 0,9 UV-I 172 W/m 6,8 C 5,8 C 32,2 km/h (5 Bft) 100,00 %
01.05.2016 11:30 12,3 C 70 % 1013,6 hPa 0,0 l/m 25,1 km/h (4 Bft) O-NO 62 0 min 0,000 mm 0,9 UV-I 172 W/m 7,0 C 4,9 C 30,6 km/h (5 Bft) 92,31 %
01.05.2016 11:31 12,3 C 70 % 1013,6 hPa 0,0 l/m 24,2 km/h (4 Bft) O-NO 69 0 min 0,000 mm 0,9 UV-I 172 W/m 7,0 C 5,1 C 33,8 km/h (5 Bft) 100,00 %
01.05.2016 11:32 12,3 C 70 % 1013,7 hPa 0,0 l/m 22,8 km/h (4 Bft) O 80 0 min 0,000 mm 0,9 UV-I 173 W/m 7,0 C 5,5 C 30,6 km/h (5 Bft) 92,31 %
01.05.2016 11:33 12,3 C 69 % 1013,6 hPa 0,0 l/m 27,6 km/h (4 Bft) O-NO 77 0 min 0,000 mm 0,9 UV-I 174 W/m 6,8 C 4,4 C 38,6 km/h (5 Bft) 96,30 %
01.05.2016 11:34 12,2 C 69 % 1013,6 hPa 0,0 l/m 22,1 km/h (4 Bft) NO 55 0 min 0,000 mm 0,9 UV-I 174 W/m 6,7 C 5,5 C 27,4 km/h (4 Bft) 100,00 %
01.05.2016 11:35 12,2 C 70 % 1013,7 hPa 0,0 l/m 21,6 km/h (4 Bft) O 84 0 min 0,000 mm 0,9 UV-I 174 W/m 6,9 C 5,7 C 27,4 km/h (4 Bft) 91,67 %
01.05.2016 11:36 12,2 C 70 % 1013,6 hPa 0,0 l/m 21,2 km/h (4 Bft) NO 53 0 min 0,000 mm 0,9 UV-I 174 W/m 6,9 C 5,8 C 29,0 km/h (5 Bft) 100,00 %
01.05.2016 11:37 12,2 C 70 % 1013,6 hPa 0,0 l/m 17,5 km/h (3 Bft) O-NO 69 0 min 0,000 mm 0,9 UV-I 174 W/m 6,9 C 6,9 C 22,5 km/h (4 Bft) 96,67 %
01.05.2016 11:38 12,2 C 71 % 1013,7 hPa 0,0 l/m 20,7 km/h (4 Bft) O 80 0 min 0,000 mm 0,9 UV-I 173 W/m 7,1 C 5,9 C 27,4 km/h (4 Bft) 100,00 %
01.05.2016 11:39 12,2 C 70 % 1013,7 hPa 0,0 l/m 24,7 km/h (4 Bft) O-NO 65 0 min 0,000 mm 0,8 UV-I 170 W/m 6,9 C 4,9 C 30,6 km/h (5 Bft) 94,12 %
01.05.2016 11:40 12,2 C 70 % 1013,7 hPa 0,0 l/m 24,5 km/h (4 Bft) O-NO 63 0 min 0,000 mm 0,8 UV-I 167 W/m 6,9 C 4,9 C 32,2 km/h (5 Bft) 97,37 %
01.05.2016 11:41 12,2 C 70 % 1013,7 hPa 0,0 l/m 19,7 km/h (3 Bft) O-NO 57 0 min 0,000 mm 0,8 UV-I 167 W/m 6,9 C 6,2 C 35,4 km/h (5 Bft) 100,00 %
01.05.2016 11:42 12,2 C 70 % 1013,8 hPa 0,0 l/m 20,0 km/h (4 Bft) O 80 0 min 0,000 mm 0,8 UV-I 167 W/m 6,9 C 6,1 C 27,4 km/h (4 Bft) 96,15 %
01.05.2016 11:43 12,1 C 70 % 1013,7 hPa 0,0 l/m 19,5 km/h (3 Bft) O-NO 67 0 min 0,000 mm 0,8 UV-I 165 W/m 6,8 C 6,1 C 27,4 km/h (4 Bft) 100,00 %
01.05.2016 11:44 12,1 C 71 % 1013,8 hPa 0,0 l/m 18,6 km/h (3 Bft) O-NO 71 0 min 0,000 mm 0,8 UV-I 162 W/m 7,0 C 6,4 C 27,4 km/h (4 Bft) 96,67 %
01.05.2016 11:45 12,1 C 71 % 1013,7 hPa 0,0 l/m 20,6 km/h (4 Bft) O-NO 63 0 min 0,000 mm 0,8 UV-I 156 W/m 7,0 C 5,8 C 27,4 km/h (4 Bft) 100,00 %
01.05.2016 11:46 12,1 C 71 % 1013,7 hPa 0,0 l/m 20,2 km/h (4 Bft) O-NO 69 0 min 0,000 mm 0,8 UV-I 151 W/m 7,0 C 5,9 C 24,1 km/h (4 Bft) 96,67 %
01.05.2016 11:47 12,1 C 70 % 1013,7 hPa 0,0 l/m 22,3 km/h (4 Bft) O-NO 69 0 min 0,000 mm 0,7 UV-I 149 W/m 6,8 C 5,4 C 30,6 km/h (5 Bft) 96,55 %
01.05.2016 11:48 12,1 C 71 % 1013,7 hPa 0,0 l/m 19,4 km/h (3 Bft) NO 55 0 min 0,000 mm 0,8 UV-I 150 W/m 7,0 C 6,2 C 22,5 km/h (4 Bft) 100,00 %
01.05.2016 11:49 12,1 C 71 % 1013,8 hPa 0,0 l/m 23,5 km/h (4 Bft) O-NO 59 0 min 0,000 mm 0,8 UV-I 152 W/m 7,0 C 5,0 C 32,2 km/h (5 Bft) 92,31 %
01.05.2016 11:50 12,1 C 71 % 1013,8 hPa 0,0 l/m 18,5 km/h (3 Bft) NO 53 0 min 0,000 mm 0,8 UV-I 154 W/m 7,0 C 6,5 C 24,1 km/h (4 Bft) 100,00 %
01.05.2016 11:51 12,1 C 71 % 1013,8 hPa 0,0 l/m 21,9 km/h (4 Bft) O-NO 58 0 min 0,000 mm 0,8 UV-I 155 W/m 7,0 C 5,5 C 27,4 km/h (4 Bft) 100,00 %
01.05.2016 11:52 12,1 C 71 % 1013,8 hPa 0,0 l/m 25,5 km/h (4 Bft) O 87 0 min 0,000 mm 0,8 UV-I 156 W/m 7,0 C 4,6 C 33,8 km/h (5 Bft) 100,00 %
01.05.2016 11:53 12,1 C 71 % 1013,8 hPa 0,0 l/m 22,5 km/h (4 Bft) O-NO 60 0 min 0,000 mm 0,8 UV-I 158 W/m 7,0 C 5,3 C 30,6 km/h (5 Bft) 100,00 %
01.05.2016 11:54 12,1 C 71 % 1013,8 hPa 0,0 l/m 21,9 km/h (4 Bft) O-NO 76 0 min 0,000 mm 0,8 UV-I 159 W/m 7,0 C 5,5 C 27,4 km/h (4 Bft) 100,00 %
01.05.2016 11:55 12,1 C 71 % 1013,8 hPa 0,0 l/m 18,3 km/h (3 Bft) NO 54 0 min 0,000 mm 0,8 UV-I 163 W/m 7,0 C 6,5 C 25,7 km/h (4 Bft) 96,15 %
01.05.2016 11:56 12,1 C 72 % 1013,9 hPa 0,0 l/m 19,2 km/h (3 Bft) NO 51 0 min 0,000 mm 0,9 UV-I 168 W/m 7,2 C 6,2 C 25,7 km/h (4 Bft) 96,30 %
01.05.2016 11:57 12,1 C 72 % 1013,9 hPa 0,0 l/m 18,8 km/h (3 Bft) NO 51 0 min 0,000 mm 0,9 UV-I 172 W/m 7,2 C 6,4 C 22,5 km/h (4 Bft) 100,00 %
01.05.2016 11:58 12,1 C 72 % 1013,9 hPa 0,0 l/m 18,0 km/h (3 Bft) NO 53 0 min 0,000 mm 0,9 UV-I 174 W/m 7,2 C 6,6 C 22,5 km/h (4 Bft) 100,00 %
01.05.2016 11:59 12,1 C 72 % 1013,9 hPa 0,0 l/m 20,0 km/h (4 Bft) NO 55 0 min 0,000 mm 0,9 UV-I 174 W/m 7,2 C 6,0 C 27,4 km/h (4 Bft) 100,00 %
01.05.2016 12:00 12,1 C 72 % 1013,9 hPa 0,0 l/m 22,7 km/h (4 Bft) NO 54 0 min 0,000 mm 0,9 UV-I 175 W/m 7,2 C 5,2 C 32,2 km/h (5 Bft) 100,00 %
01.05.2016 12:01 12,1 C 72 % 1013,9 hPa 0,0 l/m 18,5 km/h (3 Bft) NO 45 0 min 0,177 mm 0,9 UV-I 175 W/m 7,2 C 6,5 C 22,5 km/h (4 Bft) 96,15 %
01.05.2016 12:02 12,1 C 72 % 1013,9 hPa 0,0 l/m 21,4 km/h (4 Bft) NO 48 0 min 0,000 mm 0,9 UV-I 176 W/m 7,2 C 5,6 C 29,0 km/h (5 Bft) 93,33 %
01.05.2016 12:03 12,1 C 72 % 1014,0 hPa 0,0 l/m 22,4 km/h (4 Bft) NO 44 0 min 0,000 mm 0,9 UV-I 176 W/m 7,2 C 5,3 C 29,0 km/h (5 Bft) 100,00 %
01.05.2016 12:04 12,1 C 72 % 1014,0 hPa 0,0 l/m 21,3 km/h (4 Bft) NO 52 0 min 0,000 mm 0,9 UV-I 174 W/m 7,2 C 5,6 C 29,0 km/h (5 Bft) 100,00 %
01.05.2016 12:05 12,1 C 72 % 1013,9 hPa 0,0 l/m 19,9 km/h (4 Bft) NO 49 0 min 0,000 mm 0,8 UV-I 170 W/m 7,2 C 6,0 C 24,1 km/h (4 Bft) 100,00 %
01.05.2016 12:06 12,1 C 72 % 1014,0 hPa 0,0 l/m 19,2 km/h (3 Bft) O-NO 71 0 min 0,000 mm 0,8 UV-I 164 W/m 7,2 C 6,2 C 22,5 km/h (4 Bft) 100,00 %
01.05.2016 12:07 12,1 C 72 % 1014,0 hPa 0,0 l/m 22,0 km/h (4 Bft) NO 45 0 min 0,000 mm 0,8 UV-I 158 W/m 7,2 C 5,4 C 29,0 km/h (5 Bft) 100,00 %
01.05.2016 12:10 12,0 C 72 % 1014,0 hPa 0,0 l/m 20,9 km/h (4 Bft) O-NO 67 0 min 0,000 mm 0,8 UV-I 152 W/m 7,1 C 5,6 C 29,0 km/h (5 Bft) 97,37 %
01.05.2016 12:11 12,0 C 72 % 1014,0 hPa 0,0 l/m 20,9 km/h (4 Bft) O 86 0 min 0,000 mm 0,8 UV-I 153 W/m 7,1 C 5,6 C 24,1 km/h (4 Bft) 97,67 %
01.05.2016 12:12 12,0 C 73 % 1014,0 hPa 0,0 l/m 15,4 km/h (3 Bft) O-NO 64 0 min 0,000 mm 0,7 UV-I 144 W/m 7,3 C 7,4 C 20,9 km/h (4 Bft) 100,00 %
01.05.2016 12:13 12,0 C 73 % 1014,0 hPa 0,0 l/m 21,5 km/h (4 Bft) NO 47 0 min 0,000 mm 0,7 UV-I 144 W/m 7,3 C 5,4 C 29,0 km/h (5 Bft) 100,00 %
01.05.2016 12:14 11,9 C 73 % 1014,0 hPa 0,0 l/m 19,5 km/h (3 Bft) NO 46 0 min 0,000 mm 0,7 UV-I 144 W/m 7,2 C 5,9 C 27,4 km/h (4 Bft) 96,15 %
01.05.2016 12:15 11,9 C 73 % 1014,0 hPa 0,0 l/m 16,4 km/h (3 Bft) O 80 0 min 0,000 mm 0,7 UV-I 142 W/m 7,2 C 6,9 C 22,5 km/h (4 Bft) 100,00 %
01.05.2016 12:16 11,9 C 73 % 1014,0 hPa 0,0 l/m 20,5 km/h (4 Bft) O-NO 63 0 min 0,000 mm 0,7 UV-I 138 W/m 7,2 C 5,6 C 24,1 km/h (4 Bft) 100,00 %
01.05.2016 12:17 11,9 C 73 % 1014,0 hPa 0,0 l/m 18,7 km/h (3 Bft) O-NO 68 0 min 0,000 mm 0,7 UV-I 132 W/m 7,2 C 6,1 C 25,7 km/h (4 Bft) 100,00 %
01.05.2016 12:18 11,9 C 74 % 1014,0 hPa 0,0 l/m 20,3 km/h (4 Bft) NO 54 0 min 0,000 mm 0,6 UV-I 125 W/m 7,4 C 5,7 C 24,1 km/h (4 Bft) 100,00 %
01.05.2016 12:19 11,9 C 74 % 1014,0 hPa 0,0 l/m 16,8 km/h (3 Bft) O-NO 65 0 min 0,000 mm 0,6 UV-I 119 W/m 7,4 C 6,8 C 22,5 km/h (4 Bft) 100,00 %
01.05.2016 12:20 11,9 C 74 % 1014,0 hPa 0,0 l/m 16,8 km/h (3 Bft) O-NO 58 0 min 0,000 mm 0,6 UV-I 118 W/m 7,4 C 6,8 C 20,9 km/h (4 Bft) 92,31 %
01.05.2016 12:21 11,9 C 74 % 1014,0 hPa 0,0 l/m 17,9 km/h (3 Bft) O-NO 59 0 min 0,000 mm 0,6 UV-I 120 W/m 7,4 C 6,4 C 22,5 km/h (4 Bft) 100,00 %
01.05.2016 12:22 11,9 C 75 % 1014,1 hPa 0,0 l/m 16,1 km/h (3 Bft) O-NO 72 0 min 0,000 mm 0,6 UV-I 122 W/m 7,6 C 7,0 C 20,9 km/h (4 Bft) 100,00 %
01.05.2016 12:23 11,8 C 75 % 1014,0 hPa 0,0 l/m 15,6 km/h (3 Bft) O-NO 70 0 min 0,000 mm 0,6 UV-I 126 W/m 7,5 C 7,1 C 22,5 km/h (4 Bft) 100,00 %
01.05.2016 12:24 11,8 C 75 % 1014,0 hPa 0,0 l/m 16,0 km/h (3 Bft) O 84 0 min 0,000 mm 0,7 UV-I 131 W/m 7,5 C 6,9 C 22,5 km/h (4 Bft) 100,00 %
01.05.2016 12:25 11,8 C 75 % 1014,1 hPa 0,0 l/m 18,8 km/h (3 Bft) O-NO 62 0 min 0,000 mm 0,7 UV-I 136 W/m 7,5 C 6,0 C 25,7 km/h (4 Bft) 100,00 %
01.05.2016 12:26 11,8 C 75 % 1014,0 hPa 0,0 l/m 19,8 km/h (3 Bft) O-NO 65 0 min 0,000 mm 0,8 UV-I 141 W/m 7,5 C 5,7 C 25,7 km/h (4 Bft) 100,00 %
01.05.2016 12:27 11,8 C 75 % 1014,0 hPa 0,0 l/m 18,8 km/h (3 Bft) O-NO 60 0 min 0,000 mm 0,8 UV-I 149 W/m 7,5 C 6,0 C 25,7 km/h (4 Bft) 100,00 %
01.05.2016 12:28 11,8 C 76 % 1014,0 hPa 0,0 l/m 22,4 km/h (4 Bft) O-NO 59 0 min 0,000 mm 0,8 UV-I 160 W/m 7,7 C 4,9 C 27,4 km/h (4 Bft) 100,00 %
01.05.2016 12:29 11,8 C 76 % 1014,0 hPa 0,0 l/m 22,2 km/h (4 Bft) O-NO 67 0 min 0,000 mm 0,9 UV-I 164 W/m 7,7 C 5,0 C 29,0 km/h (5 Bft) 100,00 %
01.05.2016 12:30 11,8 C 76 % 1014,0 hPa 0,0 l/m 18,0 km/h (3 Bft) NO 38 0 min 0,000 mm 0,9 UV-I 168 W/m 7,7 C 6,2 C 25,7 km/h (4 Bft) 100,00 %
01.05.2016 12:31 11,7 C 76 % 1014,0 hPa 0,0 l/m 18,0 km/h (3 Bft) NO 51 0 min 0,000 mm 0,9 UV-I 167 W/m 7,6 C 6,1 C 22,5 km/h (4 Bft) 100,00 %
01.05.2016 12:32 11,7 C 76 % 1014,1 hPa 0,0 l/m 19,2 km/h (3 Bft) NO 45 0 min 0,000 mm 0,9 UV-I 163 W/m 7,6 C 5,7 C 27,4 km/h (4 Bft) 100,00 %
01.05.2016 12:33 11,7 C 76 % 1014,0 hPa 0,0 l/m 24,7 km/h (4 Bft) O-NO 59 0 min 0,000 mm 0,9 UV-I 162 W/m 7,6 C 4,2 C 30,6 km/h (5 Bft) 90,91 %
01.05.2016 12:34 11,7 C 76 % 1014,1 hPa 0,0 l/m 21,0 km/h (4 Bft) O-NO 61 0 min 0,000 mm 0,9 UV-I 160 W/m 7,6 C 5,2 C 27,4 km/h (4 Bft) 96,30 %
01.05.2016 12:35 11,7 C 76 % 1014,1 hPa 0,0 l/m 24,1 km/h (4 Bft) O-NO 63 0 min 0,000 mm 0,9 UV-I 160 W/m 7,6 C 4,4 C 29,0 km/h (5 Bft) 100,00 %
01.05.2016 12:36 11,7 C 76 % 1014,0 hPa 0,0 l/m 20,1 km/h (4 Bft) O-NO 73 0 min 0,000 mm 0,9 UV-I 162 W/m 7,6 C 5,5 C 27,4 km/h (4 Bft) 100,00 %
01.05.2016 12:37 11,7 C 76 % 1014,0 hPa 0,0 l/m 24,7 km/h (4 Bft) O-NO 78 0 min 0,000 mm 0,9 UV-I 164 W/m 7,6 C 4,2 C 29,0 km/h (5 Bft) 92,31 %
01.05.2016 12:38 11,7 C 77 % 1014,0 hPa 0,0 l/m 19,4 km/h (3 Bft) NO 55 0 min 0,000 mm 0,9 UV-I 167 W/m 7,8 C 5,7 C 25,7 km/h (4 Bft) 100,00 %
01.05.2016 12:39 11,7 C 77 % 1014,0 hPa 0,0 l/m 15,8 km/h (3 Bft) O-NO 61 0 min 0,000 mm 0,9 UV-I 169 W/m 7,8 C 6,9 C 20,9 km/h (4 Bft) 100,00 %
01.05.2016 12:40 11,7 C 77 % 1014,1 hPa 0,0 l/m 10,7 km/h (2 Bft) O-NO 75 0 min 0,000 mm 0,9 UV-I 168 W/m 7,8 C 9,1 C 17,7 km/h (3 Bft) 100,00 %
01.05.2016 12:41 11,7 C 78 % 1014,0 hPa 0,0 l/m 17,5 km/h (3 Bft) O-NO 61 0 min 0,000 mm 0,9 UV-I 164 W/m 8,0 C 6,3 C 24,1 km/h (4 Bft) 100,00 %
01.05.2016 12:42 11,7 C 76 % 1014,0 hPa 0,0 l/m 19,3 km/h (3 Bft) NO 40 0 min 0,000 mm 0,9 UV-I 158 W/m 7,6 C 5,7 C 25,7 km/h (4 Bft) 95,65 %
01.05.2016 12:43 11,7 C 76 % 1014,0 hPa 0,0 l/m 22,1 km/h (4 Bft) NO 53 0 min 0,000 mm 0,8 UV-I 151 W/m 7,6 C 4,9 C 27,4 km/h (4 Bft) 100,00 %
01.05.2016 12:44 11,7 C 76 % 1014,0 hPa 0,0 l/m 19,2 km/h (3 Bft) O-NO 63 0 min 0,000 mm 0,8 UV-I 145 W/m 7,6 C 5,7 C 25,7 km/h (4 Bft) 96,15 %
01.05.2016 12:45 11,7 C 76 % 1014,1 hPa 0,0 l/m 16,8 km/h (3 Bft) NO 44 0 min 0,000 mm 0,7 UV-I 138 W/m 7,6 C 6,5 C 22,5 km/h (4 Bft) 100,00 %
01.05.2016 12:46 11,7 C 76 % 1014,1 hPa 0,0 l/m 19,1 km/h (3 Bft) O-NO 64 0 min 0,000 mm 0,7 UV-I 128 W/m 7,6 C 5,8 C 24,1 km/h (4 Bft) 100,00 %
01.05.2016 12:47 11,7 C 76 % 1014,1 hPa 0,0 l/m 15,6 km/h (3 Bft) O-NO 59 0 min 0,000 mm 0,7 UV-I 120 W/m 7,6 C 7,0 C 19,3 km/h (3 Bft) 100,00 %
01.05.2016 12:48 11,7 C 76 % 1014,1 hPa 0,0 l/m 15,2 km/h (3 Bft) O-NO 59 0 min 0,000 mm 0,6 UV-I 115 W/m 7,6 C 7,1 C 19,3 km/h (3 Bft) 100,00 %
01.05.2016 12:49 11,7 C 75 % 1014,2 hPa 0,0 l/m 17,9 km/h (3 Bft) O-NO 71 0 min 0,000 mm 0,6 UV-I 110 W/m 7,4 C 6,1 C 22,5 km/h (4 Bft) 100,00 %
01.05.2016 12:50 11,7 C 76 % 1014,1 hPa 0,0 l/m 20,0 km/h (4 Bft) O-NO 58 0 min 0,000 mm 0,6 UV-I 105 W/m 7,6 C 5,5 C 24,1 km/h (4 Bft) 93,33 %
01.05.2016 12:51 11,7 C 75 % 1014,1 hPa 0,0 l/m 17,9 km/h (3 Bft) O-NO 57 0 min 0,000 mm 0,6 UV-I 102 W/m 7,4 C 6,1 C 22,5 km/h (4 Bft) 100,00 %
01.05.2016 12:52 11,7 C 76 % 1014,1 hPa 0,0 l/m 17,3 km/h (3 Bft) NO 53 0 min 0,000 mm 0,6 UV-I 106 W/m 7,6 C 6,4 C 22,5 km/h (4 Bft) 100,00 %
01.05.2016 12:53 11,7 C 76 % 1014,1 hPa 0,0 l/m 18,1 km/h (3 Bft) O-NO 63 0 min 0,000 mm 0,6 UV-I 111 W/m 7,6 C 6,1 C 22,5 km/h (4 Bft) 100,00 %
01.05.2016 12:54 11,7 C 77 % 1014,1 hPa 0,0 l/m 15,9 km/h (3 Bft) NO 53 0 min 0,000 mm 0,6 UV-I 114 W/m 7,8 C 6,9 C 22,5 km/h (4 Bft) 96,15 %
01.05.2016 12:55 11,7 C 76 % 1014,1 hPa 0,0 l/m 18,2 km/h (3 Bft) O-NO 57 0 min 0,000 mm 0,6 UV-I 115 W/m 7,6 C 6,0 C 27,4 km/h (4 Bft) 100,00 %
01.05.2016 12:56 11,7 C 76 % 1014,2 hPa 0,0 l/m 21,5 km/h (4 Bft) O-NO 73 0 min 0,000 mm 0,6 UV-I 118 W/m 7,6 C 5,0 C 27,4 km/h (4 Bft) 95,65 %
01.05.2016 12:57 11,7 C 76 % 1014,1 hPa 0,0 l/m 21,7 km/h (4 Bft) NO 49 0 min 0,000 mm 0,6 UV-I 116 W/m 7,6 C 5,0 C 27,4 km/h (4 Bft) 100,00 %
01.05.2016 12:58 11,7 C 76 % 1014,2 hPa 0,0 l/m 21,9 km/h (4 Bft) O-NO 74 0 min 0,000 mm 0,6 UV-I 116 W/m 7,6 C 4,9 C 27,4 km/h (4 Bft) 100,00 %
01.05.2016 12:59 11,7 C 76 % 1014,2 hPa 0,0 l/m 19,6 km/h (3 Bft) O-NO 76 0 min 0,000 mm 0,6 UV-I 117 W/m 7,6 C 5,6 C 25,7 km/h (4 Bft) 100,00 %
01.05.2016 13:00 11,7 C 76 % 1014,2 hPa 0,0 l/m 16,4 km/h (3 Bft) O-NO 74 0 min 0,000 mm 0,6 UV-I 118 W/m 7,6 C 6,7 C 22,5 km/h (4 Bft) 100,00 %
01.05.2016 13:01 11,7 C 77 % 1014,3 hPa 0,0 l/m 13,0 km/h (3 Bft) O-NO 63 0 min 0,127 mm 0,6 UV-I 118 W/m 7,8 C 8,0 C 16,1 km/h (3 Bft) 100,00 %
01.05.2016 13:02 11,7 C 77 % 1014,3 hPa 0,0 l/m 15,7 km/h (3 Bft) NO 42 0 min 0,000 mm 0,6 UV-I 116 W/m 7,8 C 6,9 C 19,3 km/h (3 Bft) 96,15 %
01.05.2016 13:03 11,6 C 76 % 1014,3 hPa 0,0 l/m 15,6 km/h (3 Bft) O-NO 58 0 min 0,000 mm 0,6 UV-I 116 W/m 7,5 C 6,8 C 22,5 km/h (4 Bft) 100,00 %
01.05.2016 13:04 11,6 C 77 % 1014,3 hPa 0,0 l/m 19,5 km/h (3 Bft) O-NO 59 0 min 0,000 mm 0,6 UV-I 119 W/m 7,7 C 5,5 C 24,1 km/h (4 Bft) 100,00 %
01.05.2016 13:05 11,6 C 77 % 1014,3 hPa 0,0 l/m 20,0 km/h (4 Bft) O-NO 61 0 min 0,000 mm 0,7 UV-I 122 W/m 7,7 C 5,4 C 24,1 km/h (4 Bft) 92,31 %
01.05.2016 13:06 11,6 C 77 % 1014,3 hPa 0,0 l/m 17,9 km/h (3 Bft) O-NO 57 0 min 0,000 mm 0,7 UV-I 127 W/m 7,7 C 6,0 C 20,9 km/h (4 Bft) 100,00 %
01.05.2016 13:07 11,6 C 77 % 1014,3 hPa 0,0 l/m 15,5 km/h (3 Bft) O-NO 67 0 min 0,000 mm 0,7 UV-I 128 W/m 7,7 C 6,9 C 19,3 km/h (3 Bft) 100,00 %
01.05.2016 13:08 11,6 C 78 % 1014,4 hPa 0,0 l/m 13,9 km/h (3 Bft) NO 43 0 min 0,000 mm 0,7 UV-I 128 W/m 7,9 C 7,5 C 17,7 km/h (3 Bft) 100,00 %
01.05.2016 13:09 11,6 C 78 % 1014,4 hPa 0,0 l/m 18,7 km/h (3 Bft) O-NO 72 0 min 0,000 mm 0,7 UV-I 128 W/m 7,9 C 5,8 C 24,1 km/h (4 Bft) 95,65 %
01.05.2016 13:10 11,6 C 77 % 1014,4 hPa 0,0 l/m 15,9 km/h (3 Bft) O-NO 69 0 min 0,000 mm 0,7 UV-I 128 W/m 7,7 C 6,7 C 19,3 km/h (3 Bft) 100,00 %
01.05.2016 13:11 11,6 C 77 % 1014,4 hPa 0,0 l/m 12,4 km/h (3 Bft) NO 54 0 min 0,000 mm 0,7 UV-I 127 W/m 7,7 C 8,2 C 20,9 km/h (4 Bft) 100,00 %
01.05.2016 13:12 11,6 C 78 % 1014,4 hPa 0,0 l/m 14,2 km/h (3 Bft) O-NO 64 0 min 0,000 mm 0,7 UV-I 127 W/m 7,9 C 7,4 C 20,9 km/h (4 Bft) 100,00 %
01.05.2016 13:13 11,6 C 78 % 1014,4 hPa 0,2 l/m 15,5 km/h (3 Bft) NO 55 0 min 0,000 mm 0,7 UV-I 128 W/m 7,9 C 6,9 C 20,9 km/h (4 Bft) 100,00 %
01.05.2016 13:14 11,6 C 79 % 1014,4 hPa 0,0 l/m 11,7 km/h (2 Bft) O-NO 68 0 min 0,000 mm 0,7 UV-I 130 W/m 8,1 C 8,5 C 17,7 km/h (3 Bft) 100,00 %
01.05.2016 13:15 11,6 C 79 % 1014,4 hPa 0,0 l/m 13,5 km/h (3 Bft) O-NO 71 0 min 0,000 mm 0,7 UV-I 134 W/m 8,1 C 7,7 C 17,7 km/h (3 Bft) 92,31 %
01.05.2016 13:16 11,5 C 80 % 1014,4 hPa 0,0 l/m 16,6 km/h (3 Bft) O-NO 71 0 min 0,000 mm 0,7 UV-I 137 W/m 8,2 C 6,3 C 27,4 km/h (4 Bft) 100,00 %
01.05.2016 13:17 11,5 C 78 % 1014,4 hPa 0,0 l/m 21,4 km/h (4 Bft) O-NO 60 0 min 0,000 mm 0,8 UV-I 140 W/m 7,8 C 4,8 C 30,6 km/h (5 Bft) 95,65 %
01.05.2016 13:18 11,5 C 78 % 1014,4 hPa 0,0 l/m 20,8 km/h (4 Bft) O 96 0 min 0,000 mm 0,8 UV-I 143 W/m 7,8 C 5,0 C 25,7 km/h (4 Bft) 100,00 %
01.05.2016 13:19 11,5 C 78 % 1014,4 hPa 0,0 l/m 20,0 km/h (4 Bft) O-NO 61 0 min 0,000 mm 0,8 UV-I 146 W/m 7,8 C 5,2 C 25,7 km/h (4 Bft) 96,15 %
01.05.2016 13:20 11,5 C 78 % 1014,5 hPa 0,0 l/m 20,8 km/h (4 Bft) O-NO 74 0 min 0,000 mm 0,8 UV-I 148 W/m 7,8 C 5,0 C 27,4 km/h (4 Bft) 100,00 %
01.05.2016 13:21 11,5 C 78 % 1014,5 hPa 0,0 l/m 19,6 km/h (3 Bft) NO 53 0 min 0,000 mm 0,8 UV-I 149 W/m 7,8 C 5,3 C 24,1 km/h (4 Bft) 92,86 %
01.05.2016 13:22 11,4 C 79 % 1014,5 hPa 0,0 l/m 14,8 km/h (3 Bft) NO 51 0 min 0,000 mm 0,8 UV-I 148 W/m 7,9 C 6,9 C 22,5 km/h (4 Bft) 96,30 %
01.05.2016 13:23 11,4 C 80 % 1014,5 hPa 0,0 l/m 12,4 km/h (3 Bft) O-NO 63 0 min 0,000 mm 0,8 UV-I 148 W/m 8,1 C 7,9 C 17,7 km/h (3 Bft) 96,15 %
01.05.2016 13:24 11,4 C 80 % 1014,5 hPa 0,0 l/m 15,2 km/h (3 Bft) O 90 0 min 0,000 mm 0,8 UV-I 147 W/m 8,1 C 6,8 C 17,7 km/h (3 Bft) 96,30 %
01.05.2016 13:25 11,4 C 80 % 1014,5 hPa 0,0 l/m 14,0 km/h (3 Bft) O-NO 76 0 min 0,000 mm 0,8 UV-I 142 W/m 8,1 C 7,2 C 16,1 km/h (3 Bft) 100,00 %
01.05.2016 13:26 11,4 C 80 % 1014,6 hPa 0,0 l/m 18,7 km/h (3 Bft) O-NO 59 0 min 0,000 mm 0,8 UV-I 135 W/m 8,1 C 5,5 C 25,7 km/h (4 Bft) 96,15 %
01.05.2016 13:27 11,3 C 80 % 1014,5 hPa 0,0 l/m 20,1 km/h (4 Bft) O-NO 69 0 min 0,000 mm 0,7 UV-I 132 W/m 8,0 C 4,9 C 25,7 km/h (4 Bft) 100,00 %
01.05.2016 13:28 11,3 C 80 % 1014,5 hPa 0,0 l/m 18,3 km/h (3 Bft) O-NO 58 0 min 0,000 mm 0,7 UV-I 131 W/m 8,0 C 5,5 C 20,9 km/h (4 Bft) 94,44 %
01.05.2016 13:29 11,3 C 80 % 1014,6 hPa 0,0 l/m 19,1 km/h (3 Bft) O-NO 75 0 min 0,000 mm 0,7 UV-I 133 W/m 8,0 C 5,2 C 24,1 km/h (4 Bft) 100,00 %
01.05.2016 13:30 11,3 C 80 % 1014,6 hPa 0,0 l/m 14,6 km/h (3 Bft) O-NO 63 0 min 0,000 mm 0,7 UV-I 134 W/m 8,0 C 6,9 C 19,3 km/h (3 Bft) 91,30 %
01.05.2016 13:31 11,3 C 80 % 1014,6 hPa 0,0 l/m 18,7 km/h (3 Bft) O-NO 67 0 min 0,000 mm 0,7 UV-I 135 W/m 8,0 C 5,4 C 22,5 km/h (4 Bft) 96,30 %
01.05.2016 13:32 11,3 C 80 % 1014,6 hPa 0,0 l/m 13,6 km/h (3 Bft) O-NO 61 0 min 0,000 mm 0,7 UV-I 135 W/m 8,0 C 7,3 C 17,7 km/h (3 Bft) 92,86 %
01.05.2016 13:33 11,3 C 80 % 1014,6 hPa 0,0 l/m 14,7 km/h (3 Bft) O-NO 71 0 min 0,000 mm 0,8 UV-I 139 W/m 8,0 C 6,8 C 17,7 km/h (3 Bft) 100,00 %
01.05.2016 13:34 11,3 C 81 % 1014,7 hPa 0,2 l/m 11,6 km/h (2 Bft) O-NO 60 0 min 0,000 mm 0,8 UV-I 141 W/m 8,2 C 8,2 C 14,5 km/h (3 Bft) 96,15 %
01.05.2016 13:35 11,3 C 81 % 1014,6 hPa 0,0 l/m 13,9 km/h (3 Bft) O-NO 69 0 min 0,000 mm 0,8 UV-I 143 W/m 8,2 C 7,2 C 19,3 km/h (3 Bft) 96,67 %
01.05.2016 13:36 11,3 C 80 % 1014,6 hPa 0,0 l/m 15,4 km/h (3 Bft) O-NO 57 0 min 0,000 mm 0,8 UV-I 145 W/m 8,0 C 6,6 C 19,3 km/h (3 Bft) 100,00 %
01.05.2016 13:37 11,3 C 81 % 1014,7 hPa 0,0 l/m 13,6 km/h (3 Bft) O-NO 61 0 min 0,000 mm 0,8 UV-I 148 W/m 8,2 C 7,3 C 17,7 km/h (3 Bft) 93,33 %
01.05.2016 13:38 11,3 C 80 % 1014,6 hPa 0,0 l/m 14,6 km/h (3 Bft) NO 46 0 min 0,000 mm 0,9 UV-I 153 W/m 8,0 C 6,9 C 19,3 km/h (3 Bft) 100,00 %
01.05.2016 13:39 11,3 C 81 % 1014,7 hPa 0,0 l/m 13,0 km/h (3 Bft) NO 49 0 min 0,000 mm 0,9 UV-I 158 W/m 8,2 C 7,6 C 19,3 km/h (3 Bft) 95,83 %
01.05.2016 13:40 11,3 C 81 % 1014,7 hPa 0,0 l/m 23,4 km/h (4 Bft) NO 49 0 min 0,000 mm 0,9 UV-I 164 W/m 8,2 C 4,0 C 32,2 km/h (5 Bft) 95,65 %
01.05.2016 13:41 11,3 C 81 % 1014,7 hPa 0,0 l/m 16,2 km/h (3 Bft) NO 53 0 min 0,000 mm 0,9 UV-I 171 W/m 8,2 C 6,2 C 25,7 km/h (4 Bft) 100,00 %
01.05.2016 13:42 11,3 C 81 % 1014,7 hPa 0,0 l/m 18,5 km/h (3 Bft) O-NO 65 0 min 0,000 mm 1,0 UV-I 179 W/m 8,2 C 5,4 C 25,7 km/h (4 Bft) 95,65 %
01.05.2016 13:43 11,2 C 81 % 1014,7 hPa 0,0 l/m 21,1 km/h (4 Bft) O-NO 63 0 min 0,000 mm 1,0 UV-I 187 W/m 8,1 C 4,5 C 25,7 km/h (4 Bft) 100,00 %
01.05.2016 13:44 11,2 C 81 % 1014,7 hPa 0,0 l/m 15,2 km/h (3 Bft) NO 50 0 min 0,000 mm 1,1 UV-I 199 W/m 8,1 C 6,5 C 19,3 km/h (3 Bft) 96,67 %
01.05.2016 13:45 11,2 C 81 % 1014,7 hPa 0,0 l/m 16,3 km/h (3 Bft) O-NO 61 0 min 0,000 mm 1,1 UV-I 208 W/m 8,1 C 6,1 C 22,5 km/h (4 Bft) 100,00 %
01.05.2016 13:46 11,2 C 82 % 1014,7 hPa 0,0 l/m 16,3 km/h (3 Bft) NO 55 0 min 0,000 mm 1,1 UV-I 213 W/m 8,2 C 6,1 C 25,7 km/h (4 Bft) 91,67 %
01.05.2016 13:47 11,2 C 81 % 1014,7 hPa 0,0 l/m 14,5 km/h (3 Bft) O-NO 70 0 min 0,000 mm 1,2 UV-I 217 W/m 8,1 C 6,8 C 22,5 km/h (4 Bft) 100,00 %
01.05.2016 13:48 11,2 C 82 % 1014,7 hPa 0,2 l/m 14,7 km/h (3 Bft) O 80 0 min 0,000 mm 1,2 UV-I 219 W/m 8,2 C 6,7 C 17,7 km/h (3 Bft) 96,30 %
01.05.2016 13:49 11,2 C 82 % 1014,7 hPa 0,0 l/m 16,0 km/h (3 Bft) O-NO 73 0 min 0,000 mm 1,2 UV-I 218 W/m 8,2 C 6,2 C 19,3 km/h (3 Bft) 100,00 %
01.05.2016 13:50 11,2 C 82 % 1014,7 hPa 0,0 l/m 15,0 km/h (3 Bft) NO 49 0 min 0,000 mm 1,2 UV-I 216 W/m 8,2 C 6,6 C 19,3 km/h (3 Bft) 100,00 %
01.05.2016 13:51 11,2 C 82 % 1014,7 hPa 0,0 l/m 18,0 km/h (3 Bft) O 90 0 min 0,000 mm 1,2 UV-I 213 W/m 8,2 C 5,5 C 20,9 km/h (4 Bft) 100,00 %
01.05.2016 13:52 11,2 C 82 % 1014,7 hPa 0,0 l/m 16,9 km/h (3 Bft) O-NO 69 0 min 0,000 mm 1,2 UV-I 210 W/m 8,2 C 5,9 C 19,3 km/h (3 Bft) 100,00 %
01.05.2016 13:53 11,2 C 82 % 1014,8 hPa 0,0 l/m 14,5 km/h (3 Bft) O-NO 60 0 min 0,000 mm 1,1 UV-I 206 W/m 8,2 C 6,8 C 25,7 km/h (4 Bft) 95,65 %
01.05.2016 13:54 11,2 C 82 % 1014,7 hPa 0,0 l/m 18,8 km/h (3 Bft) O-NO 62 0 min 0,000 mm 1,1 UV-I 201 W/m 8,2 C 5,2 C 22,5 km/h (4 Bft) 100,00 %
01.05.2016 13:55 11,2 C 82 % 1014,8 hPa 0,0 l/m 16,4 km/h (3 Bft) O-NO 66 0 min 0,000 mm 1,1 UV-I 197 W/m 8,2 C 6,1 C 22,5 km/h (4 Bft) 100,00 %
01.05.2016 13:56 11,2 C 83 % 1014,7 hPa 0,0 l/m 12,7 km/h (3 Bft) O 83 0 min 0,000 mm 1,1 UV-I 199 W/m 8,4 C 7,6 C 19,3 km/h (3 Bft) 100,00 %
01.05.2016 13:57 11,2 C 83 % 1014,7 hPa 0,2 l/m 13,8 km/h (3 Bft) O-NO 64 0 min 0,000 mm 1,1 UV-I 198 W/m 8,4 C 7,1 C 22,5 km/h (4 Bft) 100,00 %
01.05.2016 13:58 11,2 C 84 % 1014,7 hPa 0,0 l/m 15,2 km/h (3 Bft) NO 49 0 min 0,000 mm 1,1 UV-I 191 W/m 8,6 C 6,5 C 19,3 km/h (3 Bft) 100,00 %
01.05.2016 13:59 11,2 C 84 % 1014,7 hPa 0,0 l/m 14,9 km/h (3 Bft) O-NO 60 0 min 0,000 mm 1,1 UV-I 186 W/m 8,6 C 6,6 C 19,3 km/h (3 Bft) 100,00 %
01.05.2016 14:00 11,2 C 84 % 1014,7 hPa 0,0 l/m 10,5 km/h (2 Bft) NO 55 0 min 0,102 mm 1,1 UV-I 185 W/m 8,6 C 8,7 C 16,1 km/h (3 Bft) 100,00 %
01.05.2016 14:01 11,2 C 84 % 1014,8 hPa 0,0 l/m 13,5 km/h (3 Bft) O-NO 74 0 min 0,000 mm 1,1 UV-I 188 W/m 8,6 C 7,2 C 19,3 km/h (3 Bft) 95,65 %
01.05.2016 14:02 11,2 C 84 % 1014,7 hPa 0,0 l/m 14,1 km/h (3 Bft) O 90 0 min 0,000 mm 1,1 UV-I 192 W/m 8,6 C 7,0 C 19,3 km/h (3 Bft) 100,00 %
01.05.2016 14:03 11,2 C 85 % 1014,7 hPa 0,2 l/m 12,6 km/h (3 Bft) NO 54 0 min 0,000 mm 1,1 UV-I 191 W/m 8,8 C 7,6 C 22,5 km/h (4 Bft) 100,00 %
01.05.2016 14:04 11,2 C 84 % 1014,7 hPa 0,0 l/m 18,3 km/h (3 Bft) O-NO 61 0 min 0,000 mm 1,1 UV-I 187 W/m 8,6 C 5,4 C 25,7 km/h (4 Bft) 100,00 %
01.05.2016 14:05 11,2 C 84 % 1014,8 hPa 0,0 l/m 16,6 km/h (3 Bft) O-NO 71 0 min 0,000 mm 1,1 UV-I 184 W/m 8,6 C 6,0 C 22,5 km/h (4 Bft) 100,00 %
01.05.2016 14:06 11,1 C 84 % 1014,7 hPa 0,0 l/m 17,8 km/h (3 Bft) O-NO 63 0 min 0,000 mm 1,0 UV-I 184 W/m 8,5 C 5,4 C 20,9 km/h (4 Bft) 91,67 %
01.05.2016 14:07 11,1 C 85 % 1014,7 hPa 0,0 l/m 15,0 km/h (3 Bft) NO 56 0 min 0,000 mm 1,1 UV-I 185 W/m 8,7 C 6,5 C 16,1 km/h (3 Bft) 100,00 %
01.05.2016 14:08 11,1 C 85 % 1014,8 hPa 0,0 l/m 14,6 km/h (3 Bft) NO 44 0 min 0,000 mm 1,1 UV-I 185 W/m 8,7 C 6,6 C 19,3 km/h (3 Bft) 100,00 %
01.05.2016 14:09 11,1 C 85 % 1014,7 hPa 0,0 l/m 10,7 km/h (2 Bft) NO 38 0 min 0,000 mm 1,0 UV-I 182 W/m 8,7 C 8,4 C 14,5 km/h (3 Bft) 100,00 %
01.05.2016 14:10 11,1 C 86 % 1014,7 hPa 0,2 l/m 15,5 km/h (3 Bft) NO 49 0 min 0,000 mm 1,0 UV-I 175 W/m 8,8 C 6,3 C 19,3 km/h (3 Bft) 100,00 %
01.05.2016 14:11 11,1 C 86 % 1014,8 hPa 0,0 l/m 15,0 km/h (3 Bft) O-NO 61 0 min 0,000 mm 0,9 UV-I 163 W/m 8,8 C 6,5 C 20,9 km/h (4 Bft) 100,00 %
01.05.2016 14:12 11,1 C 85 % 1014,8 hPa 0,0 l/m 18,1 km/h (3 Bft) O-NO 61 0 min 0,000 mm 0,9 UV-I 152 W/m 8,7 C 5,3 C 22,5 km/h (4 Bft) 100,00 %
01.05.2016 14:13 11,0 C 85 % 1014,8 hPa 0,0 l/m 17,5 km/h (3 Bft) O-NO 61 0 min 0,000 mm 0,8 UV-I 143 W/m 8,6 C 5,4 C 20,9 km/h (4 Bft) 100,00 %
01.05.2016 14:14 11,0 C 85 % 1014,8 hPa 0,0 l/m 14,7 km/h (3 Bft) O-NO 59 0 min 0,000 mm 0,8 UV-I 138 W/m 8,6 C 6,5 C 19,3 km/h (3 Bft) 100,00 %
01.05.2016 14:15 10,9 C 86 % 1014,8 hPa 0,0 l/m 11,4 km/h (2 Bft) O-NO 69 0 min 0,000 mm 0,8 UV-I 133 W/m 8,7 C 7,8 C 16,1 km/h (3 Bft) 98,56 %
01.05.2016 14:16 10,9 C 86 % 1014,8 hPa 0,2 l/m 16,9 km/h (3 Bft) O-NO 60 0 min 0,000 mm 0,8 UV-I 130 W/m 8,7 C 5,5 C 22,5 km/h (4 Bft) 97,56 %
01.05.2016 14:17 10,9 C 86 % 1014,8 hPa 0,0 l/m 12,8 km/h (3 Bft) NO 40 0 min 0,000 mm 0,7 UV-I 126 W/m 8,7 C 7,2 C 17,7 km/h (3 Bft) 100,00 %
01.05.2016 14:18 10,8 C 86 % 1014,7 hPa 0,0 l/m 12,9 km/h (3 Bft) O-NO 57 0 min 0,000 mm 0,7 UV-I 123 W/m 8,6 C 7,0 C 19,3 km/h (3 Bft) 100,00 %
01.05.2016 14:19 10,8 C 86 % 1014,8 hPa 0,0 l/m 13,8 km/h (3 Bft) N-NO 30 0 min 0,000 mm 0,7 UV-I 123 W/m 8,6 C 6,6 C 17,7 km/h (3 Bft) 100,00 %
01.05.2016 14:20 10,8 C 87 % 1014,7 hPa 0,0 l/m 16,8 km/h (3 Bft) NO 42 0 min 0,000 mm 0,7 UV-I 124 W/m 8,7 C 5,4 C 20,9 km/h (4 Bft) 93,33 %
01.05.2016 14:21 10,8 C 87 % 1014,7 hPa 0,0 l/m 14,4 km/h (3 Bft) NO 36 0 min 0,000 mm 0,7 UV-I 126 W/m 8,7 C 6,4 C 20,9 km/h (4 Bft) 100,00 %
01.05.2016 14:22 10,8 C 87 % 1014,7 hPa 0,0 l/m 12,3 km/h (3 Bft) NO 44 0 min 0,000 mm 0,7 UV-I 129 W/m 8,7 C 7,3 C 16,1 km/h (3 Bft) 100,00 %
01.05.2016 14:23 10,8 C 87 % 1014,7 hPa 0,0 l/m 11,3 km/h (2 Bft) O-NO 61 0 min 0,000 mm 0,7 UV-I 131 W/m 8,7 C 7,8 C 16,1 km/h (3 Bft) 100,00 %
01.05.2016 14:24 10,8 C 88 % 1014,7 hPa 0,0 l/m 9,7 km/h (2 Bft) NO 44 0 min 0,000 mm 0,7 UV-I 130 W/m 8,9 C 8,6 C 14,5 km/h (3 Bft) 100,00 %
01.05.2016 14:25 10,7 C 89 % 1014,7 hPa 0,0 l/m 11,1 km/h (2 Bft) N-NO 28 0 min 0,000 mm 0,7 UV-I 128 W/m 9,0 C 7,8 C 17,7 km/h (3 Bft) 100,00 %
01.05.2016 14:26 10,7 C 89 % 1014,7 hPa 0,0 l/m 20,5 km/h (4 Bft) O-NO 57 0 min 0,000 mm 0,7 UV-I 126 W/m 9,0 C 4,0 C 24,1 km/h (4 Bft) 100,00 %
01.05.2016 14:27 10,7 C 89 % 1014,7 hPa 0,2 l/m 14,8 km/h (3 Bft) NO 49 0 min 0,000 mm 0,7 UV-I 122 W/m 9,0 C 6,1 C 20,9 km/h (4 Bft) 96,55 %
01.05.2016 14:28 10,7 C 89 % 1014,7 hPa 0,0 l/m 9,3 km/h (2 Bft) NO 36 0 min 0,000 mm 0,6 UV-I 117 W/m 9,0 C 8,8 C 14,5 km/h (3 Bft) 100,00 %
01.05.2016 14:29 10,7 C 89 % 1014,7 hPa 0,0 l/m 14,7 km/h (3 Bft) N-NO 28 0 min 0,000 mm 0,6 UV-I 114 W/m 9,0 C 6,1 C 22,5 km/h (4 Bft) 100,00 %
01.05.2016 14:30 10,7 C 89 % 1014,7 hPa 0,0 l/m 11,5 km/h (2 Bft) N-NO 30 0 min 0,000 mm 0,6 UV-I 109 W/m 9,0 C 7,6 C 14,5 km/h (3 Bft) 100,00 %
01.05.2016 14:31 10,7 C 89 % 1014,7 hPa 0,0 l/m 14,9 km/h (3 Bft) NO 42 0 min 0,000 mm 0,6 UV-I 109 W/m 9,0 C 6,0 C 20,9 km/h (4 Bft) 100,00 %
01.05.2016 14:32 10,7 C 89 % 1014,8 hPa 0,0 l/m 13,4 km/h (3 Bft) NO 41 0 min 0,000 mm 0,6 UV-I 110 W/m 9,0 C 6,7 C 17,7 km/h (3 Bft) 100,00 %
01.05.2016 14:33 10,7 C 89 % 1014,8 hPa 0,0 l/m 10,9 km/h (2 Bft) N-NO 26 0 min 0,000 mm 0,6 UV-I 113 W/m 9,0 C 7,9 C 14,5 km/h (3 Bft) 100,00 %
01.05.2016 14:34 10,7 C 90 % 1014,8 hPa 0,0 l/m 10,4 km/h (2 Bft) O-NO 60 0 min 0,000 mm 0,6 UV-I 115 W/m 9,1 C 8,1 C 14,5 km/h (3 Bft) 100,00 %
01.05.2016 14:35 10,7 C 90 % 1014,7 hPa 0,0 l/m 18,1 km/h (3 Bft) N-NO 21 0 min 0,000 mm 0,6 UV-I 118 W/m 9,1 C 4,8 C 25,7 km/h (4 Bft) 100,00 %
01.05.2016 14:36 10,6 C 89 % 1014,7 hPa 0,0 l/m 15,4 km/h (3 Bft) N-NO 13 0 min 0,000 mm 0,6 UV-I 118 W/m 8,9 C 5,7 C 25,7 km/h (4 Bft) 100,00 %
01.05.2016 14:37 10,6 C 89 % 1014,8 hPa 0,2 l/m 15,9 km/h (3 Bft) NO 44 0 min 0,000 mm 0,6 UV-I 118 W/m 8,9 C 5,5 C 24,1 km/h (4 Bft) 98,59 %
01.05.2016 14:38 10,6 C 90 % 1014,8 hPa 0,0 l/m 16,4 km/h (3 Bft) N-NO 19 0 min 0,000 mm 0,6 UV-I 120 W/m 9,0 C 5,3 C 22,5 km/h (4 Bft) 97,56 %
01.05.2016 14:39 10,6 C 90 % 1014,8 hPa 0,0 l/m 19,7 km/h (3 Bft) NO 44 0 min 0,000 mm 0,6 UV-I 122 W/m 9,0 C 4,2 C 25,7 km/h (4 Bft) 100,00 %
01.05.2016 14:40 10,6 C 90 % 1014,8 hPa 0,0 l/m 18,7 km/h (3 Bft) NO 39 0 min 0,000 mm 0,6 UV-I 123 W/m 9,0 C 4,5 C 24,1 km/h (4 Bft) 100,00 %
01.05.2016 14:41 10,6 C 90 % 1014,8 hPa 0,0 l/m 15,9 km/h (3 Bft) NO 38 0 min 0,000 mm 0,7 UV-I 125 W/m 9,0 C 5,5 C 22,5 km/h (4 Bft) 95,65 %
01.05.2016 14:42 10,6 C 90 % 1014,8 hPa 0,0 l/m 15,0 km/h (3 Bft) O-NO 57 0 min 0,000 mm 0,7 UV-I 125 W/m 9,0 C 5,9 C 19,3 km/h (3 Bft) 100,00 %
01.05.2016 14:43 10,5 C 90 % 1014,8 hPa 0,0 l/m 17,0 km/h (3 Bft) NO 34 0 min 0,000 mm 0,7 UV-I 127 W/m 8,9 C 5,0 C 20,9 km/h (4 Bft) 100,00 %
01.05.2016 14:44 10,6 C 90 % 1014,8 hPa 0,2 l/m 17,5 km/h (3 Bft) NO 41 0 min 0,000 mm 0,7 UV-I 127 W/m 9,0 C 4,9 C 22,5 km/h (4 Bft) 100,00 %
01.05.2016 14:45 10,5 C 90 % 1014,8 hPa 0,0 l/m 12,2 km/h (2 Bft) NO 38 0 min 0,000 mm 0,7 UV-I 127 W/m 8,9 C 7,0 C 16,1 km/h (3 Bft) 100,00 %
01.05.2016 14:46 10,5 C 90 % 1014,8 hPa 0,0 l/m 13,8 km/h (3 Bft) NO 38 0 min 0,000 mm 0,7 UV-I 127 W/m 8,9 C 6,3 C 20,9 km/h (4 Bft) 100,00 %
01.05.2016 14:47 10,6 C 90 % 1014,8 hPa 0,0 l/m 16,3 km/h (3 Bft) N-NO 22 0 min 0,000 mm 0,7 UV-I 127 W/m 9,0 C 5,3 C 22,5 km/h (4 Bft) 100,00 %
01.05.2016 14:48 10,5 C 90 % 1014,8 hPa 0,0 l/m 17,1 km/h (3 Bft) NO 36 0 min 0,000 mm 0,7 UV-I 127 W/m 8,9 C 4,9 C 24,1 km/h (4 Bft) 96,88 %
01.05.2016 14:49 10,6 C 90 % 1014,8 hPa 0,0 l/m 16,5 km/h (3 Bft) N-NO 32 0 min 0,000 mm 0,7 UV-I 125 W/m 9,0 C 5,3 C 20,9 km/h (4 Bft) 96,30 %
01.05.2016 14:50 10,6 C 90 % 1014,8 hPa 0,0 l/m 14,8 km/h (3 Bft) N-NO 17 0 min 0,000 mm 0,6 UV-I 125 W/m 9,0 C 5,9 C 19,3 km/h (3 Bft) 100,00 %
01.05.2016 14:51 10,6 C 90 % 1014,8 hPa 0,0 l/m 20,1 km/h (4 Bft) O-NO 60 0 min 0,000 mm 0,6 UV-I 124 W/m 9,0 C 4,0 C 29,0 km/h (5 Bft) 100,00 %
01.05.2016 14:52 10,6 C 90 % 1014,9 hPa 0,0 l/m 11,9 km/h (2 Bft) NO 51 0 min 0,000 mm 0,6 UV-I 122 W/m 9,0 C 7,3 C 16,1 km/h (3 Bft) 100,00 %
01.05.2016 14:53 10,6 C 89 % 1014,9 hPa 0,2 l/m 11,7 km/h (2 Bft) NO 52 0 min 0,000 mm 0,6 UV-I 120 W/m 8,9 C 7,4 C 17,7 km/h (3 Bft) 96,30 %
01.05.2016 14:54 10,6 C 89 % 1014,9 hPa 0,0 l/m 16,0 km/h (3 Bft) NO 44 0 min 0,000 mm 0,6 UV-I 120 W/m 8,9 C 5,5 C 20,9 km/h (4 Bft) 96,15 %
01.05.2016 14:55 10,6 C 89 % 1014,9 hPa 0,0 l/m 13,8 km/h (3 Bft) NO 34 0 min 0,000 mm 0,6 UV-I 120 W/m 8,9 C 6,4 C 17,7 km/h (3 Bft) 100,00 %
01.05.2016 14:56 10,6 C 89 % 1014,9 hPa 0,0 l/m 11,3 km/h (2 Bft) NO 45 0 min 0,000 mm 0,6 UV-I 123 W/m 8,9 C 7,6 C 16,1 km/h (3 Bft) 100,00 %
01.05.2016 14:57 10,6 C 90 % 1014,9 hPa 0,0 l/m 16,5 km/h (3 Bft) NO 42 0 min 0,000 mm 0,7 UV-I 128 W/m 9,0 C 5,3 C 24,1 km/h (4 Bft) 100,00 %
01.05.2016 14:58 10,6 C 90 % 1014,9 hPa 0,0 l/m 13,6 km/h (3 Bft) O-NO 65 0 min 0,000 mm 0,7 UV-I 131 W/m 9,0 C 6,5 C 17,7 km/h (3 Bft) 96,15 %
01.05.2016 14:59 10,6 C 90 % 1014,9 hPa 0,0 l/m 16,1 km/h (3 Bft) NO 50 0 min 0,000 mm 0,7 UV-I 132 W/m 9,0 C 5,4 C 19,3 km/h (3 Bft) 100,00 %
01.05.2016 15:00 10,6 C 90 % 1014,9 hPa 0,0 l/m 14,6 km/h (3 Bft) N-NO 32 0 min 0,000 mm 0,7 UV-I 130 W/m 9,0 C 6,0 C 24,1 km/h (4 Bft) 100,00 %
01.05.2016 15:01 10,6 C 90 % 1014,9 hPa 0,0 l/m 15,0 km/h (3 Bft) NO 52 0 min 0,076 mm 0,7 UV-I 126 W/m 9,0 C 5,9 C 19,3 km/h (3 Bft) 96,15 %
01.05.2016 15:02 10,6 C 89 % 1014,9 hPa 0,0 l/m 12,9 km/h (3 Bft) NO 45 0 min 0,000 mm 0,6 UV-I 121 W/m 8,9 C 6,8 C 16,1 km/h (3 Bft) 100,00 %
01.05.2016 15:03 10,6 C 89 % 1015,0 hPa 0,0 l/m 16,0 km/h (3 Bft) O-NO 61 0 min 0,000 mm 0,6 UV-I 119 W/m 8,9 C 5,5 C 20,9 km/h (4 Bft) 100,00 %
01.05.2016 15:04 10,6 C 89 % 1014,9 hPa 0,0 l/m 9,7 km/h (2 Bft) NO 47 0 min 0,000 mm 0,6 UV-I 116 W/m 8,9 C 8,4 C 16,1 km/h (3 Bft) 100,00 %
01.05.2016 15:05 10,6 C 89 % 1014,9 hPa 0,0 l/m 13,9 km/h (3 Bft) NO 45 0 min 0,000 mm 0,6 UV-I 114 W/m 8,9 C 6,3 C 17,7 km/h (3 Bft) 100,00 %
01.05.2016 15:06 10,6 C 90 % 1015,0 hPa 0,0 l/m 9,9 km/h (2 Bft) O-NO 59 0 min 0,000 mm 0,6 UV-I 114 W/m 9,0 C 8,3 C 14,5 km/h (3 Bft) 100,00 %
01.05.2016 15:07 10,6 C 90 % 1015,0 hPa 0,0 l/m 13,9 km/h (3 Bft) NO 47 0 min 0,000 mm 0,6 UV-I 113 W/m 9,0 C 6,3 C 20,9 km/h (4 Bft) 100,00 %
01.05.2016 15:08 10,6 C 89 % 1015,0 hPa 0,0 l/m 10,6 km/h (2 Bft) NO 43 0 min 0,000 mm 0,6 UV-I 114 W/m 8,9 C 7,9 C 14,5 km/h (3 Bft) 96,30 %
01.05.2016 15:09 10,5 C 89 % 1015,0 hPa 0,0 l/m 12,2 km/h (2 Bft) O-NO 63 0 min 0,000 mm 0,6 UV-I 114 W/m 8,8 C 7,0 C 17,7 km/h (3 Bft) 100,00 %
01.05.2016 15:10 10,6 C 89 % 1015,0 hPa 0,0 l/m 11,5 km/h (2 Bft) N-NO 24 0 min 0,000 mm 0,6 UV-I 116 W/m 8,9 C 7,5 C 16,1 km/h (3 Bft) 100,00 %
01.05.2016 15:11 10,6 C 90 % 1015,0 hPa 0,2 l/m 13,4 km/h (3 Bft) N-NO 28 0 min 0,000 mm 0,6 UV-I 116 W/m 9,0 C 6,5 C 19,3 km/h (3 Bft) 100,00 %
01.05.2016 15:12 10,6 C 90 % 1015,0 hPa 0,0 l/m 14,8 km/h (3 Bft) NO 46 0 min 0,000 mm 0,6 UV-I 118 W/m 9,0 C 5,9 C 17,7 km/h (3 Bft) 96,55 %
01.05.2016 15:13 10,5 C 90 % 1015,0 hPa 0,0 l/m 15,8 km/h (3 Bft) NO 36 0 min 0,000 mm 0,6 UV-I 118 W/m 8,9 C 5,4 C 19,3 km/h (3 Bft) 100,00 %
01.05.2016 15:14 10,5 C 90 % 1015,0 hPa 0,0 l/m 13,4 km/h (3 Bft) NO 55 0 min 0,000 mm 0,6 UV-I 117 W/m 8,9 C 6,4 C 17,7 km/h (3 Bft) 91,67 %
01.05.2016 15:15 10,5 C 91 % 1015,0 hPa 0,0 l/m 10,7 km/h (2 Bft) NO 42 0 min 0,000 mm 0,6 UV-I 116 W/m 9,1 C 7,8 C 14,5 km/h (3 Bft) 100,00 %
01.05.2016 15:16 10,5 C 90 % 1015,0 hPa 0,0 l/m 10,6 km/h (2 Bft) NO 41 0 min 0,000 mm 0,6 UV-I 115 W/m 8,9 C 7,8 C 22,5 km/h (4 Bft) 96,67 %
01.05.2016 15:17 10,5 C 90 % 1015,0 hPa 0,0 l/m 13,3 km/h (3 Bft) NO 38 0 min 0,000 mm 0,6 UV-I 113 W/m 8,9 C 6,5 C 17,7 km/h (3 Bft) 95,65 %
01.05.2016 15:18 10,5 C 90 % 1015,0 hPa 0,0 l/m 13,9 km/h (3 Bft) NO 34 0 min 0,000 mm 0,5 UV-I 110 W/m 8,9 C 6,2 C 19,3 km/h (3 Bft) 100,00 %
01.05.2016 15:19 10,5 C 90 % 1015,1 hPa 0,0 l/m 14,9 km/h (3 Bft) NO 37 0 min 0,000 mm 0,5 UV-I 107 W/m 8,9 C 5,8 C 22,5 km/h (4 Bft) 98,59 %
01.05.2016 15:20 10,5 C 90 % 1015,0 hPa 0,0 l/m 15,4 km/h (3 Bft) NO 44 0 min 0,000 mm 0,5 UV-I 104 W/m 8,9 C 5,6 C 22,5 km/h (4 Bft) 97,56 %
01.05.2016 15:21 10,5 C 90 % 1015,0 hPa 0,0 l/m 11,4 km/h (2 Bft) NO 42 0 min 0,000 mm 0,5 UV-I 102 W/m 8,9 C 7,4 C 16,1 km/h (3 Bft) 96,55 %
01.05.2016 15:22 10,5 C 90 % 1015,0 hPa 0,2 l/m 14,6 km/h (3 Bft) NO 43 0 min 0,000 mm 0,5 UV-I 100 W/m 8,9 C 5,9 C 20,9 km/h (4 Bft) 95,83 %
01.05.2016 15:23 10,5 C 90 % 1015,0 hPa 0,0 l/m 13,6 km/h (3 Bft) N-NO 32 0 min 0,000 mm 0,5 UV-I 100 W/m 8,9 C 6,3 C 17,7 km/h (3 Bft) 95,65 %
01.05.2016 15:24 10,5 C 90 % 1015,0 hPa 0,0 l/m 10,6 km/h (2 Bft) NO 45 0 min 0,000 mm 0,5 UV-I 100 W/m 8,9 C 7,8 C 19,3 km/h (3 Bft) 91,67 %
01.05.2016 15:25 10,5 C 91 % 1015,0 hPa 0,0 l/m 11,5 km/h (2 Bft) NO 35 0 min 0,000 mm 0,5 UV-I 102 W/m 9,1 C 7,3 C 17,7 km/h (3 Bft) 96,30 %
01.05.2016 15:26 10,5 C 91 % 1015,1 hPa 0,0 l/m 10,9 km/h (2 Bft) NO 34 0 min 0,000 mm 0,5 UV-I 107 W/m 9,1 C 7,7 C 16,1 km/h (3 Bft) 96,15 %
01.05.2016 15:27 10,5 C 91 % 1015,0 hPa 0,0 l/m 13,1 km/h (3 Bft) N-NO 29 0 min 0,000 mm 0,6 UV-I 112 W/m 9,1 C 6,6 C 16,1 km/h (3 Bft) 100,00 %
01.05.2016 15:28 10,5 C 91 % 1015,0 hPa 0,0 l/m 8,5 km/h (2 Bft) NO 53 0 min 0,000 mm 0,6 UV-I 116 W/m 9,1 C 9,1 C 14,5 km/h (3 Bft) 93,33 %
01.05.2016 15:29 10,5 C 91 % 1015,0 hPa 0,0 l/m 16,3 km/h (3 Bft) NO 54 0 min 0,000 mm 0,6 UV-I 118 W/m 9,1 C 5,2 C 20,9 km/h (4 Bft) 100,00 %
01.05.2016 15:30 10,5 C 91 % 1015,0 hPa 0,0 l/m 12,9 km/h (3 Bft) NO 50 0 min 0,000 mm 0,6 UV-I 120 W/m 9,1 C 6,7 C 19,3 km/h (3 Bft) 95,65 %
01.05.2016 15:31 10,5 C 91 % 1015,0 hPa 0,0 l/m 14,8 km/h (3 Bft) N-NO 30 0 min 0,000 mm 0,6 UV-I 122 W/m 9,1 C 5,8 C 17,7 km/h (3 Bft) 100,00 %
01.05.2016 15:32 10,5 C 91 % 1015,0 hPa 0,2 l/m 11,5 km/h (2 Bft) N-NO 19 0 min 0,000 mm 0,6 UV-I 123 W/m 9,1 C 7,3 C 16,1 km/h (3 Bft) 93,10 %
01.05.2016 15:33 10,5 C 91 % 1015,0 hPa 0,0 l/m 14,4 km/h (3 Bft) NO 44 0 min 0,000 mm 0,6 UV-I 124 W/m 9,1 C 6,0 C 17,7 km/h (3 Bft) 95,83 %
01.05.2016 15:34 10,5 C 91 % 1015,0 hPa 0,0 l/m 8,9 km/h (2 Bft) N-NO 23 0 min 0,000 mm 0,6 UV-I 125 W/m 9,1 C 8,8 C 14,5 km/h (3 Bft) 100,00 %
01.05.2016 15:35 10,5 C 91 % 1015,0 hPa 0,0 l/m 7,5 km/h (2 Bft) N-NO 13 0 min 0,000 mm 0,6 UV-I 123 W/m 9,1 C 9,7 C 9,7 km/h (2 Bft) 92,59 %
01.05.2016 15:36 10,6 C 92 % 1015,0 hPa 0,0 l/m 7,3 km/h (2 Bft) NO 46 0 min 0,000 mm 0,6 UV-I 121 W/m 9,4 C 10,0 C 9,7 km/h (2 Bft) 100,00 %
01.05.2016 15:37 10,6 C 92 % 1015,0 hPa 0,0 l/m 8,6 km/h (2 Bft) N-NO 32 0 min 0,000 mm 0,6 UV-I 120 W/m 9,4 C 9,1 C 12,9 km/h (3 Bft) 95,83 %
01.05.2016 15:38 10,6 C 92 % 1015,0 hPa 0,0 l/m 10,3 km/h (2 Bft) N-NO 18 0 min 0,000 mm 0,6 UV-I 120 W/m 9,4 C 8,1 C 14,5 km/h (3 Bft) 100,00 %
01.05.2016 15:39 10,6 C 92 % 1015,0 hPa 0,2 l/m 6,6 km/h (2 Bft) NO 46 0 min 0,000 mm 0,6 UV-I 121 W/m 9,4 C 10,5 C 9,7 km/h (2 Bft) 96,15 %
01.05.2016 15:40 10,6 C 92 % 1015,0 hPa 0,0 l/m 10,9 km/h (2 Bft) N-NO 22 0 min 0,000 mm 0,6 UV-I 124 W/m 9,4 C 7,8 C 14,5 km/h (3 Bft) 100,00 %
01.05.2016 15:41 10,6 C 92 % 1015,0 hPa 0,0 l/m 9,7 km/h (2 Bft) N-NO 17 0 min 0,000 mm 0,7 UV-I 130 W/m 9,4 C 8,4 C 14,5 km/h (3 Bft) 96,15 %
01.05.2016 15:42 10,6 C 92 % 1015,0 hPa 0,0 l/m 9,9 km/h (2 Bft) NO 46 0 min 0,000 mm 0,7 UV-I 132 W/m 9,4 C 8,3 C 14,5 km/h (3 Bft) 96,15 %
01.05.2016 15:43 10,6 C 92 % 1015,0 hPa 0,0 l/m 11,1 km/h (2 Bft) N-NO 28 0 min 0,000 mm 0,7 UV-I 130 W/m 9,4 C 7,7 C 16,1 km/h (3 Bft) 100,00 %
01.05.2016 15:44 10,6 C 92 % 1015,0 hPa 0,0 l/m 9,8 km/h (2 Bft) N-NO 18 0 min 0,000 mm 0,6 UV-I 124 W/m 9,4 C 8,4 C 16,1 km/h (3 Bft) 93,33 %
01.05.2016 15:45 10,6 C 92 % 1015,0 hPa 0,0 l/m 11,8 km/h (2 Bft) N-NO 28 0 min 0,000 mm 0,6 UV-I 116 W/m 9,4 C 7,3 C 17,7 km/h (3 Bft) 100,00 %
01.05.2016 15:46 10,6 C 92 % 1015,1 hPa 0,0 l/m 10,9 km/h (2 Bft) N-NO 28 0 min 0,000 mm 0,5 UV-I 106 W/m 9,4 C 7,8 C 16,1 km/h (3 Bft) 100,00 %
01.05.2016 15:47 10,6 C 92 % 1015,1 hPa 0,0 l/m 5,9 km/h (2 Bft) NO 36 0 min 0,000 mm 0,5 UV-I 96 W/m 9,4 C 10,6 C 9,7 km/h (2 Bft) 100,00 %
01.05.2016 15:48 10,6 C 92 % 1015,1 hPa 0,0 l/m 7,7 km/h (2 Bft) N-NO 30 0 min 0,000 mm 0,4 UV-I 87 W/m 9,4 C 9,7 C 12,9 km/h (3 Bft) 100,00 %
01.05.2016 15:49 10,6 C 92 % 1015,1 hPa 0,0 l/m 6,5 km/h (2 Bft) N-NO 22 0 min 0,000 mm 0,0 UV-I 84 W/m 9,4 C 10,6 C 11,3 km/h (2 Bft) 95,65 %
01.05.2016 15:50 10,6 C 92 % 1015,1 hPa 0,0 l/m 6,6 km/h (2 Bft) N-NO 30 0 min 0,000 mm 0,0 UV-I 83 W/m 9,4 C 10,5 C 9,7 km/h (2 Bft) 100,00 %
01.05.2016 15:51 10,6 C 92 % 1015,1 hPa 0,0 l/m 8,5 km/h (2 Bft) N-NO 27 0 min 0,000 mm 0,0 UV-I 83 W/m 9,4 C 9,2 C 14,5 km/h (3 Bft) 100,00 %
01.05.2016 15:52 10,6 C 92 % 1015,1 hPa 0,0 l/m 5,3 km/h (1 Bft) N-NO 26 0 min 0,000 mm 0,0 UV-I 83 W/m 9,4 C 10,6 C 8,0 km/h (2 Bft) 100,00 %
01.05.2016 15:53 10,6 C 92 % 1015,1 hPa 0,0 l/m 5,7 km/h (1 Bft) N-NO 19 0 min 0,000 mm 0,0 UV-I 83 W/m 9,4 C 10,6 C 8,0 km/h (2 Bft) 100,00 %
01.05.2016 15:54 10,6 C 92 % 1015,1 hPa 0,0 l/m 4,6 km/h (1 Bft) N-NO 28 0 min 0,000 mm 0,0 UV-I 81 W/m 9,4 C 10,6 C 8,0 km/h (2 Bft) 100,00 %
01.05.2016 15:55 10,5 C 92 % 1015,1 hPa 0,0 l/m 3,9 km/h (1 Bft) N-NO 16 0 min 0,000 mm 0,0 UV-I 81 W/m 9,3 C 10,5 C 8,0 km/h (2 Bft) 100,00 %
01.05.2016 15:56 10,6 C 92 % 1015,1 hPa 0,0 l/m 5,9 km/h (2 Bft) N-NW 329 0 min 0,000 mm 0,0 UV-I 81 W/m 9,4 C 10,6 C 11,3 km/h (2 Bft) 100,00 %
01.05.2016 15:57 10,6 C 93 % 1015,1 hPa 0,0 l/m 6,2 km/h (2 Bft) N-NW 348 0 min 0,000 mm 0,0 UV-I 82 W/m 9,5 C 10,6 C 12,9 km/h (3 Bft) 96,55 %
01.05.2016 15:58 10,6 C 92 % 1015,1 hPa 0,0 l/m 6,3 km/h (2 Bft) NO 36 0 min 0,000 mm 0,0 UV-I 83 W/m 9,4 C 10,6 C 12,9 km/h (3 Bft) 100,00 %
01.05.2016 15:59 10,5 C 92 % 1015,1 hPa 0,0 l/m 8,0 km/h (2 Bft) N-NO 17 0 min 0,000 mm 0,0 UV-I 84 W/m 9,3 C 9,4 C 12,9 km/h (3 Bft) 91,67 %
01.05.2016 16:00 10,5 C 92 % 1015,1 hPa 0,0 l/m 4,8 km/h (1 Bft) N 11 0 min 0,051 mm 0,0 UV-I 84 W/m 9,3 C 10,5 C 12,9 km/h (3 Bft) 100,00 %
01.05.2016 16:01 10,5 C 92 % 1015,1 hPa 0,0 l/m 3,5 km/h (1 Bft) N-NO 30 0 min 0,000 mm 0,0 UV-I 84 W/m 9,3 C 10,5 C 8,0 km/h (2 Bft) 100,00 %
01.05.2016 16:02 10,5 C 93 % 1015,0 hPa 0,0 l/m 3,9 km/h (1 Bft) N-NO 28 0 min 0,000 mm 0,0 UV-I 83 W/m 9,4 C 10,5 C 9,7 km/h (2 Bft) 100,00 %
01.05.2016 16:03 10,5 C 93 % 1015,0 hPa 0,0 l/m 7,0 km/h (2 Bft) N-NO 30 0 min 0,000 mm 0,0 UV-I 81 W/m 9,4 C 10,1 C 16,1 km/h (3 Bft) 100,00 %
01.05.2016 16:04 10,5 C 92 % 1015,1 hPa 0,0 l/m 6,0 km/h (2 Bft) N-NO 24 0 min 0,000 mm 0,0 UV-I 77 W/m 9,3 C 10,5 C 12,9 km/h (3 Bft) 100,00 %
01.05.2016 16:05 10,5 C 92 % 1015,1 hPa 0,0 l/m 4,1 km/h (1 Bft) N 11 0 min 0,000 mm 0,0 UV-I 76 W/m 9,3 C 10,5 C 8,0 km/h (2 Bft) 100,00 %
01.05.2016 16:06 10,5 C 92 % 1015,1 hPa 0,0 l/m 3,9 km/h (1 Bft) N-NO 29 0 min 0,000 mm 0,0 UV-I 75 W/m 9,3 C 10,5 C 6,4 km/h (2 Bft) 100,00 %
01.05.2016 16:07 10,5 C 92 % 1015,1 hPa 0,0 l/m 3,9 km/h (1 Bft) N 11 0 min 0,000 mm 0,0 UV-I 76 W/m 9,3 C 10,5 C 6,4 km/h (2 Bft) 100,00 %
01.05.2016 16:08 10,5 C 92 % 1015,1 hPa 0,0 l/m 5,3 km/h (1 Bft) N-NO 32 0 min 0,000 mm 0,0 UV-I 76 W/m 9,3 C 10,5 C 11,3 km/h (2 Bft) 100,00 %
01.05.2016 16:09 10,5 C 92 % 1015,1 hPa 0,0 l/m 6,9 km/h (2 Bft) N-NO 27 0 min 0,000 mm 0,0 UV-I 76 W/m 9,3 C 10,2 C 12,9 km/h (3 Bft) 100,00 %
01.05.2016 16:10 10,5 C 92 % 1015,1 hPa 0,0 l/m 6,0 km/h (2 Bft) N-NO 28 0 min 0,000 mm 0,0 UV-I 76 W/m 9,3 C 10,5 C 11,3 km/h (2 Bft) 100,00 %
01.05.2016 16:11 10,5 C 93 % 1015,1 hPa 0,0 l/m 6,9 km/h (2 Bft) N-NW 334 0 min 0,000 mm 0,0 UV-I 76 W/m 9,4 C 10,2 C 9,7 km/h (2 Bft) 95,83 %
01.05.2016 16:12 10,5 C 93 % 1015,2 hPa 0,0 l/m 4,1 km/h (1 Bft) N-NO 24 0 min 0,000 mm 0,0 UV-I 76 W/m 9,4 C 10,5 C 9,7 km/h (2 Bft) 100,00 %
01.05.2016 16:13 10,6 C 93 % 1015,1 hPa 0,0 l/m 4,9 km/h (1 Bft) NO 52 0 min 0,000 mm 0,0 UV-I 76 W/m 9,5 C 10,6 C 8,0 km/h (2 Bft) 100,00 %
01.05.2016 16:14 10,5 C 93 % 1015,2 hPa 0,0 l/m 6,4 km/h (2 Bft) NO 34 0 min 0,000 mm 0,0 UV-I 77 W/m 9,4 C 10,5 C 8,0 km/h (2 Bft) 100,00 %
01.05.2016 16:15 10,6 C 93 % 1015,2 hPa 0,0 l/m 3,5 km/h (1 Bft) N 355 0 min 0,000 mm 0,0 UV-I 79 W/m 9,5 C 10,6 C 8,0 km/h (2 Bft) 96,30 %
01.05.2016 16:16 10,6 C 93 % 1015,2 hPa 0,0 l/m 2,8 km/h (1 Bft) N-NO 17 0 min 0,000 mm 0,0 UV-I 83 W/m 9,5 C 10,6 C 8,0 km/h (2 Bft) 96,15 %
01.05.2016 16:17 10,6 C 93 % 1015,2 hPa 0,0 l/m 3,0 km/h (1 Bft) N 355 0 min 0,000 mm 0,0 UV-I 84 W/m 9,5 C 10,6 C 8,0 km/h (2 Bft) 100,00 %
01.05.2016 16:18 10,6 C 93 % 1015,2 hPa 0,2 l/m 3,4 km/h (1 Bft) N 5 0 min 0,000 mm 0,0 UV-I 85 W/m 9,5 C 10,6 C 6,4 km/h (2 Bft) 100,00 %
01.05.2016 16:19 10,6 C 93 % 1015,2 hPa 0,0 l/m 5,1 km/h (1 Bft) N 5 0 min 0,000 mm 0,0 UV-I 86 W/m 9,5 C 10,6 C 12,9 km/h (3 Bft) 100,00 %
01.05.2016 16:20 10,6 C 93 % 1015,2 hPa 0,0 l/m 4,3 km/h (1 Bft) N-NO 23 0 min 0,000 mm 0,0 UV-I 86 W/m 9,5 C 10,6 C 9,7 km/h (2 Bft) 100,00 %
01.05.2016 16:21 10,6 C 93 % 1015,2 hPa 0,0 l/m 3,5 km/h (1 Bft) N 5 0 min 0,000 mm 0,0 UV-I 86 W/m 9,5 C 10,6 C 6,4 km/h (2 Bft) 92,31 %
01.05.2016 16:22 10,6 C 93 % 1015,2 hPa 0,0 l/m 3,9 km/h (1 Bft) N-NO 22 0 min 0,000 mm 0,0 UV-I 86 W/m 9,5 C 10,6 C 6,4 km/h (2 Bft) 100,00 %
01.05.2016 16:23 10,6 C 93 % 1015,2 hPa 0,0 l/m 3,3 km/h (1 Bft) N 5 0 min 0,000 mm 0,0 UV-I 86 W/m 9,5 C 10,6 C 6,4 km/h (2 Bft) 100,00 %
01.05.2016 16:24 10,6 C 93 % 1015,2 hPa 0,0 l/m 5,1 km/h (1 Bft) N-NO 16 0 min 0,000 mm 0,0 UV-I 86 W/m 9,5 C 10,6 C 9,7 km/h (2 Bft) 100,00 %
01.05.2016 16:25 10,6 C 93 % 1015,2 hPa 0,0 l/m 6,1 km/h (2 Bft) NO 49 0 min 0,000 mm 0,0 UV-I 86 W/m 9,5 C 10,6 C 11,3 km/h (2 Bft) 100,00 %
01.05.2016 16:26 10,6 C 93 % 1015,2 hPa 0,0 l/m 7,0 km/h (2 Bft) N-NO 18 0 min 0,000 mm 0,0 UV-I 86 W/m 9,5 C 10,2 C 16,1 km/h (3 Bft) 96,30 %
01.05.2016 16:27 10,6 C 93 % 1015,2 hPa 0,2 l/m 3,0 km/h (1 Bft) N-NO 22 0 min 0,000 mm 0,0 UV-I 89 W/m 9,5 C 10,6 C 4,8 km/h (1 Bft) 95,65 %
01.05.2016 16:28 10,6 C 93 % 1015,3 hPa 0,0 l/m 3,6 km/h (1 Bft) NO 38 0 min 0,000 mm 0,0 UV-I 91 W/m 9,5 C 10,6 C 8,0 km/h (2 Bft) 100,00 %
01.05.2016 16:29 10,6 C 93 % 1015,2 hPa 0,0 l/m 2,8 km/h (1 Bft) N-NO 15 0 min 0,000 mm 0,0 UV-I 93 W/m 9,5 C 10,6 C 6,4 km/h (2 Bft) 100,00 %
01.05.2016 16:30 10,6 C 93 % 1015,3 hPa 0,0 l/m 4,9 km/h (1 Bft) N-NO 13 0 min 0,000 mm 0,0 UV-I 93 W/m 9,5 C 10,6 C 11,3 km/h (2 Bft) 100,00 %
01.05.2016 16:31 10,6 C 93 % 1015,3 hPa 0,0 l/m 2,9 km/h (1 Bft) N-NO 26 0 min 0,000 mm 0,0 UV-I 93 W/m 9,5 C 10,6 C 6,4 km/h (2 Bft) 100,00 %
01.05.2016 16:32 10,6 C 93 % 1015,3 hPa 0,0 l/m 5,8 km/h (2 Bft) N 10 0 min 0,000 mm 0,0 UV-I 91 W/m 9,5 C 10,6 C 12,9 km/h (3 Bft) 100,00 %
01.05.2016 16:33 10,6 C 93 % 1015,3 hPa 0,0 l/m 4,8 km/h (1 Bft) N 360 0 min 0,000 mm 0,0 UV-I 91 W/m 9,5 C 10,6 C 8,0 km/h (2 Bft) 95,65 %
01.05.2016 16:34 10,6 C 93 % 1015,3 hPa 0,0 l/m 4,9 km/h (1 Bft) N 5 0 min 0,000 mm 0,0 UV-I 90 W/m 9,5 C 10,6 C 8,0 km/h (2 Bft) 100,00 %
01.05.2016 16:35 10,6 C 93 % 1015,3 hPa 0,0 l/m 2,3 km/h (1 Bft) N-NO 21 0 min 0,000 mm 0,0 UV-I 88 W/m 9,5 C 10,6 C 4,8 km/h (1 Bft) 100,00 %
01.05.2016 16:36 10,6 C 93 % 1015,4 hPa 0,0 l/m 3,5 km/h (1 Bft) N-NO 24 0 min 0,000 mm 0,0 UV-I 88 W/m 9,5 C 10,6 C 8,0 km/h (2 Bft) 100,00 %
01.05.2016 16:37 10,6 C 93 % 1015,3 hPa 0,2 l/m 4,4 km/h (1 Bft) N 10 0 min 0,000 mm 0,0 UV-I 87 W/m 9,5 C 10,6 C 6,4 km/h (2 Bft) 100,00 %
01.05.2016 16:38 10,6 C 93 % 1015,4 hPa 0,0 l/m 5,0 km/h (1 Bft) N-NO 19 0 min 0,000 mm 0,0 UV-I 84 W/m 9,5 C 10,6 C 9,7 km/h (2 Bft) 100,00 %
01.05.2016 16:39 10,6 C 93 % 1015,4 hPa 0,0 l/m 5,2 km/h (1 Bft) N 5 0 min 0,000 mm 0,0 UV-I 81 W/m 9,5 C 10,6 C 8,0 km/h (2 Bft) 100,00 %
01.05.2016 16:40 10,6 C 94 % 1015,3 hPa 0,0 l/m 6,7 km/h (2 Bft) N 9 0 min 0,000 mm 0,0 UV-I 79 W/m 9,7 C 10,4 C 14,5 km/h (3 Bft) 95,65 %
01.05.2016 16:41 10,6 C 94 % 1015,4 hPa 0,0 l/m 9,4 km/h (2 Bft) N-NO 22 0 min 0,000 mm 0,0 UV-I 79 W/m 9,7 C 8,6 C 14,5 km/h (3 Bft) 100,00 %
01.05.2016 16:42 10,6 C 93 % 1015,4 hPa 0,0 l/m 6,5 km/h (2 Bft) N-NO 23 0 min 0,000 mm 0,0 UV-I 79 W/m 9,5 C 10,6 C 12,9 km/h (3 Bft) 100,00 %
01.05.2016 16:43 10,6 C 93 % 1015,3 hPa 0,0 l/m 4,7 km/h (1 Bft) N-NO 15 0 min 0,000 mm 0,0 UV-I 79 W/m 9,5 C 10,6 C 9,7 km/h (2 Bft) 100,00 %
01.05.2016 16:44 10,6 C 93 % 1015,3 hPa 0,2 l/m 5,1 km/h (1 Bft) N-NO 28 0 min 0,000 mm 0,0 UV-I 78 W/m 9,5 C 10,6 C 8,0 km/h (2 Bft) 100,00 %
01.05.2016 16:45 10,6 C 93 % 1015,4 hPa 0,0 l/m 6,6 km/h (2 Bft) N 11 0 min 0,000 mm 0,0 UV-I 77 W/m 9,5 C 10,5 C 11,3 km/h (2 Bft) 100,00 %
01.05.2016 16:46 10,5 C 93 % 1015,4 hPa 0,0 l/m 6,3 km/h (2 Bft) N-NO 17 0 min 0,000 mm 0,0 UV-I 80 W/m 9,4 C 10,5 C 12,9 km/h (3 Bft) 96,15 %
01.05.2016 16:47 10,5 C 93 % 1015,4 hPa 0,0 l/m 5,5 km/h (1 Bft) N-NO 32 0 min 0,000 mm 0,0 UV-I 81 W/m 9,4 C 10,5 C 12,9 km/h (3 Bft) 100,00 %
01.05.2016 16:48 10,5 C 93 % 1015,4 hPa 0,0 l/m 4,7 km/h (1 Bft) N-NO 28 0 min 0,000 mm 0,0 UV-I 81 W/m 9,4 C 10,5 C 8,0 km/h (2 Bft) 100,00 %
01.05.2016 16:49 10,6 C 93 % 1015,4 hPa 0,0 l/m 5,3 km/h (1 Bft) N-NO 25 0 min 0,000 mm 0,0 UV-I 82 W/m 9,5 C 10,6 C 9,7 km/h (2 Bft) 100,00 %
01.05.2016 16:50 10,6 C 93 % 1015,5 hPa 0,0 l/m 6,7 km/h (2 Bft) N-NO 29 0 min 0,000 mm 0,0 UV-I 81 W/m 9,5 C 10,4 C 11,3 km/h (2 Bft) 100,00 %
01.05.2016 16:51 10,5 C 93 % 1015,5 hPa 0,0 l/m 3,9 km/h (1 Bft) N-NW 344 0 min 0,000 mm 0,0 UV-I 77 W/m 9,4 C 10,5 C 8,0 km/h (2 Bft) 100,00 %
01.05.2016 16:52 10,6 C 93 % 1015,5 hPa 0,0 l/m 4,4 km/h (1 Bft) N 11 0 min 0,000 mm 0,0 UV-I 76 W/m 9,5 C 10,6 C 6,4 km/h (2 Bft) 100,00 %
01.05.2016 16:53 10,5 C 93 % 1015,5 hPa 0,0 l/m 4,7 km/h (1 Bft) N-NO 19 0 min 0,000 mm 0,0 UV-I 72 W/m 9,4 C 10,5 C 8,0 km/h (2 Bft) 100,00 %
01.05.2016 16:54 10,5 C 93 % 1015,5 hPa 0,0 l/m 4,7 km/h (1 Bft) N 5 0 min 0,000 mm 0,0 UV-I 69 W/m 9,4 C 10,5 C 8,0 km/h (2 Bft) 100,00 %
01.05.2016 16:55 10,5 C 93 % 1015,5 hPa 0,0 l/m 2,7 km/h (1 Bft) N-NO 12 0 min 0,000 mm 0,0 UV-I 67 W/m 9,4 C 10,5 C 3,2 km/h (1 Bft) 100,00 %
01.05.2016 16:56 10,6 C 93 % 1015,5 hPa 0,0 l/m 3,8 km/h (1 Bft) N 9 0 min 0,000 mm 0,0 UV-I 67 W/m 9,5 C 10,6 C 6,4 km/h (2 Bft) 100,00 %
01.05.2016 16:57 10,6 C 94 % 1015,5 hPa 0,0 l/m 2,1 km/h (1 Bft) N-NW 331 0 min 0,000 mm 0,0 UV-I 67 W/m 9,7 C 10,6 C 4,8 km/h (1 Bft) 100,00 %
01.05.2016 16:58 10,6 C 94 % 1015,5 hPa 0,0 l/m 1,7 km/h (1 Bft) N-NO 25 0 min 0,000 mm 0,0 UV-I 69 W/m 9,7 C 10,6 C 3,2 km/h (1 Bft) 100,00 %
01.05.2016 16:59 10,6 C 94 % 1015,6 hPa 0,0 l/m 4,0 km/h (1 Bft) NO 38 0 min 0,000 mm 0,0 UV-I 70 W/m 9,7 C 10,6 C 6,4 km/h (2 Bft) 100,00 %
01.05.2016 17:00 10,5 C 94 % 1015,6 hPa 0,0 l/m 2,5 km/h (1 Bft) N-NO 17 0 min 0,000 mm 0,0 UV-I 70 W/m 9,6 C 10,5 C 4,8 km/h (1 Bft) 96,30 %
01.05.2016 17:01 10,5 C 94 % 1015,5 hPa 0,0 l/m 3,9 km/h (1 Bft) N-NO 22 0 min 0,051 mm 0,0 UV-I 72 W/m 9,6 C 10,5 C 6,4 km/h (2 Bft) 96,15 %
01.05.2016 17:02 10,5 C 94 % 1015,5 hPa 0,0 l/m 2,4 km/h (1 Bft) N-NO 27 0 min 0,000 mm 0,0 UV-I 74 W/m 9,6 C 10,5 C 4,8 km/h (1 Bft) 100,00 %
01.05.2016 17:03 10,5 C 94 % 1015,5 hPa 0,0 l/m 3,8 km/h (1 Bft) N-NO 22 0 min 0,000 mm 0,0 UV-I 77 W/m 9,6 C 10,5 C 6,4 km/h (2 Bft) 100,00 %
01.05.2016 17:04 10,6 C 94 % 1015,5 hPa 0,0 l/m 3,7 km/h (1 Bft) N 5 0 min 0,000 mm 0,0 UV-I 78 W/m 9,7 C 10,6 C 6,4 km/h (2 Bft) 100,00 %
01.05.2016 17:05 10,6 C 94 % 1015,5 hPa 0,2 l/m 2,4 km/h (1 Bft) N 5 0 min 0,000 mm 0,0 UV-I 79 W/m 9,7 C 10,6 C 4,8 km/h (1 Bft) 100,00 %
01.05.2016 17:06 10,6 C 94 % 1015,5 hPa 0,0 l/m 5,0 km/h (1 Bft) N-NO 28 0 min 0,000 mm 0,0 UV-I 78 W/m 9,7 C 10,6 C 8,0 km/h (2 Bft) 100,00 %
01.05.2016 17:07 10,6 C 94 % 1015,6 hPa 0,0 l/m 3,3 km/h (1 Bft) N-NW 342 0 min 0,000 mm 0,0 UV-I 79 W/m 9,7 C 10,6 C 6,4 km/h (2 Bft) 100,00 %
01.05.2016 17:08 10,6 C 94 % 1015,6 hPa 0,0 l/m 3,0 km/h (1 Bft) N-NO 24 0 min 0,000 mm 0,0 UV-I 79 W/m 9,7 C 10,6 C 6,4 km/h (2 Bft) 100,00 %
01.05.2016 17:09 10,6 C 94 % 1015,6 hPa 0,0 l/m 3,2 km/h (1 Bft) N 5 0 min 0,000 mm 0,0 UV-I 81 W/m 9,7 C 10,6 C 4,8 km/h (1 Bft) 91,30 %
01.05.2016 17:10 10,6 C 94 % 1015,7 hPa 0,0 l/m 1,4 km/h (1 Bft) N 5 0 min 0,000 mm 0,0 UV-I 80 W/m 9,7 C 10,6 C 3,2 km/h (1 Bft) 100,00 %
01.05.2016 17:11 10,6 C 94 % 1015,6 hPa 0,2 l/m 1,8 km/h (1 Bft) N 355 0 min 0,000 mm 0,0 UV-I 78 W/m 9,7 C 10,6 C 3,2 km/h (1 Bft) 100,00 %
01.05.2016 17:12 10,6 C 94 % 1015,7 hPa 0,0 l/m 0,8 km/h (0 Bft) NO 36 0 min 0,000 mm 0,0 UV-I 75 W/m 9,7 C 10,6 C 3,2 km/h (1 Bft) 93,33 %
01.05.2016 17:13 10,6 C 94 % 1015,7 hPa 0,0 l/m 1,9 km/h (1 Bft) N-NO 12 0 min 0,000 mm 0,0 UV-I 71 W/m 9,7 C 10,6 C 4,8 km/h (1 Bft) 100,00 %
01.05.2016 17:14 10,6 C 94 % 1015,7 hPa 0,0 l/m 3,1 km/h (1 Bft) N-NO 17 0 min 0,000 mm 0,0 UV-I 68 W/m 9,7 C 10,6 C 6,4 km/h (2 Bft) 96,67 %
01.05.2016 17:15 10,6 C 94 % 1015,7 hPa 0,0 l/m 3,0 km/h (1 Bft) NO 34 0 min 0,000 mm 0,0 UV-I 69 W/m 9,7 C 10,6 C 6,4 km/h (2 Bft) 100,00 %
01.05.2016 17:16 10,6 C 94 % 1015,7 hPa 0,2 l/m 1,5 km/h (1 Bft) N-NO 28 0 min 0,000 mm 0,0 UV-I 70 W/m 9,7 C 10,6 C 3,2 km/h (1 Bft) 92,31 %
01.05.2016 17:17 10,6 C 94 % 1015,7 hPa 0,0 l/m 3,6 km/h (1 Bft) N-NO 13 0 min 0,000 mm 0,0 UV-I 73 W/m 9,7 C 10,6 C 8,0 km/h (2 Bft) 96,55 %
01.05.2016 17:18 10,6 C 94 % 1015,8 hPa 0,0 l/m 5,5 km/h (1 Bft) O-SO 113 0 min 0,000 mm 0,0 UV-I 74 W/m 9,7 C 10,6 C 9,7 km/h (2 Bft) 100,00 %
01.05.2016 17:19 10,6 C 94 % 1015,7 hPa 0,0 l/m 3,6 km/h (1 Bft) N 5 0 min 0,000 mm 0,0 UV-I 74 W/m 9,7 C 10,6 C 8,0 km/h (2 Bft) 95,65 %
01.05.2016 17:20 10,6 C 94 % 1015,7 hPa 0,0 l/m 4,9 km/h (1 Bft) N-NO 22 0 min 0,000 mm 0,0 UV-I 74 W/m 9,7 C 10,6 C 8,0 km/h (2 Bft) 100,00 %
01.05.2016 17:21 10,6 C 94 % 1015,7 hPa 0,2 l/m 2,7 km/h (1 Bft) N-NO 17 0 min 0,000 mm 0,0 UV-I 72 W/m 9,7 C 10,6 C 6,4 km/h (2 Bft) 91,67 %
01.05.2016 17:22 10,6 C 94 % 1015,7 hPa 0,0 l/m 1,6 km/h (1 Bft) N-NO 16 0 min 0,000 mm 0,0 UV-I 74 W/m 9,7 C 10,6 C 3,2 km/h (1 Bft) 100,00 %
01.05.2016 17:23 10,7 C 94 % 1015,7 hPa 0,0 l/m 2,1 km/h (1 Bft) N 5 0 min 0,000 mm 0,0 UV-I 74 W/m 9,8 C 10,7 C 4,8 km/h (1 Bft) 96,30 %
01.05.2016 17:24 10,7 C 94 % 1015,7 hPa 0,0 l/m 1,7 km/h (1 Bft) N 9 0 min 0,000 mm 0,0 UV-I 73 W/m 9,8 C 10,7 C 3,2 km/h (1 Bft) 96,15 %
01.05.2016 17:25 10,7 C 94 % 1015,7 hPa 0,0 l/m 3,4 km/h (1 Bft) N-NO 24 0 min 0,000 mm 0,0 UV-I 70 W/m 9,8 C 10,7 C 6,4 km/h (2 Bft) 100,00 %
01.05.2016 17:26 10,7 C 94 % 1015,7 hPa 0,0 l/m 1,5 km/h (1 Bft) N-NO 24 0 min 0,000 mm 0,0 UV-I 69 W/m 9,8 C 10,7 C 3,2 km/h (1 Bft) 100,00 %
01.05.2016 17:27 10,7 C 94 % 1015,8 hPa 0,0 l/m 3,2 km/h (1 Bft) N-NO 17 0 min 0,000 mm 0,0 UV-I 64 W/m 9,8 C 10,7 C 6,4 km/h (2 Bft) 96,30 %
01.05.2016 17:28 10,7 C 94 % 1015,8 hPa 0,0 l/m 3,6 km/h (1 Bft) N-NO 17 0 min 0,000 mm 0,0 UV-I 62 W/m 9,8 C 10,7 C 6,4 km/h (2 Bft) 96,00 %
01.05.2016 17:29 10,7 C 94 % 1015,8 hPa 0,0 l/m 1,6 km/h (1 Bft) N-NW 348 0 min 0,000 mm 0,0 UV-I 63 W/m 9,8 C 10,7 C 3,2 km/h (1 Bft) 96,30 %
01.05.2016 17:30 10,7 C 94 % 1015,8 hPa 0,2 l/m 2,1 km/h (1 Bft) N 11 0 min 0,000 mm 0,0 UV-I 63 W/m 9,8 C 10,7 C 6,4 km/h (2 Bft) 92,86 %
01.05.2016 17:31 10,7 C 94 % 1015,8 hPa 0,0 l/m 0,3 km/h (0 Bft) N-NO 15 0 min 0,000 mm 0,0 UV-I 65 W/m 9,8 C 10,7 C 1,6 km/h (1 Bft) 100,00 %
01.05.2016 17:32 10,7 C 94 % 1015,8 hPa 0,0 l/m 2,6 km/h (1 Bft) N 5 0 min 0,000 mm 0,0 UV-I 65 W/m 9,8 C 10,7 C 6,4 km/h (2 Bft) 95,65 %
01.05.2016 17:33 10,7 C 94 % 1015,8 hPa 0,0 l/m 1,1 km/h (1 Bft) N 11 0 min 0,000 mm 0,0 UV-I 67 W/m 9,8 C 10,7 C 4,8 km/h (1 Bft) 100,00 %
01.05.2016 17:34 10,7 C 94 % 1015,8 hPa 0,0 l/m 0,4 km/h (0 Bft) N 11 0 min 0,000 mm 0,0 UV-I 68 W/m 9,8 C 10,7 C 1,6 km/h (1 Bft) 95,65 %
01.05.2016 17:35 10,7 C 94 % 1015,8 hPa 0,0 l/m 1,6 km/h (1 Bft) N-NO 17 0 min 0,000 mm 0,0 UV-I 71 W/m 9,8 C 10,7 C 4,8 km/h (1 Bft) 95,83 %
01.05.2016 17:36 10,7 C 94 % 1015,9 hPa 0,0 l/m 1,0 km/h (0 Bft) N-NO 32 0 min 0,000 mm 0,0 UV-I 74 W/m 9,8 C 10,7 C 3,2 km/h (1 Bft) 100,00 %
01.05.2016 17:37 10,7 C 94 % 1015,8 hPa 0,0 l/m 0,7 km/h (0 Bft) N-NO 15 0 min 0,000 mm 0,0 UV-I 76 W/m 9,8 C 10,7 C 1,6 km/h (1 Bft) 91,67 %
01.05.2016 17:38 10,7 C 94 % 1015,8 hPa 0,2 l/m 0,8 km/h (0 Bft) N 11 0 min 0,000 mm 0,0 UV-I 74 W/m 9,8 C 10,7 C 1,6 km/h (1 Bft) 100,00 %
01.05.2016 17:39 10,6 C 95 % 1015,8 hPa 0,0 l/m 2,2 km/h (1 Bft) N-NO 16 0 min 0,000 mm 0,0 UV-I 71 W/m 9,8 C 10,6 C 4,8 km/h (1 Bft) 100,00 %
01.05.2016 17:40 10,7 C 94 % 1015,8 hPa 0,0 l/m 3,4 km/h (1 Bft) N-NO 13 0 min 0,000 mm 0,0 UV-I 70 W/m 9,8 C 10,7 C 4,8 km/h (1 Bft) 95,83 %
01.05.2016 17:41 10,6 C 94 % 1015,8 hPa 0,0 l/m 0,4 km/h (0 Bft) N-NO 13 0 min 0,000 mm 0,0 UV-I 68 W/m 9,7 C 10,6 C 1,6 km/h (1 Bft) 92,86 %
01.05.2016 17:42 10,6 C 94 % 1015,9 hPa 0,0 l/m 1,6 km/h (1 Bft) N-NO 12 0 min 0,000 mm 0,0 UV-I 64 W/m 9,7 C 10,6 C 3,2 km/h (1 Bft) 97,37 %
01.05.2016 17:43 10,6 C 94 % 1015,9 hPa 0,0 l/m 3,9 km/h (1 Bft) N-NO 17 0 min 0,000 mm 0,0 UV-I 61 W/m 9,7 C 10,6 C 4,8 km/h (1 Bft) 100,00 %
01.05.2016 17:44 10,6 C 94 % 1015,9 hPa 0,0 l/m 2,4 km/h (1 Bft) N-NO 17 0 min 0,000 mm 0,0 UV-I 58 W/m 9,7 C 10,6 C 3,2 km/h (1 Bft) 96,67 %
01.05.2016 17:45 10,6 C 94 % 1015,9 hPa 0,0 l/m 2,0 km/h (1 Bft) N-NO 15 0 min 0,000 mm 0,0 UV-I 59 W/m 9,7 C 10,6 C 3,2 km/h (1 Bft) 100,00 %
01.05.2016 17:46 10,6 C 94 % 1015,9 hPa 0,0 l/m 1,2 km/h (1 Bft) N-NO 15 0 min 0,000 mm 0,0 UV-I 60 W/m 9,7 C 10,6 C 1,6 km/h (1 Bft) 96,30 %
01.05.2016 17:47 10,7 C 95 % 1015,9 hPa 0,0 l/m 0,6 km/h (0 Bft) N-NO 13 0 min 0,000 mm 0,0 UV-I 60 W/m 9,9 C 10,7 C 1,6 km/h (1 Bft) 100,00 %
01.05.2016 17:48 10,7 C 95 % 1015,9 hPa 0,0 l/m 0,7 km/h (0 Bft) N 5 0 min 0,000 mm 0,0 UV-I 60 W/m 9,9 C 10,7 C 1,6 km/h (1 Bft) 100,00 %
01.05.2016 17:49 10,7 C 95 % 1015,9 hPa 0,0 l/m 1,3 km/h (1 Bft) N-NW 339 0 min 0,000 mm 0,0 UV-I 57 W/m 9,9 C 10,7 C 3,2 km/h (1 Bft) 100,00 %
01.05.2016 17:50 10,7 C 95 % 1015,9 hPa 0,0 l/m 1,4 km/h (1 Bft) N-NW 343 0 min 0,000 mm 0,0 UV-I 53 W/m 9,9 C 10,7 C 3,2 km/h (1 Bft) 100,00 %
01.05.2016 17:51 10,7 C 95 % 1015,9 hPa 0,0 l/m 1,1 km/h (1 Bft) N 355 0 min 0,000 mm 0,0 UV-I 49 W/m 9,9 C 10,7 C 3,2 km/h (1 Bft) 100,00 %
01.05.2016 17:52 10,7 C 95 % 1015,9 hPa 0,0 l/m 2,4 km/h (1 Bft) N 5 0 min 0,000 mm 0,0 UV-I 47 W/m 9,9 C 10,7 C 8,0 km/h (2 Bft) 100,00 %
01.05.2016 17:53 10,7 C 95 % 1015,9 hPa 0,0 l/m 3,1 km/h (1 Bft) N 9 0 min 0,000 mm 0,0 UV-I 47 W/m 9,9 C 10,7 C 6,4 km/h (2 Bft) 100,00 %
01.05.2016 17:54 10,6 C 95 % 1015,9 hPa 0,0 l/m 1,3 km/h (1 Bft) N 9 0 min 0,000 mm 0,0 UV-I 47 W/m 9,8 C 10,6 C 3,2 km/h (1 Bft) 100,00 %
01.05.2016 17:55 10,6 C 95 % 1015,9 hPa 0,0 l/m 1,5 km/h (1 Bft) N-NW 348 0 min 0,000 mm 0,0 UV-I 46 W/m 9,8 C 10,6 C 3,2 km/h (1 Bft) 95,65 %
01.05.2016 17:56 10,6 C 95 % 1015,9 hPa 0,0 l/m 0,9 km/h (0 Bft) N-NW 346 0 min 0,000 mm 0,0 UV-I 43 W/m 9,8 C 10,6 C 1,6 km/h (1 Bft) 100,00 %
01.05.2016 17:57 10,6 C 95 % 1015,9 hPa 0,0 l/m 0,4 km/h (0 Bft) N 9 0 min 0,000 mm 0,0 UV-I 40 W/m 9,8 C 10,6 C 1,6 km/h (1 Bft) 98,55 %
01.05.2016 17:58 10,6 C 95 % 1015,9 hPa 0,0 l/m 0,6 km/h (0 Bft) N-NO 13 0 min 0,000 mm 0,0 UV-I 38 W/m 9,8 C 10,6 C 1,6 km/h (1 Bft) 100,00 %
01.05.2016 17:59 10,6 C 95 % 1015,9 hPa 0,0 l/m 2,6 km/h (1 Bft) N-NO 12 0 min 0,000 mm 0,0 UV-I 36 W/m 9,8 C 10,6 C 3,2 km/h (1 Bft) 100,00 %
01.05.2016 18:00 10,6 C 95 % 1015,9 hPa 0,0 l/m 2,0 km/h (1 Bft) N 11 0 min 0,000 mm 0,0 UV-I 34 W/m 9,8 C 10,6 C 3,2 km/h (1 Bft) 100,00 %
01.05.2016 18:01 10,6 C 95 % 1016,0 hPa 0,0 l/m 1,4 km/h (1 Bft) N 9 0 min 0,025 mm 0,0 UV-I 33 W/m 9,8 C 10,6 C 3,2 km/h (1 Bft) 100,00 %
01.05.2016 18:02 10,6 C 95 % 1016,0 hPa 0,2 l/m 1,5 km/h (1 Bft) N-NO 15 0 min 0,000 mm 0,0 UV-I 32 W/m 9,8 C 10,6 C 4,8 km/h (1 Bft) 100,00 %
01.05.2016 18:03 10,6 C 95 % 1016,0 hPa 0,0 l/m 1,7 km/h (1 Bft) N 355 0 min 0,000 mm 0,0 UV-I 32 W/m 9,8 C 10,6 C 3,2 km/h (1 Bft) 100,00 %
01.05.2016 18:04 10,6 C 95 % 1016,0 hPa 0,0 l/m 2,4 km/h (1 Bft) N-NO 26 0 min 0,000 mm 0,0 UV-I 34 W/m 9,8 C 10,6 C 4,8 km/h (1 Bft) 100,00 %
01.05.2016 18:05 10,6 C 95 % 1016,0 hPa 0,0 l/m 2,3 km/h (1 Bft) N-NO 19 0 min 0,000 mm 0,0 UV-I 35 W/m 9,8 C 10,6 C 4,8 km/h (1 Bft) 100,00 %
01.05.2016 18:06 10,5 C 95 % 1016,1 hPa 0,0 l/m 2,5 km/h (1 Bft) N 10 0 min 0,000 mm 0,0 UV-I 34 W/m 9,7 C 10,5 C 4,8 km/h (1 Bft) 100,00 %
01.05.2016 18:07 10,5 C 95 % 1016,0 hPa 0,0 l/m 1,9 km/h (1 Bft) N-NO 24 0 min 0,000 mm 0,0 UV-I 33 W/m 9,7 C 10,5 C 3,2 km/h (1 Bft) 100,00 %
01.05.2016 18:08 10,5 C 95 % 1016,1 hPa 0,0 l/m 1,5 km/h (1 Bft) N-NO 33 0 min 0,000 mm 0,0 UV-I 35 W/m 9,7 C 10,5 C 3,2 km/h (1 Bft) 100,00 %
01.05.2016 18:09 10,5 C 95 % 1016,1 hPa 0,2 l/m 2,5 km/h (1 Bft) N 9 0 min 0,000 mm 0,0 UV-I 34 W/m 9,7 C 10,5 C 6,4 km/h (2 Bft) 100,00 %
01.05.2016 18:10 10,5 C 95 % 1016,0 hPa 0,0 l/m 3,2 km/h (1 Bft) N-NO 18 0 min 0,000 mm 0,0 UV-I 33 W/m 9,7 C 10,5 C 6,4 km/h (2 Bft) 100,00 %
01.05.2016 18:11 10,5 C 95 % 1016,1 hPa 0,0 l/m 5,7 km/h (1 Bft) N-NO 32 0 min 0,000 mm 0,0 UV-I 32 W/m 9,7 C 10,5 C 6,4 km/h (2 Bft) 100,00 %
01.05.2016 18:12 10,4 C 95 % 1016,1 hPa 0,0 l/m 4,4 km/h (1 Bft) N-NO 19 0 min 0,000 mm 0,0 UV-I 33 W/m 9,6 C 10,4 C 6,4 km/h (2 Bft) 92,86 %
01.05.2016 18:13 10,5 C 95 % 1016,1 hPa 0,0 l/m 3,0 km/h (1 Bft) N 9 0 min 0,000 mm 0,0 UV-I 37 W/m 9,7 C 10,5 C 4,8 km/h (1 Bft) 100,00 %
01.05.2016 18:14 10,5 C 95 % 1016,1 hPa 0,0 l/m 1,6 km/h (1 Bft) N-NO 17 0 min 0,000 mm 0,0 UV-I 38 W/m 9,7 C 10,5 C 3,2 km/h (1 Bft) 96,15 %
01.05.2016 18:15 10,5 C 95 % 1016,1 hPa 0,0 l/m 1,9 km/h (1 Bft) N-NO 24 0 min 0,000 mm 0,0 UV-I 36 W/m 9,7 C 10,5 C 3,2 km/h (1 Bft) 100,00 %
01.05.2016 18:16 10,5 C 95 % 1016,2 hPa 0,2 l/m 1,5 km/h (1 Bft) N 5 0 min 0,000 mm 0,0 UV-I 35 W/m 9,7 C 10,5 C 3,2 km/h (1 Bft) 100,00 %
01.05.2016 18:17 10,5 C 95 % 1016,2 hPa 0,0 l/m 2,1 km/h (1 Bft) O-NO 76 0 min 0,000 mm 0,0 UV-I 38 W/m 9,7 C 10,5 C 3,2 km/h (1 Bft) 100,00 %
01.05.2016 18:18 10,5 C 95 % 1016,1 hPa 0,0 l/m 2,1 km/h (1 Bft) NO 56 0 min 0,000 mm 0,0 UV-I 40 W/m 9,7 C 10,5 C 3,2 km/h (1 Bft) 95,65 %
01.05.2016 18:19 10,5 C 95 % 1016,2 hPa 0,0 l/m 2,1 km/h (1 Bft) NO 47 0 min 0,000 mm 0,0 UV-I 40 W/m 9,7 C 10,5 C 4,8 km/h (1 Bft) 100,00 %
01.05.2016 18:20 10,5 C 95 % 1016,1 hPa 0,0 l/m 1,4 km/h (1 Bft) NO 47 0 min 0,000 mm 0,0 UV-I 42 W/m 9,7 C 10,5 C 3,2 km/h (1 Bft) 100,00 %
01.05.2016 18:21 10,5 C 95 % 1016,2 hPa 0,2 l/m 0,5 km/h (0 Bft) NO 47 0 min 0,000 mm 0,0 UV-I 42 W/m 9,7 C 10,5 C 1,6 km/h (1 Bft) 92,31 %
01.05.2016 18:22 10,5 C 95 % 1016,2 hPa 0,0 l/m 0,7 km/h (0 Bft) NO 47 0 min 0,000 mm 0,0 UV-I 41 W/m 9,7 C 10,5 C 1,6 km/h (1 Bft) 100,00 %
01.05.2016 18:23 10,5 C 95 % 1016,2 hPa 0,0 l/m 0,3 km/h (0 Bft) NO 38 0 min 0,000 mm 0,0 UV-I 40 W/m 9,7 C 10,5 C 3,2 km/h (1 Bft) 100,00 %
01.05.2016 18:24 10,5 C 95 % 1016,2 hPa 0,0 l/m 4,4 km/h (1 Bft) NO 36 0 min 0,000 mm 0,0 UV-I 40 W/m 9,7 C 10,5 C 6,4 km/h (2 Bft) 100,00 %
01.05.2016 18:25 10,5 C 95 % 1016,2 hPa 0,0 l/m 2,5 km/h (1 Bft) N-NO 26 0 min 0,000 mm 0,0 UV-I 40 W/m 9,7 C 10,5 C 4,8 km/h (1 Bft) 95,65 %
01.05.2016 18:26 10,5 C 95 % 1016,2 hPa 0,0 l/m 2,2 km/h (1 Bft) N 10 0 min 0,000 mm 0,0 UV-I 40 W/m 9,7 C 10,5 C 4,8 km/h (1 Bft) 100,00 %
01.05.2016 18:27 10,5 C 95 % 1016,2 hPa 0,0 l/m 4,0 km/h (1 Bft) N-NO 32 0 min 0,000 mm 0,0 UV-I 39 W/m 9,7 C 10,5 C 6,4 km/h (2 Bft) 100,00 %
01.05.2016 18:28 10,5 C 95 % 1016,2 hPa 0,2 l/m 3,6 km/h (1 Bft) NO 35 0 min 0,000 mm 0,0 UV-I 38 W/m 9,7 C 10,5 C 6,4 km/h (2 Bft) 100,00 %
01.05.2016 18:29 10,5 C 95 % 1016,2 hPa 0,0 l/m 5,3 km/h (1 Bft) NO 37 0 min 0,000 mm 0,0 UV-I 35 W/m 9,7 C 10,5 C 8,0 km/h (2 Bft) 100,00 %
01.05.2016 18:30 10,5 C 95 % 1016,3 hPa 0,0 l/m 6,0 km/h (2 Bft) NO 39 0 min 0,000 mm 0,0 UV-I 35 W/m 9,7 C 10,5 C 8,0 km/h (2 Bft) 100,00 %
01.05.2016 18:31 10,5 C 95 % 1016,2 hPa 0,0 l/m 3,5 km/h (1 Bft) O-NO 57 0 min 0,000 mm 0,0 UV-I 33 W/m 9,7 C 10,5 C 6,4 km/h (2 Bft) 100,00 %
01.05.2016 18:32 10,5 C 95 % 1016,3 hPa 0,0 l/m 5,5 km/h (1 Bft) NO 44 0 min 0,000 mm 0,0 UV-I 33 W/m 9,7 C 10,5 C 9,7 km/h (2 Bft) 100,00 %
01.05.2016 18:33 10,5 C 95 % 1016,3 hPa 0,0 l/m 8,9 km/h (2 Bft) NO 38 0 min 0,000 mm 0,0 UV-I 32 W/m 9,7 C 8,8 C 11,3 km/h (2 Bft) 100,00 %
01.05.2016 18:34 10,5 C 95 % 1016,3 hPa 0,2 l/m 7,8 km/h (2 Bft) NO 34 0 min 0,000 mm 0,0 UV-I 32 W/m 9,7 C 9,5 C 12,9 km/h (3 Bft) 100,00 %
01.05.2016 18:35 10,5 C 95 % 1016,3 hPa 0,0 l/m 5,0 km/h (1 Bft) NO 40 0 min 0,000 mm 0,0 UV-I 32 W/m 9,7 C 10,5 C 6,4 km/h (2 Bft) 100,00 %
01.05.2016 18:36 10,5 C 95 % 1016,3 hPa 0,0 l/m 3,8 km/h (1 Bft) NO 41 0 min 0,000 mm 0,0 UV-I 32 W/m 9,7 C 10,5 C 6,4 km/h (2 Bft) 100,00 %
01.05.2016 18:37 10,5 C 95 % 1016,3 hPa 0,0 l/m 4,4 km/h (1 Bft) N-NO 17 0 min 0,000 mm 0,0 UV-I 32 W/m 9,7 C 10,5 C 6,4 km/h (2 Bft) 100,00 %
01.05.2016 18:38 10,5 C 95 % 1016,3 hPa 0,0 l/m 4,8 km/h (1 Bft) NO 34 0 min 0,000 mm 0,0 UV-I 32 W/m 9,7 C 10,5 C 6,4 km/h (2 Bft) 100,00 %
01.05.2016 18:39 10,5 C 95 % 1016,3 hPa 0,0 l/m 4,6 km/h (1 Bft) N-NO 27 0 min 0,000 mm 0,0 UV-I 31 W/m 9,7 C 10,5 C 6,4 km/h (2 Bft) 100,00 %
01.05.2016 18:40 10,5 C 95 % 1016,3 hPa 0,0 l/m 5,1 km/h (1 Bft) NO 35 0 min 0,000 mm 0,0 UV-I 30 W/m 9,7 C 10,5 C 8,0 km/h (2 Bft) 100,00 %
01.05.2016 18:41 10,5 C 95 % 1016,3 hPa 0,0 l/m 6,0 km/h (2 Bft) NO 45 0 min 0,000 mm 0,0 UV-I 30 W/m 9,7 C 10,5 C 6,4 km/h (2 Bft) 100,00 %
01.05.2016 18:42 10,5 C 95 % 1016,3 hPa 0,0 l/m 5,5 km/h (1 Bft) NO 44 0 min 0,000 mm 0,0 UV-I 30 W/m 9,7 C 10,5 C 6,4 km/h (2 Bft) 100,00 %
01.05.2016 18:43 10,5 C 95 % 1016,3 hPa 0,2 l/m 5,6 km/h (1 Bft) NO 40 0 min 0,000 mm 0,0 UV-I 30 W/m 9,7 C 10,5 C 8,0 km/h (2 Bft) 100,00 %
01.05.2016 18:44 10,5 C 95 % 1016,3 hPa 0,0 l/m 5,7 km/h (1 Bft) NO 36 0 min 0,000 mm 0,0 UV-I 30 W/m 9,7 C 10,5 C 8,0 km/h (2 Bft) 100,00 %
01.05.2016 18:45 10,5 C 95 % 1016,3 hPa 0,0 l/m 5,3 km/h (1 Bft) N-NO 33 0 min 0,000 mm 0,0 UV-I 30 W/m 9,7 C 10,5 C 6,4 km/h (2 Bft) 100,00 %
01.05.2016 18:46 10,5 C 95 % 1016,4 hPa 0,0 l/m 5,0 km/h (1 Bft) NO 43 0 min 0,000 mm 0,0 UV-I 30 W/m 9,7 C 10,5 C 8,0 km/h (2 Bft) 100,00 %
01.05.2016 18:47 10,5 C 95 % 1016,4 hPa 0,0 l/m 4,8 km/h (1 Bft) N-NO 27 0 min 0,000 mm 0,0 UV-I 30 W/m 9,7 C 10,5 C 6,4 km/h (2 Bft) 100,00 %
01.05.2016 18:48 10,5 C 94 % 1016,4 hPa 0,0 l/m 5,1 km/h (1 Bft) NO 54 0 min 0,000 mm 0,0 UV-I 28 W/m 9,6 C 10,5 C 6,4 km/h (2 Bft) 100,00 %
01.05.2016 18:49 10,5 C 94 % 1016,4 hPa 0,0 l/m 5,4 km/h (1 Bft) N-NO 30 0 min 0,000 mm 0,0 UV-I 28 W/m 9,6 C 10,5 C 6,4 km/h (2 Bft) 100,00 %
01.05.2016 18:50 10,5 C 94 % 1016,3 hPa 0,2 l/m 5,2 km/h (1 Bft) N-NO 30 0 min 0,000 mm 0,0 UV-I 28 W/m 9,6 C 10,5 C 8,0 km/h (2 Bft) 100,00 %
01.05.2016 18:51 10,5 C 94 % 1016,4 hPa 0,0 l/m 3,8 km/h (1 Bft) N-NO 29 0 min 0,000 mm 0,0 UV-I 28 W/m 9,6 C 10,5 C 6,4 km/h (2 Bft) 100,00 %
01.05.2016 18:52 10,5 C 94 % 1016,4 hPa 0,0 l/m 4,4 km/h (1 Bft) N-NO 33 0 min 0,000 mm 0,0 UV-I 28 W/m 9,6 C 10,5 C 6,4 km/h (2 Bft) 100,00 %
01.05.2016 18:53 10,5 C 94 % 1016,4 hPa 0,0 l/m 5,0 km/h (1 Bft) N-NO 32 0 min 0,000 mm 0,0 UV-I 28 W/m 9,6 C 10,5 C 8,0 km/h (2 Bft) 100,00 %
01.05.2016 18:54 10,5 C 94 % 1016,5 hPa 0,0 l/m 7,2 km/h (2 Bft) N-NO 12 0 min 0,000 mm 0,0 UV-I 28 W/m 9,6 C 9,9 C 9,7 km/h (2 Bft) 100,00 %
01.05.2016 18:55 10,5 C 94 % 1016,5 hPa 0,0 l/m 7,6 km/h (2 Bft) NO 39 0 min 0,000 mm 0,0 UV-I 28 W/m 9,6 C 9,6 C 11,3 km/h (2 Bft) 100,00 %
01.05.2016 18:56 10,4 C 94 % 1016,5 hPa 0,0 l/m 7,4 km/h (2 Bft) NO 42 0 min 0,000 mm 0,0 UV-I 28 W/m 9,5 C 9,7 C 9,7 km/h (2 Bft) 100,00 %
01.05.2016 18:57 10,4 C 94 % 1016,5 hPa 0,0 l/m 6,4 km/h (2 Bft) N 11 0 min 0,000 mm 0,0 UV-I 28 W/m 9,5 C 10,4 C 9,7 km/h (2 Bft) 100,00 %
01.05.2016 18:58 10,4 C 94 % 1016,5 hPa 0,0 l/m 7,2 km/h (2 Bft) N-NO 28 0 min 0,000 mm 0,0 UV-I 28 W/m 9,5 C 9,8 C 9,7 km/h (2 Bft) 100,00 %
01.05.2016 18:59 10,4 C 94 % 1016,6 hPa 0,0 l/m 6,5 km/h (2 Bft) NO 44 0 min 0,000 mm 0,0 UV-I 28 W/m 9,5 C 10,4 C 8,0 km/h (2 Bft) 100,00 %
01.05.2016 19:00 10,4 C 94 % 1016,6 hPa 0,0 l/m 5,1 km/h (1 Bft) NO 44 0 min 0,000 mm 0,0 UV-I 26 W/m 9,5 C 10,4 C 6,4 km/h (2 Bft) 100,00 %
01.05.2016 19:01 10,4 C 94 % 1016,6 hPa 0,0 l/m 5,8 km/h (2 Bft) NO 39 0 min 0,026 mm 0,0 UV-I 25 W/m 9,5 C 10,4 C 8,0 km/h (2 Bft) 100,00 %
01.05.2016 19:02 10,4 C 94 % 1016,6 hPa 0,2 l/m 5,9 km/h (2 Bft) NO 40 0 min 0,000 mm 0,0 UV-I 25 W/m 9,5 C 10,4 C 8,0 km/h (2 Bft) 100,00 %
01.05.2016 19:03 10,4 C 94 % 1016,6 hPa 0,0 l/m 5,8 km/h (2 Bft) N 9 0 min 0,000 mm 0,0 UV-I 26 W/m 9,5 C 10,4 C 8,0 km/h (2 Bft) 100,00 %
01.05.2016 19:04 10,4 C 94 % 1016,6 hPa 0,0 l/m 5,8 km/h (2 Bft) NO 36 0 min 0,000 mm 0,0 UV-I 27 W/m 9,5 C 10,4 C 8,0 km/h (2 Bft) 100,00 %
01.05.2016 19:05 10,4 C 94 % 1016,6 hPa 0,0 l/m 5,6 km/h (1 Bft) NO 36 0 min 0,000 mm 0,0 UV-I 28 W/m 9,5 C 10,4 C 8,0 km/h (2 Bft) 100,00 %
01.05.2016 19:06 10,4 C 94 % 1016,6 hPa 0,0 l/m 4,6 km/h (1 Bft) N-NO 26 0 min 0,000 mm 0,0 UV-I 28 W/m 9,5 C 10,4 C 8,0 km/h (2 Bft) 100,00 %
01.05.2016 19:07 10,4 C 94 % 1016,6 hPa 0,0 l/m 4,0 km/h (1 Bft) N 11 0 min 0,000 mm 0,0 UV-I 26 W/m 9,5 C 10,4 C 8,0 km/h (2 Bft) 100,00 %
01.05.2016 19:08 10,4 C 94 % 1016,6 hPa 0,0 l/m 6,6 km/h (2 Bft) N-NO 30 0 min 0,000 mm 0,0 UV-I 26 W/m 9,5 C 10,3 C 12,9 km/h (3 Bft) 100,00 %
01.05.2016 19:09 10,3 C 94 % 1016,6 hPa 0,0 l/m 3,0 km/h (1 Bft) N-NO 17 0 min 0,000 mm 0,0 UV-I 26 W/m 9,4 C 10,3 C 4,8 km/h (1 Bft) 100,00 %
01.05.2016 19:10 10,4 C 94 % 1016,6 hPa 0,0 l/m 5,8 km/h (2 Bft) N-NO 31 0 min 0,000 mm 0,0 UV-I 26 W/m 9,5 C 10,4 C 8,0 km/h (2 Bft) 100,00 %
01.05.2016 19:11 10,3 C 94 % 1016,6 hPa 0,0 l/m 3,5 km/h (1 Bft) N-NO 30 0 min 0,000 mm 0,0 UV-I 26 W/m 9,4 C 10,3 C 4,8 km/h (1 Bft) 100,00 %
01.05.2016 19:12 10,3 C 94 % 1016,6 hPa 0,0 l/m 0,8 km/h (0 Bft) N-NO 30 0 min 0,000 mm 0,0 UV-I 25 W/m 9,4 C 10,3 C 1,6 km/h (1 Bft) 92,86 %
01.05.2016 19:13 10,3 C 94 % 1016,6 hPa 0,0 l/m 4,3 km/h (1 Bft) N-NO 31 0 min 0,000 mm 0,0 UV-I 25 W/m 9,4 C 10,3 C 9,7 km/h (2 Bft) 100,00 %
01.05.2016 19:14 10,3 C 94 % 1016,7 hPa 0,2 l/m 6,1 km/h (2 Bft) NO 36 0 min 0,000 mm 0,0 UV-I 24 W/m 9,4 C 10,3 C 8,0 km/h (2 Bft) 96,30 %
01.05.2016 19:15 10,3 C 94 % 1016,7 hPa 0,0 l/m 5,8 km/h (2 Bft) N-NO 25 0 min 0,000 mm 0,0 UV-I 24 W/m 9,4 C 10,3 C 12,9 km/h (3 Bft) 100,00 %
01.05.2016 19:16 10,3 C 94 % 1016,6 hPa 0,0 l/m 4,7 km/h (1 Bft) N 5 0 min 0,000 mm 0,0 UV-I 25 W/m 9,4 C 10,3 C 9,7 km/h (2 Bft) 96,55 %
01.05.2016 19:17 10,3 C 94 % 1016,6 hPa 0,0 l/m 3,1 km/h (1 Bft) N-NO 18 0 min 0,000 mm 0,0 UV-I 25 W/m 9,4 C 10,3 C 6,4 km/h (2 Bft) 100,00 %
01.05.2016 19:18 10,3 C 94 % 1016,6 hPa 0,0 l/m 3,1 km/h (1 Bft) N-NO 24 0 min 0,000 mm 0,0 UV-I 25 W/m 9,4 C 10,3 C 4,8 km/h (1 Bft) 97,56 %
01.05.2016 19:19 10,3 C 94 % 1016,6 hPa 0,0 l/m 1,7 km/h (1 Bft) SO 136 0 min 0,000 mm 0,0 UV-I 25 W/m 9,4 C 10,3 C 3,2 km/h (1 Bft) 91,30 %
01.05.2016 19:20 10,3 C 94 % 1016,6 hPa 0,0 l/m 2,5 km/h (1 Bft) N 360 0 min 0,000 mm 0,0 UV-I 25 W/m 9,4 C 10,3 C 4,8 km/h (1 Bft) 100,00 %
01.05.2016 19:21 10,3 C 94 % 1016,6 hPa 0,0 l/m 3,5 km/h (1 Bft) N-NO 23 0 min 0,000 mm 0,0 UV-I 25 W/m 9,4 C 10,3 C 4,8 km/h (1 Bft) 95,83 %
01.05.2016 19:22 10,3 C 94 % 1016,6 hPa 0,0 l/m 1,5 km/h (1 Bft) NO 47 0 min 0,000 mm 0,0 UV-I 26 W/m 9,4 C 10,3 C 3,2 km/h (1 Bft) 100,00 %
01.05.2016 19:23 10,2 C 94 % 1016,6 hPa 0,0 l/m 1,2 km/h (1 Bft) NO 46 0 min 0,000 mm 0,0 UV-I 28 W/m 9,3 C 10,2 C 1,6 km/h (1 Bft) 91,67 %
01.05.2016 19:24 10,2 C 94 % 1016,6 hPa 0,0 l/m 1,9 km/h (1 Bft) NO 34 0 min 0,000 mm 0,0 UV-I 30 W/m 9,3 C 10,2 C 4,8 km/h (1 Bft) 100,00 %
01.05.2016 19:25 10,2 C 94 % 1016,6 hPa 0,0 l/m 0,9 km/h (0 Bft) N-NO 21 0 min 0,000 mm 0,0 UV-I 31 W/m 9,3 C 10,2 C 3,2 km/h (1 Bft) 96,30 %
01.05.2016 19:26 10,2 C 94 % 1016,6 hPa 0,0 l/m 2,9 km/h (1 Bft) N-NO 16 0 min 0,000 mm 0,0 UV-I 32 W/m 9,3 C 10,2 C 6,4 km/h (2 Bft) 95,65 %
01.05.2016 19:27 10,2 C 94 % 1016,6 hPa 0,0 l/m 2,2 km/h (1 Bft) N 5 0 min 0,000 mm 0,0 UV-I 33 W/m 9,3 C 10,2 C 4,8 km/h (1 Bft) 100,00 %
01.05.2016 19:28 10,2 C 94 % 1016,6 hPa 0,0 l/m 1,1 km/h (1 Bft) N-NO 20 0 min 0,000 mm 0,0 UV-I 33 W/m 9,3 C 10,2 C 1,6 km/h (1 Bft) 96,55 %
01.05.2016 19:29 10,2 C 95 % 1016,6 hPa 0,0 l/m 2,1 km/h (1 Bft) N-NO 17 0 min 0,000 mm 0,0 UV-I 35 W/m 9,4 C 10,2 C 4,8 km/h (1 Bft) 100,00 %
01.05.2016 19:30 10,2 C 95 % 1016,6 hPa 0,0 l/m 1,9 km/h (1 Bft) N-NO 24 0 min 0,000 mm 0,0 UV-I 36 W/m 9,4 C 10,2 C 4,8 km/h (1 Bft) 96,15 %
01.05.2016 19:31 10,2 C 94 % 1016,6 hPa 0,0 l/m 4,6 km/h (1 Bft) N-NO 21 0 min 0,000 mm 0,0 UV-I 37 W/m 9,3 C 10,2 C 6,4 km/h (2 Bft) 100,00 %
01.05.2016 19:32 10,2 C 94 % 1016,6 hPa 0,0 l/m 2,2 km/h (1 Bft) N-NO 23 0 min 0,000 mm 0,0 UV-I 37 W/m 9,3 C 10,2 C 6,4 km/h (2 Bft) 95,65 %
01.05.2016 19:33 10,2 C 94 % 1016,6 hPa 0,0 l/m 3,5 km/h (1 Bft) N-NO 21 0 min 0,000 mm 0,0 UV-I 35 W/m 9,3 C 10,2 C 8,0 km/h (2 Bft) 100,00 %
01.05.2016 19:34 10,2 C 94 % 1016,6 hPa 0,0 l/m 4,4 km/h (1 Bft) N-NO 17 0 min 0,000 mm 0,0 UV-I 35 W/m 9,3 C 10,2 C 6,4 km/h (2 Bft) 95,65 %
01.05.2016 19:35 10,2 C 94 % 1016,5 hPa 0,0 l/m 1,4 km/h (1 Bft) N-NO 15 0 min 0,000 mm 0,0 UV-I 33 W/m 9,3 C 10,2 C 3,2 km/h (1 Bft) 95,83 %
01.05.2016 19:36 10,2 C 94 % 1016,5 hPa 0,0 l/m 3,2 km/h (1 Bft) N 5 0 min 0,000 mm 0,0 UV-I 33 W/m 9,3 C 10,2 C 8,0 km/h (2 Bft) 100,00 %
01.05.2016 19:37 10,2 C 94 % 1016,5 hPa 0,0 l/m 3,0 km/h (1 Bft) N 11 0 min 0,000 mm 0,0 UV-I 32 W/m 9,3 C 10,2 C 6,4 km/h (2 Bft) 100,00 %
01.05.2016 19:38 10,2 C 94 % 1016,5 hPa 0,0 l/m 0,7 km/h (0 Bft) SO 134 0 min 0,000 mm 0,0 UV-I 31 W/m 9,3 C 10,2 C 1,6 km/h (1 Bft) 96,30 %
01.05.2016 19:39 10,2 C 94 % 1016,5 hPa 0,0 l/m 1,4 km/h (1 Bft) O-NO 72 0 min 0,000 mm 0,0 UV-I 28 W/m 9,3 C 10,2 C 3,2 km/h (1 Bft) 96,15 %
01.05.2016 19:40 10,2 C 94 % 1016,5 hPa 0,0 l/m 1,7 km/h (1 Bft) O-NO 59 0 min 0,000 mm 0,0 UV-I 28 W/m 9,3 C 10,2 C 4,8 km/h (1 Bft) 100,00 %
01.05.2016 19:41 10,2 C 94 % 1016,5 hPa 0,0 l/m 3,6 km/h (1 Bft) O-NO 59 0 min 0,000 mm 0,0 UV-I 26 W/m 9,3 C 10,2 C 4,8 km/h (1 Bft) 95,65 %
01.05.2016 19:42 10,3 C 94 % 1016,6 hPa 0,0 l/m 2,5 km/h (1 Bft) O-NO 60 0 min 0,000 mm 0,0 UV-I 26 W/m 9,4 C 10,3 C 3,2 km/h (1 Bft) 100,00 %
01.05.2016 19:43 10,3 C 94 % 1016,5 hPa 0,0 l/m 0,3 km/h (0 Bft) O-NO 60 0 min 0,000 mm 0,0 UV-I 25 W/m 9,4 C 10,3 C 1,6 km/h (1 Bft) 95,83 %
01.05.2016 19:44 10,2 C 94 % 1016,5 hPa 0,2 l/m 0,0 km/h (0 Bft) O-NO 59 0 min 0,000 mm 0,0 UV-I 24 W/m 9,3 C 10,2 C 0,0 km/h (0 Bft) 100,00 %
01.05.2016 19:45 10,2 C 94 % 1016,4 hPa 0,0 l/m 0,6 km/h (0 Bft) O-NO 60 0 min 0,000 mm 0,0 UV-I 22 W/m 9,3 C 10,2 C 1,6 km/h (1 Bft) 96,15 %
01.05.2016 19:46 10,2 C 95 % 1016,4 hPa 0,0 l/m 0,8 km/h (0 Bft) O-NO 59 0 min 0,000 mm 0,0 UV-I 21 W/m 9,4 C 10,2 C 1,6 km/h (1 Bft) 100,00 %
01.05.2016 19:47 10,2 C 95 % 1016,4 hPa 0,0 l/m 0,1 km/h (0 Bft) O-NO 60 0 min 0,000 mm 0,0 UV-I 19 W/m 9,4 C 10,2 C 1,6 km/h (1 Bft) 100,00 %
01.05.2016 19:48 10,2 C 95 % 1016,4 hPa 0,0 l/m 2,2 km/h (1 Bft) O 89 0 min 0,000 mm 0,0 UV-I 17 W/m 9,4 C 10,2 C 3,2 km/h (1 Bft) 96,30 %
01.05.2016 19:49 10,2 C 95 % 1016,4 hPa 0,0 l/m 1,9 km/h (1 Bft) O-SO 122 0 min 0,000 mm 0,0 UV-I 15 W/m 9,4 C 10,2 C 4,8 km/h (1 Bft) 100,00 %
01.05.2016 19:50 10,2 C 95 % 1016,4 hPa 0,0 l/m 1,1 km/h (1 Bft) O-SO 123 0 min 0,000 mm 0,0 UV-I 14 W/m 9,4 C 10,2 C 1,6 km/h (1 Bft) 100,00 %
01.05.2016 19:51 10,3 C 95 % 1016,5 hPa 0,0 l/m 1,2 km/h (1 Bft) SO 129 0 min 0,000 mm 0,0 UV-I 12 W/m 9,5 C 10,3 C 1,6 km/h (1 Bft) 100,00 %
01.05.2016 19:52 10,3 C 95 % 1016,5 hPa 0,0 l/m 0,9 km/h (0 Bft) SO 129 0 min 0,000 mm 0,0 UV-I 12 W/m 9,5 C 10,3 C 1,6 km/h (1 Bft) 96,30 %
01.05.2016 19:53 10,3 C 95 % 1016,5 hPa 0,0 l/m 2,5 km/h (1 Bft) SO 129 0 min 0,000 mm 0,0 UV-I 11 W/m 9,5 C 10,3 C 3,2 km/h (1 Bft) 95,65 %
01.05.2016 19:54 10,3 C 95 % 1016,4 hPa 0,0 l/m 3,1 km/h (1 Bft) SO 129 0 min 0,000 mm 0,0 UV-I 9 W/m 9,5 C 10,3 C 4,8 km/h (1 Bft) 100,00 %
01.05.2016 19:55 10,3 C 95 % 1016,4 hPa 0,0 l/m 3,3 km/h (1 Bft) SO 129 0 min 0,000 mm 0,0 UV-I 9 W/m 9,5 C 10,3 C 4,8 km/h (1 Bft) 100,00 %
01.05.2016 19:56 10,3 C 95 % 1016,5 hPa 0,0 l/m 2,2 km/h (1 Bft) SO 129 0 min 0,000 mm 0,0 UV-I 9 W/m 9,5 C 10,3 C 3,2 km/h (1 Bft) 100,00 %
01.05.2016 19:57 10,2 C 95 % 1016,5 hPa 0,0 l/m 1,3 km/h (1 Bft) SO 129 0 min 0,000 mm 0,0 UV-I 9 W/m 9,4 C 10,2 C 3,2 km/h (1 Bft) 100,00 %
01.05.2016 19:58 10,2 C 95 % 1016,6 hPa 0,0 l/m 1,9 km/h (1 Bft) SO 134 0 min 0,000 mm 0,0 UV-I 7 W/m 9,4 C 10,2 C 3,2 km/h (1 Bft) 100,00 %
01.05.2016 19:59 10,2 C 95 % 1016,6 hPa 0,0 l/m 2,3 km/h (1 Bft) SO 144 0 min 0,000 mm 0,0 UV-I 7 W/m 9,4 C 10,2 C 4,8 km/h (1 Bft) 100,00 %
01.05.2016 20:00 10,2 C 95 % 1016,6 hPa 0,0 l/m 2,5 km/h (1 Bft) S-SO 155 0 min 0,000 mm 0,0 UV-I 7 W/m 9,4 C 10,2 C 3,2 km/h (1 Bft) 92,31 %
01.05.2016 20:01 10,2 C 95 % 1016,7 hPa 0,0 l/m 1,6 km/h (1 Bft) S-SO 155 0 min 0,025 mm 0,0 UV-I 7 W/m 9,4 C 10,2 C 3,2 km/h (1 Bft) 100,00 %
01.05.2016 20:02 10,2 C 95 % 1016,6 hPa 0,0 l/m 0,5 km/h (0 Bft) S-SO 155 0 min 0,000 mm 0,0 UV-I 7 W/m 9,4 C 10,2 C 1,6 km/h (1 Bft) 100,00 %
01.05.2016 20:03 10,2 C 95 % 1016,6 hPa 0,0 l/m 0,0 km/h (0 Bft) S-SO 155 0 min 0,000 mm 0,0 UV-I 7 W/m 9,4 C 10,2 C 0,0 km/h (0 Bft) 100,00 %
01.05.2016 20:04 10,2 C 95 % 1016,7 hPa 0,0 l/m 0,0 km/h (0 Bft) S-SO 155 0 min 0,000 mm 0,0 UV-I 7 W/m 9,4 C 10,2 C 0,0 km/h (0 Bft) 95,65 %
01.05.2016 20:05 10,1 C 95 % 1016,7 hPa 0,0 l/m 0,0 km/h (0 Bft) S-SO 155 0 min 0,000 mm 0,0 UV-I 7 W/m 9,3 C 10,1 C 0,0 km/h (0 Bft) 100,00 %
01.05.2016 20:06 10,2 C 95 % 1016,6 hPa 0,0 l/m 0,6 km/h (0 Bft) S-SO 155 0 min 0,000 mm 0,0 UV-I 7 W/m 9,4 C 10,2 C 1,6 km/h (1 Bft) 100,00 %
01.05.2016 20:07 10,2 C 95 % 1016,6 hPa 0,0 l/m 1,5 km/h (1 Bft) S 182 0 min 0,000 mm 0,0 UV-I 7 W/m 9,4 C 10,2 C 3,2 km/h (1 Bft) 100,00 %
01.05.2016 20:08 10,1 C 95 % 1016,6 hPa 0,0 l/m 1,0 km/h (0 Bft) S 182 0 min 0,000 mm 0,0 UV-I 7 W/m 9,3 C 10,1 C 1,6 km/h (1 Bft) 100,00 %
01.05.2016 20:09 10,1 C 95 % 1016,7 hPa 0,0 l/m 0,1 km/h (0 Bft) S 182 0 min 0,000 mm 0,0 UV-I 7 W/m 9,3 C 10,1 C 1,6 km/h (1 Bft) 95,83 %
01.05.2016 20:10 10,1 C 95 % 1016,7 hPa 0,0 l/m 0,0 km/h (0 Bft) S 182 0 min 0,000 mm 0,0 UV-I 5 W/m 9,3 C 10,1 C 0,0 km/h (0 Bft) 100,00 %
01.05.2016 20:11 10,1 C 95 % 1016,7 hPa 0,0 l/m 0,0 km/h (0 Bft) S 182 0 min 0,000 mm 0,0 UV-I 5 W/m 9,3 C 10,1 C 0,0 km/h (0 Bft) 100,00 %
01.05.2016 20:12 10,0 C 95 % 1016,8 hPa 0,0 l/m 0,0 km/h (0 Bft) S 182 0 min 0,000 mm 0,0 UV-I 5 W/m 9,2 C 10,0 C 0,0 km/h (0 Bft) 93,33 %
01.05.2016 20:13 10,0 C 95 % 1016,8 hPa 0,0 l/m 0,0 km/h (0 Bft) S 181 0 min 0,000 mm 0,0 UV-I 5 W/m 9,2 C 10,0 C 0,0 km/h (0 Bft) 100,00 %
01.05.2016 20:14 9,9 C 95 % 1016,8 hPa 0,0 l/m 0,1 km/h (0 Bft) S 182 0 min 0,000 mm 0,0 UV-I 1 W/m 9,1 C 9,9 C 1,6 km/h (1 Bft) 100,00 %
01.05.2016 20:15 9,9 C 95 % 1016,8 hPa 0,0 l/m 0,0 km/h (0 Bft) S 181 0 min 0,000 mm 0,0 UV-I 0 W/m 9,1 C 9,9 C 0,0 km/h (0 Bft) 96,30 %
01.05.2016 20:16 9,9 C 95 % 1016,8 hPa 0,0 l/m 0,0 km/h (0 Bft) S 182 0 min 0,000 mm 0,0 UV-I 0 W/m 9,1 C 9,9 C 0,0 km/h (0 Bft) 100,00 %
01.05.2016 20:17 9,9 C 96 % 1016,8 hPa 0,0 l/m 0,0 km/h (0 Bft) S 181 0 min 0,000 mm 0,0 UV-I 0 W/m 9,3 C 9,9 C 0,0 km/h (0 Bft) 100,00 %
01.05.2016 20:18 9,9 C 96 % 1016,8 hPa 0,0 l/m 0,0 km/h (0 Bft) S 182 0 min 0,000 mm 0,0 UV-I 0 W/m 9,3 C 9,9 C 0,0 km/h (0 Bft) 100,00 %
01.05.2016 20:19 9,9 C 96 % 1016,9 hPa 0,0 l/m 0,0 km/h (0 Bft) S 182 0 min 0,000 mm 0,0 UV-I 0 W/m 9,3 C 9,9 C 0,0 km/h (0 Bft) 100,00 %
01.05.2016 20:20 9,9 C 96 % 1016,8 hPa 0,0 l/m 0,0 km/h (0 Bft) S 182 0 min 0,000 mm 0,0 UV-I 0 W/m 9,3 C 9,9 C 0,0 km/h (0 Bft) 100,00 %
01.05.2016 20:21 9,9 C 96 % 1016,9 hPa 0,0 l/m 0,0 km/h (0 Bft) S 182 0 min 0,000 mm 0,0 UV-I 0 W/m 9,3 C 9,9 C 0,0 km/h (0 Bft) 100,00 %
01.05.2016 20:22 9,9 C 96 % 1016,9 hPa 0,0 l/m 0,0 km/h (0 Bft) S 181 0 min 0,000 mm 0,0 UV-I 0 W/m 9,3 C 9,9 C 0,0 km/h (0 Bft) 100,00 %
01.05.2016 20:23 9,9 C 96 % 1016,9 hPa 0,0 l/m 0,0 km/h (0 Bft) S 182 0 min 0,000 mm 0,0 UV-I 0 W/m 9,3 C 9,9 C 0,0 km/h (0 Bft) 100,00 %
01.05.2016 20:24 9,9 C 96 % 1016,9 hPa 0,0 l/m 0,0 km/h (0 Bft) S 181 0 min 0,000 mm 0,0 UV-I 0 W/m 9,3 C 9,9 C 0,0 km/h (0 Bft) 100,00 %
01.05.2016 20:25 9,9 C 96 % 1016,9 hPa 0,0 l/m 0,0 km/h (0 Bft) S 182 0 min 0,000 mm 0,0 UV-I 0 W/m 9,3 C 9,9 C 0,0 km/h (0 Bft) 95,65 %
01.05.2016 20:26 9,9 C 96 % 1016,9 hPa 0,0 l/m 0,0 km/h (0 Bft) S 181 0 min 0,000 mm 0,0 UV-I 0 W/m 9,3 C 9,9 C 0,0 km/h (0 Bft) 100,00 %
01.05.2016 20:27 9,9 C 96 % 1017,0 hPa 0,0 l/m 0,0 km/h (0 Bft) S 182 0 min 0,000 mm 0,0 UV-I 0 W/m 9,3 C 9,9 C 0,0 km/h (0 Bft) 100,00 %
01.05.2016 20:28 9,9 C 96 % 1017,0 hPa 0,0 l/m 0,0 km/h (0 Bft) S 181 0 min 0,000 mm 0,0 UV-I 0 W/m 9,3 C 9,9 C 0,0 km/h (0 Bft) 100,00 %
01.05.2016 20:29 9,9 C 96 % 1017,0 hPa 0,0 l/m 0,0 km/h (0 Bft) S 181 0 min 0,000 mm 0,0 UV-I 0 W/m 9,3 C 9,9 C 0,0 km/h (0 Bft) 100,00 %
01.05.2016 20:30 9,9 C 96 % 1017,0 hPa 0,0 l/m 0,0 km/h (0 Bft) S 181 0 min 0,000 mm 0,0 UV-I 0 W/m 9,3 C 9,9 C 0,0 km/h (0 Bft) 100,00 %
01.05.2016 20:31 9,9 C 96 % 1017,0 hPa 0,0 l/m 0,0 km/h (0 Bft) S 181 0 min 0,000 mm 0,0 UV-I 0 W/m 9,3 C 9,9 C 0,0 km/h (0 Bft) 100,00 %
01.05.2016 20:32 9,9 C 96 % 1017,0 hPa 0,0 l/m 0,0 km/h (0 Bft) S 181 0 min 0,000 mm 0,0 UV-I 0 W/m 9,3 C 9,9 C 0,0 km/h (0 Bft) 100,00 %
01.05.2016 20:33 9,9 C 96 % 1017,0 hPa 0,0 l/m 0,0 km/h (0 Bft) S 182 0 min 0,000 mm 0,0 UV-I 0 W/m 9,3 C 9,9 C 0,0 km/h (0 Bft) 100,00 %
01.05.2016 20:34 9,9 C 96 % 1016,9 hPa 0,0 l/m 0,0 km/h (0 Bft) S 182 0 min 0,000 mm 0,0 UV-I 0 W/m 9,3 C 9,9 C 0,0 km/h (0 Bft) 100,00 %
01.05.2016 20:35 9,9 C 96 % 1016,9 hPa 0,0 l/m 0,0 km/h (0 Bft) S 182 0 min 0,000 mm 0,0 UV-I 0 W/m 9,3 C 9,9 C 0,0 km/h (0 Bft) 100,00 %
01.05.2016 20:36 9,9 C 96 % 1016,9 hPa 0,0 l/m 0,0 km/h (0 Bft) S 182 0 min 0,000 mm 0,0 UV-I 0 W/m 9,3 C 9,9 C 0,0 km/h (0 Bft) 100,00 %
01.05.2016 20:37 9,9 C 96 % 1016,9 hPa 0,0 l/m 0,9 km/h (0 Bft) S 182 0 min 0,000 mm 0,0 UV-I 0 W/m 9,3 C 9,9 C 1,6 km/h (1 Bft) 100,00 %
01.05.2016 20:38 9,9 C 96 % 1016,9 hPa 0,0 l/m 0,8 km/h (0 Bft) S 182 0 min 0,000 mm 0,0 UV-I 0 W/m 9,3 C 9,9 C 1,6 km/h (1 Bft) 100,00 %
01.05.2016 20:39 9,9 C 96 % 1016,9 hPa 0,0 l/m 0,1 km/h (0 Bft) S 182 0 min 0,000 mm 0,0 UV-I 0 W/m 9,3 C 9,9 C 1,6 km/h (1 Bft) 100,00 %
01.05.2016 20:40 9,9 C 96 % 1016,9 hPa 0,0 l/m 0,0 km/h (0 Bft) S 182 0 min 0,000 mm 0,0 UV-I 0 W/m 9,3 C 9,9 C 0,0 km/h (0 Bft) 100,00 %
01.05.2016 20:41 9,9 C 96 % 1016,9 hPa 0,0 l/m 0,0 km/h (0 Bft) S 182 0 min 0,000 mm 0,0 UV-I 0 W/m 9,3 C 9,9 C 0,0 km/h (0 Bft) 100,00 %
01.05.2016 20:42 9,9 C 96 % 1016,9 hPa 0,0 l/m 0,0 km/h (0 Bft) S 182 0 min 0,000 mm 0,0 UV-I 0 W/m 9,3 C 9,9 C 0,0 km/h (0 Bft) 96,15 %
01.05.2016 20:43 9,9 C 96 % 1017,0 hPa 0,0 l/m 0,1 km/h (0 Bft) S 182 0 min 0,000 mm 0,0 UV-I 0 W/m 9,3 C 9,9 C 1,6 km/h (1 Bft) 100,00 %
01.05.2016 20:44 9,9 C 96 % 1016,9 hPa 0,0 l/m 0,2 km/h (0 Bft) S 182 0 min 0,000 mm 0,0 UV-I 0 W/m 9,3 C 9,9 C 1,6 km/h (1 Bft) 95,65 %
01.05.2016 20:45 9,9 C 96 % 1016,9 hPa 0,0 l/m 0,1 km/h (0 Bft) S 182 0 min 0,000 mm 0,0 UV-I 0 W/m 9,3 C 9,9 C 1,6 km/h (1 Bft) 100,00 %
01.05.2016 20:46 9,8 C 96 % 1016,9 hPa 0,0 l/m 0,0 km/h (0 Bft) S 182 0 min 0,000 mm 0,0 UV-I 0 W/m 9,2 C 9,8 C 0,0 km/h (0 Bft) 100,00 %
01.05.2016 20:47 9,8 C 96 % 1016,9 hPa 0,0 l/m 0,0 km/h (0 Bft) S 182 0 min 0,000 mm 0,0 UV-I 0 W/m 9,2 C 9,8 C 0,0 km/h (0 Bft) 100,00 %
01.05.2016 20:48 9,8 C 96 % 1017,0 hPa 0,0 l/m 0,0 km/h (0 Bft) S 182 0 min 0,000 mm 0,0 UV-I 0 W/m 9,2 C 9,8 C 0,0 km/h (0 Bft) 90,91 %
01.05.2016 20:49 9,8 C 96 % 1017,0 hPa 0,0 l/m 0,0 km/h (0 Bft) S 182 0 min 0,000 mm 0,0 UV-I 0 W/m 9,2 C 9,8 C 0,0 km/h (0 Bft) 100,00 %
01.05.2016 20:50 9,8 C 96 % 1017,0 hPa 0,0 l/m 0,0 km/h (0 Bft) S 182 0 min 0,000 mm 0,0 UV-I 0 W/m 9,2 C 9,8 C 0,0 km/h (0 Bft) 100,00 %
01.05.2016 20:51 9,8 C 96 % 1017,0 hPa 0,0 l/m 0,0 km/h (0 Bft) S 181 0 min 0,000 mm 0,0 UV-I 0 W/m 9,2 C 9,8 C 0,0 km/h (0 Bft) 100,00 %
01.05.2016 20:52 9,8 C 96 % 1017,0 hPa 0,0 l/m 0,0 km/h (0 Bft) S 182 0 min 0,000 mm 0,0 UV-I 0 W/m 9,2 C 9,8 C 0,0 km/h (0 Bft) 100,00 %
01.05.2016 20:53 9,8 C 96 % 1017,0 hPa 0,0 l/m 0,0 km/h (0 Bft) S 182 0 min 0,000 mm 0,0 UV-I 0 W/m 9,2 C 9,8 C 0,0 km/h (0 Bft) 95,83 %
01.05.2016 20:54 9,8 C 96 % 1017,0 hPa 0,0 l/m 0,0 km/h (0 Bft) S 182 0 min 0,000 mm 0,0 UV-I 0 W/m 9,2 C 9,8 C 0,0 km/h (0 Bft) 100,00 %
01.05.2016 20:55 9,8 C 96 % 1016,9 hPa 0,0 l/m 0,0 km/h (0 Bft) S 181 0 min 0,000 mm 0,0 UV-I 0 W/m 9,2 C 9,8 C 0,0 km/h (0 Bft) 95,65 %
01.05.2016 20:56 9,8 C 96 % 1017,0 hPa 0,0 l/m 0,3 km/h (0 Bft) S 182 0 min 0,000 mm 0,0 UV-I 0 W/m 9,2 C 9,8 C 1,6 km/h (1 Bft) 100,00 %
01.05.2016 20:57 9,8 C 96 % 1017,0 hPa 0,0 l/m 0,3 km/h (0 Bft) S 182 0 min 0,000 mm 0,0 UV-I 0 W/m 9,2 C 9,8 C 1,6 km/h (1 Bft) 100,00 %
01.05.2016 20:58 9,8 C 96 % 1017,0 hPa 0,0 l/m 0,6 km/h (0 Bft) S 182 0 min 0,000 mm 0,0 UV-I 0 W/m 9,2 C 9,8 C 1,6 km/h (1 Bft) 100,00 %
01.05.2016 20:59 9,8 C 96 % 1017,0 hPa 0,0 l/m 0,1 km/h (0 Bft) S 182 0 min 0,000 mm 0,0 UV-I 0 W/m 9,2 C 9,8 C 1,6 km/h (1 Bft) 100,00 %
01.05.2016 21:00 9,7 C 96 % 1017,0 hPa 0,0 l/m 0,0 km/h (0 Bft) S 181 0 min 0,000 mm 0,0 UV-I 0 W/m 9,1 C 9,7 C 0,0 km/h (0 Bft) 100,00 %
01.05.2016 21:01 9,7 C 96 % 1017,0 hPa 0,0 l/m 0,0 km/h (0 Bft) S 182 0 min 0,000 mm 0,0 UV-I 0 W/m 9,1 C 9,7 C 0,0 km/h (0 Bft) 100,00 %
01.05.2016 21:02 9,7 C 96 % 1017,1 hPa 0,0 l/m 0,6 km/h (0 Bft) S 182 0 min 0,000 mm 0,0 UV-I 0 W/m 9,1 C 9,7 C 1,6 km/h (1 Bft) 100,00 %
01.05.2016 21:03 9,6 C 96 % 1017,1 hPa 0,0 l/m 0,9 km/h (0 Bft) S 182 0 min 0,000 mm 0,0 UV-I 0 W/m 9,0 C 9,6 C 1,6 km/h (1 Bft) 100,00 %
01.05.2016 21:04 9,7 C 96 % 1017,1 hPa 0,0 l/m 0,7 km/h (0 Bft) S 182 0 min 0,000 mm 0,0 UV-I 0 W/m 9,1 C 9,7 C 1,6 km/h (1 Bft) 100,00 %
01.05.2016 21:05 9,7 C 96 % 1017,2 hPa 0,0 l/m 0,1 km/h (0 Bft) S 182 0 min 0,000 mm 0,0 UV-I 0 W/m 9,1 C 9,7 C 1,6 km/h (1 Bft) 100,00 %
01.05.2016 21:06 9,7 C 96 % 1017,2 hPa 0,0 l/m 0,4 km/h (0 Bft) S 182 0 min 0,000 mm 0,0 UV-I 0 W/m 9,1 C 9,7 C 1,6 km/h (1 Bft) 100,00 %
01.05.2016 21:07 9,7 C 97 % 1017,1 hPa 0,0 l/m 0,5 km/h (0 Bft) S 182 0 min 0,000 mm 0,0 UV-I 0 W/m 9,2 C 9,7 C 1,6 km/h (1 Bft) 100,00 %
01.05.2016 21:08 9,7 C 97 % 1017,2 hPa 0,0 l/m 1,4 km/h (1 Bft) S 182 0 min 0,000 mm 0,0 UV-I 0 W/m 9,2 C 9,7 C 3,2 km/h (1 Bft) 100,00 %
01.05.2016 21:09 9,7 C 96 % 1017,2 hPa 0,0 l/m 0,6 km/h (0 Bft) S 182 0 min 0,000 mm 0,0 UV-I 0 W/m 9,1 C 9,7 C 1,6 km/h (1 Bft) 100,00 %
01.05.2016 21:10 9,7 C 96 % 1017,2 hPa 0,0 l/m 0,7 km/h (0 Bft) S 182 0 min 0,000 mm 0,0 UV-I 0 W/m 9,1 C 9,7 C 1,6 km/h (1 Bft) 95,83 %
01.05.2016 21:11 9,7 C 96 % 1017,2 hPa 0,0 l/m 0,7 km/h (0 Bft) S 182 0 min 0,000 mm 0,0 UV-I 0 W/m 9,1 C 9,7 C 1,6 km/h (1 Bft) 100,00 %
01.05.2016 21:12 9,7 C 96 % 1017,2 hPa 0,0 l/m 0,9 km/h (0 Bft) S 182 0 min 0,000 mm 0,0 UV-I 0 W/m 9,1 C 9,7 C 1,6 km/h (1 Bft) 100,00 %
01.05.2016 21:13 9,7 C 97 % 1017,2 hPa 0,0 l/m 0,9 km/h (0 Bft) S 182 0 min 0,000 mm 0,0 UV-I 0 W/m 9,2 C 9,7 C 1,6 km/h (1 Bft) 91,67 %
01.05.2016 21:14 9,7 C 97 % 1017,2 hPa 0,0 l/m 0,9 km/h (0 Bft) S 182 0 min 0,000 mm 0,0 UV-I 0 W/m 9,2 C 9,7 C 1,6 km/h (1 Bft) 97,37 %
01.05.2016 21:15 9,7 C 97 % 1017,2 hPa 0,0 l/m 0,8 km/h (0 Bft) S 181 0 min 0,000 mm 0,0 UV-I 0 W/m 9,2 C 9,7 C 1,6 km/h (1 Bft) 100,00 %
01.05.2016 21:16 9,7 C 97 % 1017,2 hPa 0,0 l/m 0,5 km/h (0 Bft) S 182 0 min 0,000 mm 0,0 UV-I 0 W/m 9,2 C 9,7 C 1,6 km/h (1 Bft) 95,65 %
01.05.2016 21:17 9,7 C 97 % 1017,2 hPa 0,0 l/m 0,0 km/h (0 Bft) S 182 0 min 0,000 mm 0,0 UV-I 0 W/m 9,2 C 9,7 C 0,0 km/h (0 Bft) 96,15 %
01.05.2016 21:18 9,7 C 97 % 1017,3 hPa 0,0 l/m 0,2 km/h (0 Bft) S 182 0 min 0,000 mm 0,0 UV-I 0 W/m 9,2 C 9,7 C 1,6 km/h (1 Bft) 91,67 %
01.05.2016 21:19 9,7 C 97 % 1017,3 hPa 0,0 l/m 2,7 km/h (1 Bft) S 181 0 min 0,000 mm 0,0 UV-I 0 W/m 9,2 C 9,7 C 3,2 km/h (1 Bft) 100,00 %
01.05.2016 21:20 9,7 C 97 % 1017,4 hPa 0,0 l/m 4,7 km/h (1 Bft) SO 136 0 min 0,000 mm 0,0 UV-I 0 W/m 9,2 C 9,7 C 6,4 km/h (2 Bft) 96,15 %
01.05.2016 21:21 9,7 C 97 % 1017,4 hPa 0,0 l/m 5,0 km/h (1 Bft) SO 135 0 min 0,000 mm 0,0 UV-I 0 W/m 9,2 C 9,7 C 6,4 km/h (2 Bft) 100,00 %
01.05.2016 21:22 9,6 C 97 % 1017,5 hPa 0,0 l/m 5,7 km/h (1 Bft) SO 136 0 min 0,000 mm 0,0 UV-I 0 W/m 9,1 C 9,6 C 6,4 km/h (2 Bft) 96,15 %
01.05.2016 21:23 9,6 C 96 % 1017,5 hPa 0,0 l/m 4,7 km/h (1 Bft) SO 131 0 min 0,000 mm 0,0 UV-I 0 W/m 9,0 C 9,6 C 6,4 km/h (2 Bft) 92,59 %
01.05.2016 21:24 9,6 C 96 % 1017,5 hPa 0,0 l/m 5,1 km/h (1 Bft) SO 125 0 min 0,000 mm 0,0 UV-I 0 W/m 9,0 C 9,6 C 6,4 km/h (2 Bft) 100,00 %
01.05.2016 21:25 9,6 C 96 % 1017,5 hPa 0,0 l/m 4,2 km/h (1 Bft) SO 125 0 min 0,000 mm 0,0 UV-I 0 W/m 9,0 C 9,6 C 4,8 km/h (1 Bft) 93,33 %
01.05.2016 21:26 9,6 C 96 % 1017,5 hPa 0,0 l/m 3,5 km/h (1 Bft) SO 125 0 min 0,000 mm 0,0 UV-I 0 W/m 9,0 C 9,6 C 4,8 km/h (1 Bft) 100,00 %
01.05.2016 21:27 9,6 C 96 % 1017,5 hPa 0,0 l/m 1,8 km/h (1 Bft) SO 125 0 min 0,000 mm 0,0 UV-I 0 W/m 9,0 C 9,6 C 3,2 km/h (1 Bft) 96,30 %
01.05.2016 21:28 9,5 C 96 % 1017,5 hPa 0,0 l/m 1,0 km/h (0 Bft) SO 125 0 min 0,000 mm 0,0 UV-I 0 W/m 8,9 C 9,5 C 3,2 km/h (1 Bft) 96,15 %
01.05.2016 21:29 9,5 C 97 % 1017,5 hPa 0,0 l/m 0,1 km/h (0 Bft) SO 125 0 min 0,000 mm 0,0 UV-I 0 W/m 9,0 C 9,5 C 1,6 km/h (1 Bft) 100,00 %
01.05.2016 21:30 9,6 C 97 % 1017,5 hPa 0,0 l/m 0,0 km/h (0 Bft) SO 125 0 min 0,000 mm 0,0 UV-I 0 W/m 9,1 C 9,6 C 0,0 km/h (0 Bft) 95,65 %
01.05.2016 21:31 9,6 C 97 % 1017,5 hPa 0,0 l/m 0,0 km/h (0 Bft) SO 125 0 min 0,000 mm 0,0 UV-I 0 W/m 9,1 C 9,6 C 0,0 km/h (0 Bft) 100,00 %
01.05.2016 21:32 9,6 C 97 % 1017,4 hPa 0,0 l/m 0,1 km/h (0 Bft) SO 125 0 min 0,000 mm 0,0 UV-I 0 W/m 9,1 C 9,6 C 1,6 km/h (1 Bft) 91,67 %
01.05.2016 21:33 9,6 C 97 % 1017,4 hPa 0,0 l/m 0,0 km/h (0 Bft) SO 125 0 min 0,000 mm 0,0 UV-I 0 W/m 9,1 C 9,6 C 0,0 km/h (0 Bft) 100,00 %
01.05.2016 21:34 9,6 C 97 % 1017,4 hPa 0,0 l/m 0,0 km/h (0 Bft) SO 125 0 min 0,000 mm 0,0 UV-I 0 W/m 9,1 C 9,6 C 0,0 km/h (0 Bft) 95,83 %
01.05.2016 21:35 9,6 C 97 % 1017,4 hPa 0,0 l/m 0,0 km/h (0 Bft) SO 125 0 min 0,000 mm 0,0 UV-I 0 W/m 9,1 C 9,6 C 0,0 km/h (0 Bft) 100,00 %
01.05.2016 21:36 9,6 C 97 % 1017,4 hPa 0,0 l/m 0,0 km/h (0 Bft) SO 125 0 min 0,000 mm 0,0 UV-I 0 W/m 9,1 C 9,6 C 0,0 km/h (0 Bft) 95,83 %
01.05.2016 21:37 9,6 C 97 % 1017,4 hPa 0,0 l/m 0,0 km/h (0 Bft) SO 125 0 min 0,000 mm 0,0 UV-I 0 W/m 9,1 C 9,6 C 0,0 km/h (0 Bft) 92,31 %
01.05.2016 21:38 9,6 C 97 % 1017,4 hPa 0,0 l/m 0,0 km/h (0 Bft) SO 125 0 min 0,000 mm 0,0 UV-I 0 W/m 9,1 C 9,6 C 0,0 km/h (0 Bft) 96,15 %
01.05.2016 21:39 9,6 C 97 % 1017,5 hPa 0,0 l/m 0,4 km/h (0 Bft) SO 125 0 min 0,000 mm 0,0 UV-I 0 W/m 9,1 C 9,6 C 1,6 km/h (1 Bft) 100,00 %
01.05.2016 21:40 9,6 C 97 % 1017,5 hPa 0,0 l/m 1,5 km/h (1 Bft) SO 125 0 min 0,000 mm 0,0 UV-I 0 W/m 9,1 C 9,6 C 3,2 km/h (1 Bft) 96,30 %
01.05.2016 21:41 9,6 C 97 % 1017,5 hPa 0,0 l/m 0,8 km/h (0 Bft) SO 130 0 min 0,000 mm 0,0 UV-I 0 W/m 9,1 C 9,6 C 1,6 km/h (1 Bft) 96,15 %
01.05.2016 21:42 9,6 C 97 % 1017,5 hPa 0,0 l/m 1,5 km/h (1 Bft) SO 132 0 min 0,000 mm 0,0 UV-I 0 W/m 9,1 C 9,6 C 3,2 km/h (1 Bft) 100,00 %
01.05.2016 21:43 9,6 C 97 % 1017,5 hPa 0,0 l/m 0,9 km/h (0 Bft) SO 132 0 min 0,000 mm 0,0 UV-I 0 W/m 9,1 C 9,6 C 1,6 km/h (1 Bft) 95,65 %
01.05.2016 21:44 9,6 C 97 % 1017,5 hPa 0,0 l/m 1,2 km/h (1 Bft) SO 132 0 min 0,000 mm 0,0 UV-I 0 W/m 9,1 C 9,6 C 3,2 km/h (1 Bft) 100,00 %
01.05.2016 21:45 9,6 C 97 % 1017,5 hPa 0,0 l/m 1,3 km/h (1 Bft) SO 132 0 min 0,000 mm 0,0 UV-I 0 W/m 9,1 C 9,6 C 1,6 km/h (1 Bft) 92,86 %
01.05.2016 21:46 9,6 C 97 % 1017,5 hPa 0,0 l/m 3,0 km/h (1 Bft) SO 132 0 min 0,000 mm 0,0 UV-I 0 W/m 9,1 C 9,6 C 3,2 km/h (1 Bft) 97,22 %
01.05.2016 21:47 9,6 C 97 % 1017,5 hPa 0,0 l/m 1,9 km/h (1 Bft) SO 132 0 min 0,000 mm 0,0 UV-I 0 W/m 9,1 C 9,6 C 3,2 km/h (1 Bft) 100,00 %
01.05.2016 21:48 9,6 C 97 % 1017,5 hPa 0,0 l/m 0,2 km/h (0 Bft) SO 132 0 min 0,000 mm 0,0 UV-I 0 W/m 9,1 C 9,6 C 1,6 km/h (1 Bft) 87,50 %
01.05.2016 21:49 9,6 C 97 % 1017,5 hPa 0,0 l/m 0,0 km/h (0 Bft) SO 132 0 min 0,000 mm 0,0 UV-I 0 W/m 9,1 C 9,6 C 0,0 km/h (0 Bft) 96,55 %
01.05.2016 21:50 9,6 C 97 % 1017,6 hPa 0,0 l/m 0,0 km/h (0 Bft) SO 132 0 min 0,000 mm 0,0 UV-I 0 W/m 9,1 C 9,6 C 0,0 km/h (0 Bft) 100,00 %
01.05.2016 21:51 9,6 C 97 % 1017,6 hPa 0,0 l/m 0,0 km/h (0 Bft) SO 132 0 min 0,000 mm 0,0 UV-I 0 W/m 9,1 C 9,6 C 0,0 km/h (0 Bft) 100,00 %
01.05.2016 21:52 9,6 C 97 % 1017,6 hPa 0,0 l/m 0,1 km/h (0 Bft) SO 132 0 min 0,000 mm 0,0 UV-I 0 W/m 9,1 C 9,6 C 1,6 km/h (1 Bft) 100,00 %
01.05.2016 21:53 9,6 C 97 % 1017,6 hPa 0,0 l/m 1,2 km/h (1 Bft) SO 132 0 min 0,000 mm 0,0 UV-I 0 W/m 9,1 C 9,6 C 1,6 km/h (1 Bft) 96,15 %
01.05.2016 21:54 9,6 C 97 % 1017,6 hPa 0,0 l/m 1,2 km/h (1 Bft) SO 132 0 min 0,000 mm 0,0 UV-I 0 W/m 9,1 C 9,6 C 1,6 km/h (1 Bft) 100,00 %
01.05.2016 21:55 9,6 C 97 % 1017,6 hPa 0,0 l/m 0,7 km/h (0 Bft) SO 132 0 min 0,000 mm 0,0 UV-I 0 W/m 9,1 C 9,6 C 1,6 km/h (1 Bft) 91,30 %
01.05.2016 21:56 9,6 C 97 % 1017,6 hPa 0,0 l/m 0,6 km/h (0 Bft) SO 132 0 min 0,000 mm 0,0 UV-I 0 W/m 9,1 C 9,6 C 1,6 km/h (1 Bft) 100,00 %
01.05.2016 21:57 9,6 C 97 % 1017,7 hPa 0,0 l/m 1,3 km/h (1 Bft) SO 132 0 min 0,000 mm 0,0 UV-I 0 W/m 9,1 C 9,6 C 3,2 km/h (1 Bft) 91,67 %
01.05.2016 21:58 9,6 C 97 % 1017,7 hPa 0,0 l/m 1,5 km/h (1 Bft) SO 132 0 min 0,000 mm 0,0 UV-I 0 W/m 9,1 C 9,6 C 3,2 km/h (1 Bft) 100,00 %
01.05.2016 21:59 9,6 C 97 % 1017,7 hPa 0,0 l/m 1,5 km/h (1 Bft) SO 132 0 min 0,000 mm 0,0 UV-I 0 W/m 9,1 C 9,6 C 3,2 km/h (1 Bft) 100,00 %
01.05.2016 22:00 9,5 C 97 % 1017,7 hPa 0,0 l/m 2,3 km/h (1 Bft) SO 132 0 min 0,000 mm 0,0 UV-I 0 W/m 9,0 C 9,5 C 3,2 km/h (1 Bft) 100,00 %
01.05.2016 22:01 9,5 C 97 % 1017,7 hPa 0,0 l/m 2,7 km/h (1 Bft) SO 132 0 min 0,000 mm 0,0 UV-I 0 W/m 9,0 C 9,5 C 3,2 km/h (1 Bft) 100,00 %
01.05.2016 22:02 9,5 C 97 % 1017,7 hPa 0,0 l/m 3,1 km/h (1 Bft) SO 132 0 min 0,000 mm 0,0 UV-I 0 W/m 9,0 C 9,5 C 3,2 km/h (1 Bft) 100,00 %
01.05.2016 22:03 9,4 C 97 % 1017,6 hPa 0,0 l/m 2,8 km/h (1 Bft) SO 140 0 min 0,000 mm 0,0 UV-I 0 W/m 8,9 C 9,4 C 3,2 km/h (1 Bft) 100,00 %
01.05.2016 22:04 9,4 C 97 % 1017,7 hPa 0,0 l/m 3,3 km/h (1 Bft) SO 140 0 min 0,000 mm 0,0 UV-I 0 W/m 8,9 C 9,4 C 4,8 km/h (1 Bft) 100,00 %
01.05.2016 22:05 9,4 C 97 % 1017,6 hPa 0,0 l/m 3,4 km/h (1 Bft) S-SO 148 0 min 0,000 mm 0,0 UV-I 0 W/m 8,9 C 9,4 C 4,8 km/h (1 Bft) 100,00 %
01.05.2016 22:06 9,4 C 97 % 1017,6 hPa 0,0 l/m 3,2 km/h (1 Bft) S-SO 148 0 min 0,000 mm 0,0 UV-I 0 W/m 8,9 C 9,4 C 3,2 km/h (1 Bft) 96,15 %
01.05.2016 22:07 9,4 C 97 % 1017,7 hPa 0,0 l/m 2,3 km/h (1 Bft) S-SO 148 0 min 0,000 mm 0,0 UV-I 0 W/m 8,9 C 9,4 C 3,2 km/h (1 Bft) 100,00 %
01.05.2016 22:08 9,4 C 97 % 1017,7 hPa 0,0 l/m 1,8 km/h (1 Bft) S-SO 148 0 min 0,000 mm 0,0 UV-I 0 W/m 8,9 C 9,4 C 3,2 km/h (1 Bft) 100,00 %
01.05.2016 22:09 9,4 C 97 % 1017,6 hPa 0,0 l/m 2,1 km/h (1 Bft) S-SO 148 0 min 0,000 mm 0,0 UV-I 0 W/m 8,9 C 9,4 C 3,2 km/h (1 Bft) 100,00 %
01.05.2016 22:10 9,4 C 97 % 1017,6 hPa 0,0 l/m 2,8 km/h (1 Bft) S-SO 148 0 min 0,000 mm 0,0 UV-I 0 W/m 8,9 C 9,4 C 3,2 km/h (1 Bft) 100,00 %
01.05.2016 22:11 9,4 C 97 % 1017,6 hPa 0,0 l/m 2,5 km/h (1 Bft) S-SO 148 0 min 0,000 mm 0,0 UV-I 0 W/m 8,9 C 9,4 C 3,2 km/h (1 Bft) 100,00 %
01.05.2016 22:12 9,4 C 97 % 1017,6 hPa 0,0 l/m 1,3 km/h (1 Bft) S-SO 148 0 min 0,000 mm 0,0 UV-I 0 W/m 8,9 C 9,4 C 3,2 km/h (1 Bft) 98,59 %
01.05.2016 22:13 9,5 C 97 % 1017,6 hPa 0,0 l/m 0,8 km/h (0 Bft) S-SO 148 0 min 0,000 mm 0,0 UV-I 0 W/m 9,0 C 9,5 C 1,6 km/h (1 Bft) 97,37 %
01.05.2016 22:14 9,5 C 97 % 1017,7 hPa 0,0 l/m 1,7 km/h (1 Bft) S-SO 148 0 min 0,000 mm 0,0 UV-I 0 W/m 9,0 C 9,5 C 3,2 km/h (1 Bft) 100,00 %
01.05.2016 22:15 9,5 C 97 % 1017,7 hPa 0,0 l/m 1,7 km/h (1 Bft) S-SO 148 0 min 0,000 mm 0,0 UV-I 0 W/m 9,0 C 9,5 C 3,2 km/h (1 Bft) 100,00 %
01.05.2016 22:16 9,5 C 97 % 1017,7 hPa 0,0 l/m 1,5 km/h (1 Bft) S-SO 148 0 min 0,000 mm 0,0 UV-I 0 W/m 9,0 C 9,5 C 3,2 km/h (1 Bft) 100,00 %
01.05.2016 22:17 9,5 C 97 % 1017,7 hPa 0,0 l/m 2,0 km/h (1 Bft) S-SO 148 0 min 0,000 mm 0,0 UV-I 0 W/m 9,0 C 9,5 C 3,2 km/h (1 Bft) 95,65 %
01.05.2016 22:18 9,5 C 97 % 1017,7 hPa 0,0 l/m 2,3 km/h (1 Bft) S-SO 148 0 min 0,000 mm 0,0 UV-I 0 W/m 9,0 C 9,5 C 3,2 km/h (1 Bft) 100,00 %
01.05.2016 22:19 9,5 C 97 % 1017,7 hPa 0,0 l/m 1,8 km/h (1 Bft) S-SO 148 0 min 0,000 mm 0,0 UV-I 0 W/m 9,0 C 9,5 C 3,2 km/h (1 Bft) 100,00 %
01.05.2016 22:20 9,4 C 97 % 1017,7 hPa 0,0 l/m 1,7 km/h (1 Bft) S-SO 148 0 min 0,000 mm 0,0 UV-I 0 W/m 8,9 C 9,4 C 3,2 km/h (1 Bft) 100,00 %
01.05.2016 22:21 9,4 C 97 % 1017,7 hPa 0,0 l/m 2,2 km/h (1 Bft) S-SO 148 0 min 0,000 mm 0,0 UV-I 0 W/m 8,9 C 9,4 C 3,2 km/h (1 Bft) 100,00 %
01.05.2016 22:22 9,4 C 97 % 1017,7 hPa 0,0 l/m 1,9 km/h (1 Bft) S-SO 148 0 min 0,000 mm 0,0 UV-I 0 W/m 8,9 C 9,4 C 3,2 km/h (1 Bft) 100,00 %
01.05.2016 22:23 9,4 C 97 % 1017,7 hPa 0,0 l/m 3,0 km/h (1 Bft) S-SO 148 0 min 0,000 mm 0,0 UV-I 0 W/m 8,9 C 9,4 C 4,8 km/h (1 Bft) 100,00 %
01.05.2016 22:24 9,4 C 97 % 1017,8 hPa 0,0 l/m 1,9 km/h (1 Bft) S-SO 148 0 min 0,000 mm 0,0 UV-I 0 W/m 8,9 C 9,4 C 3,2 km/h (1 Bft) 100,00 %
01.05.2016 22:25 9,4 C 97 % 1017,7 hPa 0,0 l/m 2,3 km/h (1 Bft) S-SO 148 0 min 0,000 mm 0,0 UV-I 0 W/m 8,9 C 9,4 C 3,2 km/h (1 Bft) 100,00 %
01.05.2016 22:26 9,4 C 97 % 1017,8 hPa 0,0 l/m 1,9 km/h (1 Bft) S-SO 148 0 min 0,000 mm 0,0 UV-I 0 W/m 8,9 C 9,4 C 3,2 km/h (1 Bft) 100,00 %
01.05.2016 22:27 9,4 C 97 % 1017,8 hPa 0,0 l/m 1,5 km/h (1 Bft) S-SO 148 0 min 0,000 mm 0,0 UV-I 0 W/m 8,9 C 9,4 C 1,6 km/h (1 Bft) 100,00 %
01.05.2016 22:28 9,4 C 97 % 1017,8 hPa 0,0 l/m 2,0 km/h (1 Bft) S-SO 148 0 min 0,000 mm 0,0 UV-I 0 W/m 8,9 C 9,4 C 3,2 km/h (1 Bft) 100,00 %
01.05.2016 22:29 9,4 C 97 % 1017,8 hPa 0,0 l/m 2,3 km/h (1 Bft) S-SO 148 0 min 0,000 mm 0,0 UV-I 0 W/m 8,9 C 9,4 C 3,2 km/h (1 Bft) 100,00 %
01.05.2016 22:30 9,4 C 97 % 1017,8 hPa 0,0 l/m 2,6 km/h (1 Bft) S-SO 148 0 min 0,000 mm 0,0 UV-I 0 W/m 8,9 C 9,4 C 3,2 km/h (1 Bft) 95,83 %
01.05.2016 22:31 9,4 C 97 % 1017,8 hPa 0,0 l/m 2,1 km/h (1 Bft) S-SO 148 0 min 0,000 mm 0,0 UV-I 0 W/m 8,9 C 9,4 C 3,2 km/h (1 Bft) 100,00 %
01.05.2016 22:32 9,4 C 97 % 1017,7 hPa 0,0 l/m 2,1 km/h (1 Bft) S-SO 148 0 min 0,000 mm 0,0 UV-I 0 W/m 8,9 C 9,4 C 3,2 km/h (1 Bft) 100,00 %
01.05.2016 22:33 9,4 C 97 % 1017,8 hPa 0,0 l/m 1,0 km/h (0 Bft) S-SO 148 0 min 0,000 mm 0,0 UV-I 0 W/m 8,9 C 9,4 C 1,6 km/h (1 Bft) 100,00 %
01.05.2016 22:34 9,4 C 97 % 1017,8 hPa 0,0 l/m 1,5 km/h (1 Bft) S-SO 148 0 min 0,000 mm 0,0 UV-I 0 W/m 8,9 C 9,4 C 3,2 km/h (1 Bft) 100,00 %
01.05.2016 22:35 9,4 C 97 % 1017,8 hPa 0,0 l/m 1,6 km/h (1 Bft) S-SO 148 0 min 0,000 mm 0,0 UV-I 0 W/m 8,9 C 9,4 C 3,2 km/h (1 Bft) 100,00 %
01.05.2016 22:36 9,4 C 97 % 1017,8 hPa 0,0 l/m 2,2 km/h (1 Bft) S-SO 148 0 min 0,000 mm 0,0 UV-I 0 W/m 8,9 C 9,4 C 3,2 km/h (1 Bft) 100,00 %
01.05.2016 22:37 9,4 C 97 % 1017,8 hPa 0,0 l/m 2,7 km/h (1 Bft) S-SO 148 0 min 0,000 mm 0,0 UV-I 0 W/m 8,9 C 9,4 C 3,2 km/h (1 Bft) 100,00 %
01.05.2016 22:38 9,4 C 97 % 1017,8 hPa 0,0 l/m 3,0 km/h (1 Bft) S-SO 148 0 min 0,000 mm 0,0 UV-I 0 W/m 8,9 C 9,4 C 3,2 km/h (1 Bft) 100,00 %
01.05.2016 22:39 9,4 C 97 % 1017,8 hPa 0,0 l/m 3,0 km/h (1 Bft) S-SO 148 0 min 0,000 mm 0,0 UV-I 0 W/m 8,9 C 9,4 C 4,8 km/h (1 Bft) 100,00 %
01.05.2016 22:40 9,4 C 97 % 1017,8 hPa 0,0 l/m 3,3 km/h (1 Bft) S-SO 148 0 min 0,000 mm 0,0 UV-I 0 W/m 8,9 C 9,4 C 4,8 km/h (1 Bft) 100,00 %
01.05.2016 22:41 9,4 C 97 % 1017,8 hPa 0,0 l/m 2,7 km/h (1 Bft) S-SO 148 0 min 0,000 mm 0,0 UV-I 0 W/m 8,9 C 9,4 C 3,2 km/h (1 Bft) 100,00 %
01.05.2016 22:42 9,4 C 97 % 1017,8 hPa 0,0 l/m 2,5 km/h (1 Bft) S-SO 149 0 min 0,000 mm 0,0 UV-I 0 W/m 8,9 C 9,4 C 3,2 km/h (1 Bft) 100,00 %
01.05.2016 22:43 9,4 C 97 % 1017,8 hPa 0,0 l/m 2,3 km/h (1 Bft) S-SO 149 0 min 0,000 mm 0,0 UV-I 0 W/m 8,9 C 9,4 C 3,2 km/h (1 Bft) 100,00 %
01.05.2016 22:44 9,4 C 97 % 1017,8 hPa 0,0 l/m 2,9 km/h (1 Bft) S-SO 149 0 min 0,000 mm 0,0 UV-I 0 W/m 8,9 C 9,4 C 4,8 km/h (1 Bft) 100,00 %
01.05.2016 22:45 9,4 C 97 % 1017,8 hPa 0,0 l/m 2,3 km/h (1 Bft) S-SO 149 0 min 0,000 mm 0,0 UV-I 0 W/m 8,9 C 9,4 C 3,2 km/h (1 Bft) 100,00 %
01.05.2016 22:46 9,4 C 97 % 1017,8 hPa 0,0 l/m 2,6 km/h (1 Bft) S-SO 149 0 min 0,000 mm 0,0 UV-I 0 W/m 8,9 C 9,4 C 3,2 km/h (1 Bft) 92,31 %
01.05.2016 22:47 9,4 C 97 % 1017,8 hPa 0,0 l/m 2,0 km/h (1 Bft) S-SO 149 0 min 0,000 mm 0,0 UV-I 0 W/m 8,9 C 9,4 C 3,2 km/h (1 Bft) 100,00 %
01.05.2016 22:48 9,4 C 97 % 1017,8 hPa 0,0 l/m 1,5 km/h (1 Bft) S-SO 149 0 min 0,000 mm 0,0 UV-I 0 W/m 8,9 C 9,4 C 1,6 km/h (1 Bft) 100,00 %
01.05.2016 22:49 9,4 C 97 % 1017,9 hPa 0,0 l/m 1,1 km/h (1 Bft) S-SO 149 0 min 0,000 mm 0,0 UV-I 0 W/m 8,9 C 9,4 C 1,6 km/h (1 Bft) 100,00 %
01.05.2016 22:50 9,4 C 97 % 1017,8 hPa 0,0 l/m 0,6 km/h (0 Bft) S-SO 149 0 min 0,000 mm 0,0 UV-I 0 W/m 8,9 C 9,4 C 1,6 km/h (1 Bft) 100,00 %
01.05.2016 22:51 9,4 C 97 % 1017,8 hPa 0,0 l/m 1,5 km/h (1 Bft) S-SO 149 0 min 0,000 mm 0,0 UV-I 0 W/m 8,9 C 9,4 C 3,2 km/h (1 Bft) 100,00 %
01.05.2016 22:52 9,4 C 97 % 1017,8 hPa 0,0 l/m 2,8 km/h (1 Bft) S-SO 149 0 min 0,000 mm 0,0 UV-I 0 W/m 8,9 C 9,4 C 3,2 km/h (1 Bft) 96,15 %
01.05.2016 22:53 9,4 C 97 % 1017,9 hPa 0,0 l/m 2,7 km/h (1 Bft) S-SO 149 0 min 0,000 mm 0,0 UV-I 0 W/m 8,9 C 9,4 C 3,2 km/h (1 Bft) 95,83 %
01.05.2016 22:54 9,4 C 97 % 1017,8 hPa 0,0 l/m 3,4 km/h (1 Bft) S-SO 149 0 min 0,000 mm 0,0 UV-I 0 W/m 8,9 C 9,4 C 4,8 km/h (1 Bft) 100,00 %
01.05.2016 22:55 9,4 C 97 % 1017,8 hPa 0,0 l/m 3,5 km/h (1 Bft) S-SO 155 0 min 0,000 mm 0,0 UV-I 0 W/m 8,9 C 9,4 C 4,8 km/h (1 Bft) 100,00 %
01.05.2016 22:56 9,4 C 97 % 1017,9 hPa 0,0 l/m 4,7 km/h (1 Bft) S 171 0 min 0,000 mm 0,0 UV-I 0 W/m 8,9 C 9,4 C 6,4 km/h (2 Bft) 100,00 %
01.05.2016 22:57 9,4 C 97 % 1017,8 hPa 0,0 l/m 3,6 km/h (1 Bft) S 182 0 min 0,000 mm 0,0 UV-I 0 W/m 8,9 C 9,4 C 6,4 km/h (2 Bft) 100,00 %
01.05.2016 22:58 9,4 C 97 % 1017,8 hPa 0,0 l/m 3,2 km/h (1 Bft) S-SW 192 0 min 0,000 mm 0,0 UV-I 0 W/m 8,9 C 9,4 C 4,8 km/h (1 Bft) 95,83 %
01.05.2016 22:59 9,4 C 97 % 1017,9 hPa 0,0 l/m 3,9 km/h (1 Bft) SW 222 0 min 0,000 mm 0,0 UV-I 0 W/m 8,9 C 9,4 C 6,4 km/h (2 Bft) 90,91 %
01.05.2016 23:00 9,4 C 97 % 1017,9 hPa 0,0 l/m 4,3 km/h (1 Bft) SW 233 0 min 0,000 mm 0,0 UV-I 0 W/m 8,9 C 9,4 C 6,4 km/h (2 Bft) 100,00 %
01.05.2016 23:01 9,4 C 97 % 1017,9 hPa 0,0 l/m 4,7 km/h (1 Bft) W-SW 244 0 min 0,000 mm 0,0 UV-I 0 W/m 8,9 C 9,4 C 6,4 km/h (2 Bft) 100,00 %
01.05.2016 23:02 9,4 C 97 % 1017,9 hPa 0,0 l/m 3,0 km/h (1 Bft) SW 233 0 min 0,000 mm 0,0 UV-I 0 W/m 8,9 C 9,4 C 4,8 km/h (1 Bft) 100,00 %
01.05.2016 23:03 9,4 C 97 % 1017,8 hPa 0,0 l/m 1,4 km/h (1 Bft) SW 233 0 min 0,000 mm 0,0 UV-I 0 W/m 8,9 C 9,4 C 1,6 km/h (1 Bft) 100,00 %
01.05.2016 23:04 9,4 C 97 % 1017,8 hPa 0,0 l/m 1,4 km/h (1 Bft) SW 233 0 min 0,000 mm 0,0 UV-I 0 W/m 8,9 C 9,4 C 3,2 km/h (1 Bft) 100,00 %
01.05.2016 23:05 9,4 C 97 % 1017,9 hPa 0,0 l/m 0,6 km/h (0 Bft) SW 233 0 min 0,000 mm 0,0 UV-I 0 W/m 8,9 C 9,4 C 1,6 km/h (1 Bft) 95,65 %
01.05.2016 23:06 9,4 C 97 % 1017,9 hPa 0,0 l/m 0,0 km/h (0 Bft) SW 233 0 min 0,000 mm 0,0 UV-I 0 W/m 8,9 C 9,4 C 0,0 km/h (0 Bft) 100,00 %
01.05.2016 23:07 9,4 C 97 % 1017,9 hPa 0,0 l/m 0,0 km/h (0 Bft) SW 233 0 min 0,000 mm 0,0 UV-I 0 W/m 8,9 C 9,4 C 0,0 km/h (0 Bft) 95,65 %
01.05.2016 23:08 9,4 C 97 % 1017,9 hPa 0,0 l/m 0,0 km/h (0 Bft) SW 233 0 min 0,000 mm 0,0 UV-I 0 W/m 8,9 C 9,4 C 0,0 km/h (0 Bft) 100,00 %
01.05.2016 23:09 9,4 C 97 % 1017,9 hPa 0,0 l/m 0,1 km/h (0 Bft) SW 233 0 min 0,000 mm 0,0 UV-I 0 W/m 8,9 C 9,4 C 1,6 km/h (1 Bft) 95,65 %
01.05.2016 23:10 9,4 C 97 % 1017,9 hPa 0,0 l/m 0,7 km/h (0 Bft) SW 233 0 min 0,000 mm 0,0 UV-I 0 W/m 8,9 C 9,4 C 1,6 km/h (1 Bft) 100,00 %
01.05.2016 23:11 9,4 C 97 % 1017,9 hPa 0,0 l/m 0,8 km/h (0 Bft) SW 233 0 min 0,000 mm 0,0 UV-I 0 W/m 8,9 C 9,4 C 1,6 km/h (1 Bft) 100,00 %
01.05.2016 23:12 9,4 C 97 % 1017,9 hPa 0,0 l/m 1,2 km/h (1 Bft) SW 233 0 min 0,000 mm 0,0 UV-I 0 W/m 8,9 C 9,4 C 1,6 km/h (1 Bft) 100,00 %
01.05.2016 23:13 9,4 C 97 % 1017,9 hPa 0,0 l/m 2,8 km/h (1 Bft) SW 233 0 min 0,000 mm 0,0 UV-I 0 W/m 8,9 C 9,4 C 3,2 km/h (1 Bft) 100,00 %
01.05.2016 23:14 9,4 C 97 % 1017,9 hPa 0,0 l/m 1,6 km/h (1 Bft) SW 233 0 min 0,000 mm 0,0 UV-I 0 W/m 8,9 C 9,4 C 3,2 km/h (1 Bft) 93,75 %
01.05.2016 23:15 9,4 C 97 % 1017,8 hPa 0,0 l/m 2,8 km/h (1 Bft) W 271 0 min 0,000 mm 0,0 UV-I 0 W/m 8,9 C 9,4 C 4,8 km/h (1 Bft) 100,00 %
01.05.2016 23:16 9,4 C 97 % 1017,9 hPa 0,0 l/m 2,7 km/h (1 Bft) W 271 0 min 0,000 mm 0,0 UV-I 0 W/m 8,9 C 9,4 C 3,2 km/h (1 Bft) 91,67 %
01.05.2016 23:17 9,4 C 97 % 1017,8 hPa 0,0 l/m 2,7 km/h (1 Bft) W 269 0 min 0,000 mm 0,0 UV-I 0 W/m 8,9 C 9,4 C 4,8 km/h (1 Bft) 100,00 %
01.05.2016 23:18 9,4 C 97 % 1017,8 hPa 0,0 l/m 2,7 km/h (1 Bft) W 269 0 min 0,000 mm 0,0 UV-I 0 W/m 8,9 C 9,4 C 3,2 km/h (1 Bft) 91,30 %
01.05.2016 23:19 9,4 C 97 % 1017,8 hPa 0,0 l/m 2,8 km/h (1 Bft) W 269 0 min 0,000 mm 0,0 UV-I 0 W/m 8,9 C 9,4 C 4,8 km/h (1 Bft) 100,00 %
01.05.2016 23:20 9,4 C 97 % 1017,8 hPa 0,0 l/m 1,8 km/h (1 Bft) W 269 0 min 0,000 mm 0,0 UV-I 0 W/m 8,9 C 9,4 C 3,2 km/h (1 Bft) 96,55 %
01.05.2016 23:21 9,4 C 97 % 1017,8 hPa 0,0 l/m 2,0 km/h (1 Bft) W 269 0 min 0,000 mm 0,0 UV-I 0 W/m 8,9 C 9,4 C 3,2 km/h (1 Bft) 100,00 %
01.05.2016 23:22 9,4 C 97 % 1017,9 hPa 0,0 l/m 1,8 km/h (1 Bft) W 269 0 min 0,000 mm 0,0 UV-I 0 W/m 8,9 C 9,4 C 3,2 km/h (1 Bft) 95,65 %
01.05.2016 23:23 9,4 C 97 % 1017,8 hPa 0,0 l/m 2,0 km/h (1 Bft) W 269 0 min 0,000 mm 0,0 UV-I 0 W/m 8,9 C 9,4 C 3,2 km/h (1 Bft) 95,83 %
01.05.2016 23:24 9,4 C 97 % 1017,8 hPa 0,0 l/m 2,4 km/h (1 Bft) W 269 0 min 0,000 mm 0,0 UV-I 0 W/m 8,9 C 9,4 C 3,2 km/h (1 Bft) 100,00 %
01.05.2016 23:25 9,4 C 97 % 1017,9 hPa 0,0 l/m 3,0 km/h (1 Bft) W 269 0 min 0,000 mm 0,0 UV-I 0 W/m 8,9 C 9,4 C 4,8 km/h (1 Bft) 95,83 %
01.05.2016 23:26 9,4 C 97 % 1017,9 hPa 0,0 l/m 2,6 km/h (1 Bft) W 269 0 min 0,000 mm 0,0 UV-I 0 W/m 8,9 C 9,4 C 4,8 km/h (1 Bft) 100,00 %
01.05.2016 23:27 9,4 C 97 % 1017,9 hPa 0,0 l/m 2,7 km/h (1 Bft) W 269 0 min 0,000 mm 0,0 UV-I 0 W/m 8,9 C 9,4 C 3,2 km/h (1 Bft) 96,30 %
01.05.2016 23:28 9,4 C 97 % 1017,9 hPa 0,0 l/m 3,4 km/h (1 Bft) W-SW 248 0 min 0,000 mm 0,0 UV-I 0 W/m 8,9 C 9,4 C 4,8 km/h (1 Bft) 100,00 %
01.05.2016 23:29 9,4 C 97 % 1017,9 hPa 0,0 l/m 1,6 km/h (1 Bft) W-SW 248 0 min 0,000 mm 0,0 UV-I 0 W/m 8,9 C 9,4 C 3,2 km/h (1 Bft) 96,30 %
01.05.2016 23:30 9,4 C 97 % 1017,8 hPa 0,0 l/m 2,8 km/h (1 Bft) W-SW 248 0 min 0,000 mm 0,0 UV-I 0 W/m 8,9 C 9,4 C 3,2 km/h (1 Bft) 95,65 %
01.05.2016 23:31 9,4 C 97 % 1017,8 hPa 0,0 l/m 3,1 km/h (1 Bft) W-SW 248 0 min 0,000 mm 0,0 UV-I 0 W/m 8,9 C 9,4 C 4,8 km/h (1 Bft) 100,00 %
01.05.2016 23:32 9,4 C 97 % 1017,8 hPa 0,0 l/m 2,3 km/h (1 Bft) W-SW 244 0 min 0,000 mm 0,0 UV-I 0 W/m 8,9 C 9,4 C 4,8 km/h (1 Bft) 91,67 %
01.05.2016 23:33 9,4 C 97 % 1017,9 hPa 0,0 l/m 2,9 km/h (1 Bft) W-SW 244 0 min 0,000 mm 0,0 UV-I 0 W/m 8,9 C 9,4 C 4,8 km/h (1 Bft) 96,55 %
01.05.2016 23:34 9,4 C 97 % 1017,8 hPa 0,0 l/m 1,0 km/h (0 Bft) W-SW 244 0 min 0,000 mm 0,0 UV-I 0 W/m 8,9 C 9,4 C 3,2 km/h (1 Bft) 96,15 %
01.05.2016 23:35 9,4 C 97 % 1017,8 hPa 0,0 l/m 0,0 km/h (0 Bft) W-SW 244 0 min 0,000 mm 0,0 UV-I 0 W/m 8,9 C 9,4 C 0,0 km/h (0 Bft) 100,00 %
01.05.2016 23:36 9,4 C 97 % 1017,8 hPa 0,0 l/m 1,6 km/h (1 Bft) W-SW 244 0 min 0,000 mm 0,0 UV-I 0 W/m 8,9 C 9,4 C 3,2 km/h (1 Bft) 96,15 %
01.05.2016 23:37 9,4 C 97 % 1017,8 hPa 0,0 l/m 2,5 km/h (1 Bft) W-SW 244 0 min 0,000 mm 0,0 UV-I 0 W/m 8,9 C 9,4 C 3,2 km/h (1 Bft) 91,67 %
01.05.2016 23:38 9,4 C 97 % 1017,8 hPa 0,0 l/m 2,3 km/h (1 Bft) W-SW 244 0 min 0,000 mm 0,0 UV-I 0 W/m 8,9 C 9,4 C 3,2 km/h (1 Bft) 100,00 %
01.05.2016 23:39 9,4 C 97 % 1017,8 hPa 0,0 l/m 2,2 km/h (1 Bft) W-SW 244 0 min 0,000 mm 0,0 UV-I 0 W/m 8,9 C 9,4 C 3,2 km/h (1 Bft) 96,88 %
01.05.2016 23:40 9,4 C 97 % 1017,8 hPa 0,0 l/m 2,4 km/h (1 Bft) W-SW 244 0 min 0,000 mm 0,0 UV-I 0 W/m 8,9 C 9,4 C 3,2 km/h (1 Bft) 100,00 %
01.05.2016 23:41 9,4 C 97 % 1017,8 hPa 0,0 l/m 2,4 km/h (1 Bft) W-SW 244 0 min 0,000 mm 0,0 UV-I 0 W/m 8,9 C 9,4 C 3,2 km/h (1 Bft) 90,91 %
01.05.2016 23:42 9,4 C 97 % 1017,8 hPa 0,0 l/m 2,5 km/h (1 Bft) W-SW 257 0 min 0,000 mm 0,0 UV-I 0 W/m 8,9 C 9,4 C 4,8 km/h (1 Bft) 100,00 %
01.05.2016 23:43 9,4 C 97 % 1017,8 hPa 0,0 l/m 2,5 km/h (1 Bft) W 259 0 min 0,000 mm 0,0 UV-I 0 W/m 8,9 C 9,4 C 3,2 km/h (1 Bft) 95,65 %
01.05.2016 23:44 9,4 C 97 % 1017,8 hPa 0,0 l/m 2,9 km/h (1 Bft) W 259 0 min 0,000 mm 0,0 UV-I 0 W/m 8,9 C 9,4 C 3,2 km/h (1 Bft) 100,00 %
01.05.2016 23:45 9,4 C 97 % 1017,8 hPa 0,0 l/m 2,6 km/h (1 Bft) W 259 0 min 0,000 mm 0,0 UV-I 0 W/m 8,9 C 9,4 C 3,2 km/h (1 Bft) 85,71 %
01.05.2016 23:46 9,4 C 97 % 1017,9 hPa 0,0 l/m 2,5 km/h (1 Bft) W 259 0 min 0,000 mm 0,0 UV-I 0 W/m 8,9 C 9,4 C 3,2 km/h (1 Bft) 100,00 %
01.05.2016 23:47 9,4 C 97 % 1017,8 hPa 0,0 l/m 3,1 km/h (1 Bft) W 259 0 min 0,000 mm 0,0 UV-I 0 W/m 8,9 C 9,4 C 4,8 km/h (1 Bft) 96,15 %
01.05.2016 23:48 9,4 C 97 % 1017,8 hPa 0,0 l/m 1,9 km/h (1 Bft) W 259 0 min 0,000 mm 0,0 UV-I 0 W/m 8,9 C 9,4 C 3,2 km/h (1 Bft) 100,00 %
01.05.2016 23:49 9,4 C 97 % 1017,9 hPa 0,0 l/m 0,1 km/h (0 Bft) W 259 0 min 0,000 mm 0,0 UV-I 0 W/m 8,9 C 9,4 C 1,6 km/h (1 Bft) 100,00 %
01.05.2016 23:50 9,4 C 97 % 1017,9 hPa 0,0 l/m 0,0 km/h (0 Bft) W 259 0 min 0,000 mm 0,0 UV-I 0 W/m 8,9 C 9,4 C 0,0 km/h (0 Bft) 100,00 %
01.05.2016 23:51 9,4 C 97 % 1017,9 hPa 0,0 l/m 0,0 km/h (0 Bft) W 259 0 min 0,000 mm 0,0 UV-I 0 W/m 8,9 C 9,4 C 0,0 km/h (0 Bft) 100,00 %
01.05.2016 23:52 9,4 C 97 % 1017,9 hPa 0,0 l/m 0,0 km/h (0 Bft) W 259 0 min 0,000 mm 0,0 UV-I 0 W/m 8,9 C 9,4 C 0,0 km/h (0 Bft) 100,00 %
01.05.2016 23:53 9,4 C 97 % 1017,9 hPa 0,0 l/m 0,0 km/h (0 Bft) W 259 0 min 0,000 mm 0,0 UV-I 0 W/m 8,9 C 9,4 C 0,0 km/h (0 Bft) 95,83 %
01.05.2016 23:54 9,4 C 97 % 1017,9 hPa 0,0 l/m 0,0 km/h (0 Bft) W 259 0 min 0,000 mm 0,0 UV-I 0 W/m 8,9 C 9,4 C 0,0 km/h (0 Bft) 95,65 %
01.05.2016 23:55 9,4 C 97 % 1017,9 hPa 0,0 l/m 0,0 km/h (0 Bft) W 259 0 min 0,000 mm 0,0 UV-I 0 W/m 8,9 C 9,4 C 0,0 km/h (0 Bft) 95,83 %
01.05.2016 23:56 9,4 C 97 % 1017,9 hPa 0,0 l/m 0,0 km/h (0 Bft) W 259 0 min 0,000 mm 0,0 UV-I 0 W/m 8,9 C 9,4 C 0,0 km/h (0 Bft) 95,65 %
01.05.2016 23:57 9,4 C 97 % 1017,9 hPa 0,0 l/m 0,0 km/h (0 Bft) W 259 0 min 0,000 mm 0,0 UV-I 0 W/m 8,9 C 9,4 C 0,0 km/h (0 Bft) 100,00 %
01.05.2016 23:58 9,4 C 97 % 1017,9 hPa 0,0 l/m 0,0 km/h (0 Bft) W 259 0 min 0,000 mm 0,0 UV-I 0 W/m 8,9 C 9,4 C 0,0 km/h (0 Bft) 100,00 %
01.05.2016 23:59 9,4 C 97 % 1017,9 hPa 0,0 l/m 0,0 km/h (0 Bft) W 259 0 min 0,000 mm 0,0 UV-I 0 W/m 8,9 C 9,4 C 0,0 km/h (0 Bft) 100,00 %
_ Min-Zeit 02:50 00:00 05:55 - 19:44 - - - - - - 01:18 06:38 19:44 23:45
Minimum _ 9,4 C 65 % 1010,2 hPa - 0,0 km/h (0 Bft) - - - - - - 3,7 C 1,0 C 0,0 km/h (0 Bft) 85,71 %
_ Max-Zeit 10:16 21:07 22:49 13:13 08:36 - - 09:43 10:00 09:54 08:37 17:47 17:23 08:30 00:00
Maximum _ 12,7 C 97 % 1017,9 hPa 0,2 l/m 31,1 km/h
O (5 Bft)
- - 3 min 0,254 mm 1,5 UV-I 402 W/m 9,9 C 10,7 C 41,8 km/h
O-NO (6 Bft)
100,00 %
Durchschnitt _ 10,5 C 80 % 1013,7 hPa #7,2 l/m 12,7 km/h (3 Bft) O-NO - #1:42 h #1,905 mm 0,9 UV-I 140 W/m 7,0 C 6,8 C 17,3 km/h (3 Bft) 98,55 %